GFSSGP_sfc_dewp_000.txt.gz
Dewpoint
75 72 69 67 57 47 45 50 51 53 55 59 58 58 59 60 55 54 68 71 73 73 75 75 77 77 77 77 77 77 77 78 77 77 78 78 78 78 78 78 77 77 76 75 75 75 75 74 74
71 69 68 64 52 39 40 50 52 51 56 59 60 60 60 59 62 64 68 71 73 73 74 75 77 78 77 77 77 77 78 78 78 79 78 79 79 78 78 76 76 75 75 75 74 74 74 73 73
67 66 62 59 47 38 45 51 53 52 56 57 58 61 61 63 65 66 69 71 72 74 75 75 78 78 77 78 78 78 78 78 78 79 78 79 78 77 76 75 75 75 75 75 74 73 73 73 72
64 60 59 50 35 38 49 53 54 54 56 60 61 61 63 66 65 67 69 70 72 74 75 77 78 77 78 78 78 78 78 77 78 78 78 77 77 75 75 75 75 75 75 74 73 73 73 73 73
63 57 49 38 37 39 51 54 54 56 58 60 61 62 63 65 68 69 70 71 72 74 75 76 77 77 77 78 79 79 78 78 78 78 77 78 77 76 76 75 75 74 74 73 73 72 72 73 73
51 52 48 46 42 35 48 53 55 60 62 62 62 62 64 67 69 70 71 71 73 75 76 75 77 77 78 78 78 79 78 78 78 77 77 78 77 76 75 75 74 73 73 72 72 73 73 74 74
48 53 48 46 46 46 51 54 57 61 61 61 63 62 64 66 68 70 70 72 73 76 77 77 76 76 78 79 79 78 78 78 78 78 77 77 76 75 75 75 74 74 73 73 73 74 74 75 75
51 46 46 48 46 37 51 48 56 59 58 64 62 62 63 65 68 69 70 72 73 74 76 77 77 77 77 77 78 77 78 78 77 77 76 77 76 75 74 75 76 74 74 73 73 74 75 75 75
53 49 46 45 44 44 42 49 55 57 61 59 59 62 65 66 68 69 69 71 72 73 75 75 76 76 77 77 77 78 77 77 77 77 77 77 74 72 68 71 71 73 74 74 73 74 75 75 74
46 46 45 46 47 45 44 46 50 56 57 58 61 63 66 67 68 68 69 69 71 72 73 74 74 75 76 77 75 75 76 76 76 75 75 74 72 72 73 71 69 70 74 74 74 74 74 73 71
42 41 44 45 48 48 50 52 55 55 56 58 59 61 65 66 67 68 69 69 70 71 72 72 74 75 75 76 75 75 75 75 75 74 74 73 73 73 72 71 71 72 73 72 73 73 72 72 70
42 41 44 46 51 47 49 50 47 55 57 59 59 62 64 65 66 67 68 68 69 70 70 72 74 73 74 75 75 75 74 74 74 74 73 73 72 70 72 71 72 72 72 71 72 71 71 71 70
37 42 44 46 46 47 49 47 51 55 58 58 58 60 62 64 65 65 66 68 69 69 69 72 74 73 74 73 74 74 74 74 74 73 74 73 72 71 73 71 72 71 72 71 71 70 70 70 70
39 43 45 46 47 48 45 47 48 57 58 58 58 59 60 61 62 63 63 65 67 69 70 72 72 73 73 73 73 73 72 72 73 72 73 73 72 71 72 71 70 70 71 71 71 71 70 70 70
39 40 40 45 47 49 51 50 50 55 58 57 58 59 59 60 61 62 64 64 64 67 71 71 72 73 73 73 73 72 73 73 71 71 71 71 73 72 71 70 70 70 70 70 70 70 69 69 70
31 32 33 41 46 49 50 50 52 56 56 56 58 58 59 59 60 61 64 64 64 68 70 71 71 73 72 73 73 74 73 72 72 72 71 71 72 72 71 69 69 70 70 70 68 67 67 67 68
28 27 34 37 42 47 49 50 51 52 53 54 56 57 58 59 59 61 62 64 64 66 69 70 72 73 73 73 74 73 73 73 72 72 71 71 71 72 71 69 70 70 69 68 68 67 67 67 67
25 31 33 35 37 43 48 49 52 53 53 53 54 55 56 57 58 60 62 63 64 66 68 67 68 72 73 73 73 73 73 72 72 72 71 71 71 72 72 70 70 70 69 68 68 67 67 67 66
27 33 34 35 34 48 48 50 51 53 54 54 55 56 57 57 59 60 62 63 65 67 68 68 69 71 73 72 71 71 70 70 71 71 72 72 71 71 70 70 70 70 68 68 68 67 66 66 66
23 28 34 37 34 37 48 49 50 52 54 55 56 57 58 60 60 61 63 65 66 66 67 70 69 72 72 72 71 71 71 71 72 72 73 72 71 71 71 70 70 68 68 66 66 66 65 65 66
22 32 32 33 36 40 47 47 48 52 53 53 55 57 57 61 60 61 63 64 66 66 70 70 71 72 72 72 72 72 71 70 69 69 70 68 65 66 68 67 66 66 66 65 65 65 64 63 65
18 23 31 36 35 36 41 40 45 48 48 49 53 55 57 59 62 63 63 63 65 68 71 71 72 73 73 72 72 70 67 62 64 66 66 63 63 65 65 64 66 66 66 65 65 67 65 64 62
19 19 19 37 34 35 40 39 42 45 43 45 50 53 55 58 62 63 63 63 66 68 71 71 72 73 73 71 72 65 59 61 65 65 63 62 62 64 64 66 66 65 65 64 65 64 64 64 63
20 18 19 25 27 28 35 34 38 44 42 42 47 53 53 57 61 63 64 63 66 69 71 72 71 71 68 67 62 58 60 61 62 62 60 61 59 64 66 64 63 64 63 64 64 64 64 63 63
18 16 14 15 17 16 21 35 34 44 43 42 44 52 53 56 57 61 61 63 67 69 70 71 71 69 63 61 59 58 60 60 60 60 61 60 63 62 62 62 62 60 61 63 64 63 62 62 62
16 15 18 15 22 19 24 20 20 44 45 44 45 51 52 55 56 58 58 62 66 68 69 70 69 67 63 61 60 61 61 60 60 61 62 57 59 62 62 61 61 61 61 63 64 63 61 63 62
15 19 22 22 33 24 24 26 36 41 44 43 43 47 50 53 56 57 59 61 65 67 68 69 67 66 64 62 62 61 61 62 64 64 60 58 61 61 61 61 61 61 63 62 63 63 63 61 61
15 20 19 21 17 17 23 26 30 43 44 45 44 44 46 52 56 57 58 61 65 65 68 69 67 65 64 64 62 61 62 63 63 62 60 62 60 61 61 61 61 62 62 62 62 61 61 61 61
23 22 21 22 23 19 19 24 35 43 46 47 47 46 46 50 53 57 58 59 64 65 67 69 67 66 64 64 63 64 64 63 62 62 61 61 61 62 63 63 63 62 61 62 62 62 62 61 61
23 21 23 20 19 23 23 26 38 40 43 46 46 48 48 48 52 55 57 58 63 64 67 68 68 67 66 66 66 65 65 64 62 62 61 62 62 61 61 61 61 61 62 63 62 62 61 61 60

GFSSGP_sfc_dewp_006.txt.gz
Dewpoint
74 72 70 67 54 49 48 49 53 55 56 61 60 58 59 60 55 52 67 70 71 71 73 73 76 75 74 74 74 74 74 75 76 77 77 76 76 76 75 75 75 75 74 74 74 74 74 73 72
71 69 69 63 45 46 46 51 51 54 59 61 60 60 60 59 64 66 67 72 73 73 73 73 76 76 75 75 76 75 75 76 77 77 77 77 76 76 75 75 75 74 74 74 73 73 72 72 72
69 66 61 59 43 44 47 52 55 58 60 60 60 62 62 62 66 67 70 73 74 74 74 75 76 76 76 76 76 77 77 76 76 77 76 77 76 76 75 74 74 74 73 73 72 72 72 71 71
64 61 58 41 36 44 50 52 57 58 61 61 61 61 64 66 66 69 72 73 73 74 74 76 76 76 76 76 77 76 77 77 77 77 76 76 75 74 74 73 73 73 73 72 71 71 71 72 72
61 54 42 40 44 52 53 53 56 56 60 61 62 61 62 66 69 70 72 72 73 74 75 75 77 77 76 76 76 77 77 77 77 77 76 76 75 74 74 74 73 73 72 72 72 72 72 72 72
50 49 40 41 45 53 53 53 56 60 62 62 61 61 64 68 68 70 71 72 74 75 75 75 76 77 77 77 77 77 77 77 77 76 76 75 75 75 74 73 72 72 71 72 72 73 73 73 74
53 47 44 44 50 52 53 57 60 61 61 61 62 59 66 66 69 70 71 73 75 76 75 75 76 76 77 77 77 77 77 76 76 75 76 76 75 75 74 74 73 72 72 72 73 73 74 74 74
49 44 46 44 48 49 54 58 61 59 60 63 63 60 61 67 70 70 71 73 75 75 75 75 75 75 75 76 76 75 76 75 75 76 75 75 75 74 74 74 74 73 73 74 74 73 73 73 73
52 43 41 44 44 47 54 59 60 62 61 61 62 62 65 69 70 70 71 73 73 74 75 75 75 75 75 76 76 75 75 75 75 75 75 76 74 74 74 72 73 73 73 73 74 73 73 73 73
46 43 42 45 46 51 53 58 59 59 59 61 62 66 68 69 69 69 69 69 71 72 74 75 75 75 75 77 76 75 75 75 75 75 75 75 74 73 69 72 71 71 71 73 73 72 73 73 71
46 42 44 46 46 53 52 57 57 58 57 61 61 65 68 68 68 69 68 69 70 72 73 74 75 75 75 76 75 75 75 74 75 75 74 74 73 72 73 70 71 72 72 72 72 72 71 71 71
38 43 45 45 50 52 52 54 58 57 57 61 63 66 67 68 68 68 68 70 70 71 73 74 74 75 75 75 75 74 74 74 74 74 74 73 72 71 71 71 72 72 72 71 71 71 71 71 71
29 33 44 48 46 49 52 54 57 55 60 63 64 66 66 67 68 68 69 70 70 71 72 73 74 74 75 74 74 74 74 74 74 74 74 73 71 70 70 72 72 72 72 71 71 71 71 70 70
30 43 45 46 47 49 52 55 56 58 62 64 63 64 65 66 67 68 69 69 70 71 71 73 74 74 74 74 74 74 74 74 74 73 74 73 72 71 71 71 71 71 71 71 72 71 70 69 69
43 42 43 46 47 52 52 52 54 59 62 63 64 65 65 66 67 68 69 69 70 71 71 72 73 74 73 73 73 73 73 73 73 73 73 72 72 71 71 71 71 71 70 70 70 69 68 68 68
39 41 40 44 47 52 48 47 57 59 60 62 64 65 65 66 67 68 69 69 70 71 71 72 73 73 73 73 72 72 73 73 73 73 72 72 73 73 71 71 70 71 71 70 69 68 67 67 67
35 38 39 43 47 49 49 49 57 58 60 61 63 64 64 66 66 67 68 68 69 70 70 71 73 73 73 72 72 73 73 72 72 73 72 72 72 72 72 70 70 70 70 70 69 68 68 67 67
36 38 38 43 44 48 48 50 57 57 57 59 60 61 63 63 64 65 65 67 68 69 71 71 72 73 73 73 73 72 72 72 72 73 72 72 72 72 72 71 71 71 70 69 68 68 68 67 67
34 39 39 42 44 46 48 50 56 57 56 57 57 58 60 61 62 63 64 66 66 67 70 71 72 73 73 72 71 71 71 72 72 72 72 72 71 72 71 71 70 70 69 69 68 68 67 67 67
35 33 37 37 43 45 49 49 55 57 56 56 57 57 58 59 60 61 63 65 65 66 69 70 71 72 73 72 71 72 71 71 71 72 72 72 72 72 71 70 70 70 69 68 67 67 66 67 68
26 22 25 34 45 48 48 48 51 56 56 57 57 57 58 58 59 60 61 64 64 65 68 69 70 71 72 72 71 71 71 71 71 71 72 72 71 71 71 70 70 69 67 67 66 66 66 65 66
25 25 25 37 41 38 44 37 48 50 53 53 54 55 57 58 59 59 60 62 63 65 67 69 69 70 71 72 71 71 70 69 69 69 71 71 71 70 69 68 67 67 67 66 66 68 67 66 64
23 27 28 37 38 40 45 37 40 50 50 51 52 53 55 56 57 59 59 61 62 65 66 68 69 69 71 71 71 71 69 69 65 66 69 68 67 66 66 66 66 67 66 66 66 66 66 66 65
24 18 25 30 35 33 38 39 36 48 49 50 52 54 56 56 58 59 60 61 63 65 66 68 69 69 71 71 71 70 69 66 64 65 66 64 63 63 65 65 67 67 66 65 65 65 66 66 66
19 20 19 21 30 30 36 40 36 42 49 48 50 53 56 57 59 59 60 61 63 65 66 68 69 69 71 71 71 71 69 65 64 64 64 62 61 63 65 66 65 64 64 64 65 65 65 65 65
20 20 20 15 21 29 37 38 39 41 43 49 50 52 54 56 59 59 60 61 63 65 66 68 69 69 71 71 71 71 68 64 64 64 63 62 62 63 64 63 64 61 62 64 65 64 64 64 65
19 17 19 18 22 21 28 28 30 34 38 46 48 51 52 56 58 60 61 62 63 64 66 68 69 69 70 71 71 68 66 63 63 63 62 62 62 62 63 62 62 61 62 65 64 64 64 64 64
18 20 17 19 17 21 23 25 27 32 36 41 47 49 51 54 58 60 61 62 63 63 65 67 69 69 70 70 69 67 64 62 62 62 62 61 61 62 62 62 62 62 62 64 64 63 63 64 63
19 19 20 20 20 17 17 22 29 30 36 39 45 48 49 52 56 58 62 63 63 63 65 67 68 70 70 68 67 64 61 61 61 62 62 61 60 61 62 62 62 62 62 63 63 63 63 63 64
17 17 19 16 17 22 20 19 28 33 36 45 45 47 47 52 56 58 61 62 63 63 64 66 68 69 70 69 66 63 60 62 61 62 62 62 61 61 62 62 62 63 63 63 62 62 63 63 63

GFSSGP_sfc_dewp_009.txt.gz
Dewpoint
74 73 70 67 53 49 48 50 53 54 54 59 57 55 58 60 54 53 66 69 69 70 71 73 75 75 74 74 74 75 75 75 76 77 76 75 74 75 75 75 75 75 74 74 74 74 74 73 73
69 68 68 63 47 42 47 51 53 54 58 59 60 59 59 58 62 64 66 69 70 70 71 71 75 75 75 75 75 75 75 75 76 77 76 75 75 75 75 75 74 74 74 74 73 73 73 73 73
68 65 62 53 46 42 46 51 55 58 59 58 59 61 60 60 63 64 67 70 70 71 71 72 75 75 75 75 75 75 76 75 75 75 76 75 75 75 75 74 74 74 74 73 73 72 72 72 72
64 62 57 41 42 48 50 53 57 58 59 60 58 57 62 64 63 66 69 70 70 71 71 74 76 76 75 75 75 76 76 76 77 76 75 75 75 74 74 73 73 73 73 73 72 72 72 73 73
60 54 42 43 46 51 52 55 58 57 59 58 59 58 60 66 67 68 69 69 69 70 72 73 76 76 76 76 76 77 77 76 77 76 75 75 74 74 73 73 73 73 73 72 72 72 73 73 73
51 49 40 40 48 52 53 56 57 59 60 60 58 57 61 68 66 68 68 69 69 70 71 73 75 76 76 76 76 77 77 76 76 75 75 75 74 74 74 73 72 72 71 72 73 73 73 73 74
49 46 43 45 49 51 52 55 57 59 59 58 58 57 64 65 65 68 68 70 70 70 71 73 74 75 77 77 76 76 76 76 76 76 75 75 75 74 74 73 72 72 72 73 73 73 73 73 73
49 45 43 45 48 47 54 56 59 58 58 61 60 57 60 65 66 68 69 70 71 71 72 73 74 74 75 74 76 75 76 76 75 75 75 75 75 74 74 74 73 73 73 73 74 73 72 73 73
51 44 42 42 48 48 55 54 60 60 60 60 61 61 61 66 67 66 68 69 70 71 73 73 72 75 76 75 74 75 75 75 75 74 75 74 74 73 71 73 73 73 72 73 73 72 73 73 72
46 45 42 43 47 50 54 55 59 59 58 58 61 64 66 67 66 65 65 66 68 69 71 73 74 74 74 71 75 75 73 71 72 74 74 73 74 75 73 70 72 71 71 72 73 73 72 70 69
46 42 44 44 46 51 53 55 58 58 56 57 60 64 66 66 65 64 64 65 66 69 70 72 74 75 75 75 74 76 74 74 73 74 74 75 74 74 72 71 70 70 72 70 71 71 70 71 71
38 42 43 44 49 51 53 55 56 57 53 57 62 65 65 65 65 64 64 65 67 69 70 71 73 75 75 76 73 74 72 73 71 73 75 76 76 72 73 71 72 74 72 72 72 71 72 71 71
32 31 40 44 50 50 54 55 54 56 56 60 63 65 65 65 65 66 66 66 68 68 70 72 73 75 75 75 73 73 74 71 71 73 74 73 76 73 73 73 73 74 73 72 73 73 72 71 69
29 35 41 46 50 51 51 54 54 55 61 62 63 64 64 64 65 67 68 67 68 68 70 72 73 75 75 75 76 75 74 75 73 73 73 75 73 77 76 72 73 72 73 72 73 72 71 69 69
44 43 46 46 48 50 53 53 53 57 61 62 62 63 64 65 66 67 67 67 69 69 69 70 72 74 75 76 77 75 74 73 72 72 75 75 75 76 75 76 75 73 73 73 72 71 71 69 68
41 42 40 46 48 52 48 43 53 59 60 60 61 62 63 64 65 67 68 68 70 70 70 71 69 71 73 74 75 73 74 73 73 78 78 75 75 75 76 77 75 74 73 71 71 70 69 69 67
40 37 40 44 47 50 48 44 53 59 59 59 60 61 62 64 65 67 68 69 69 71 72 72 73 73 75 76 75 76 76 75 77 74 74 75 75 75 76 76 75 73 72 74 72 70 70 66 65
36 38 40 41 46 49 47 47 55 58 58 59 61 61 62 63 65 67 68 69 70 71 72 73 73 75 76 77 77 77 77 77 77 73 73 75 75 74 74 74 74 73 72 71 71 71 70 68 67
35 39 38 42 46 46 47 47 54 57 58 58 61 62 62 62 64 66 68 68 69 71 71 73 73 75 75 73 74 74 72 74 73 76 75 74 74 74 75 75 73 73 71 71 71 70 69 66 69
39 38 39 41 45 45 47 46 52 56 57 57 59 60 61 62 63 66 67 67 67 69 71 73 74 75 75 74 74 73 73 73 73 74 75 75 74 75 74 73 72 72 69 71 70 70 67 67 69
35 37 39 38 42 46 46 43 50 55 57 57 57 58 59 60 61 63 65 66 67 68 70 72 74 75 75 76 75 75 75 75 73 73 73 73 74 74 74 73 71 71 69 65 70 69 69 65 68
25 35 38 39 39 37 43 35 45 50 55 56 56 57 57 59 60 61 63 65 66 67 69 72 73 75 75 76 75 75 72 71 71 72 72 73 74 73 73 73 71 71 67 69 69 69 69 69 64
27 32 33 37 37 39 43 38 37 50 51 54 55 56 57 57 58 60 62 63 65 67 68 70 73 75 75 76 76 73 73 72 72 71 73 75 74 73 71 71 70 69 68 70 69 70 69 68 66
28 29 32 38 35 31 33 37 30 46 49 49 53 55 56 57 58 60 61 63 64 66 67 69 73 74 74 75 75 75 74 73 71 70 68 69 71 70 70 68 69 70 69 69 67 69 68 68 68
26 25 25 26 29 24 33 40 35 40 47 48 49 53 55 56 57 59 61 62 64 66 67 68 72 73 73 73 74 74 74 75 73 72 68 69 69 68 67 69 69 68 70 68 68 68 68 67 66
25 23 23 25 24 23 37 34 33 41 41 47 50 51 53 55 56 58 60 63 64 65 67 68 71 72 72 72 74 75 75 73 72 71 68 68 68 67 67 68 68 69 67 66 68 66 65 67 65
25 24 23 23 24 21 26 37 34 38 40 43 46 50 53 54 56 58 60 62 64 66 68 69 71 72 72 71 74 74 75 74 72 71 70 68 69 65 67 67 68 67 65 66 68 63 66 67 67
22 23 20 23 27 24 23 28 23 37 38 42 46 49 51 55 57 58 60 62 64 65 67 69 70 71 72 71 73 73 73 74 73 71 69 68 68 67 67 67 66 65 65 65 67 65 65 66 64
18 19 24 22 23 23 21 21 35 40 45 42 44 48 51 55 58 59 61 62 64 65 66 67 68 71 71 71 73 73 72 72 72 70 68 67 68 67 67 67 65 65 64 65 66 66 65 65 65
15 20 23 20 29 24 22 20 30 36 38 40 42 45 50 57 59 59 61 62 62 64 64 65 67 67 70 72 73 72 72 71 69 69 66 68 65 66 66 66 66 65 64 65 66 65 62 64 64

GFSSGP_sfc_dewp_012.txt.gz
Dewpoint
74 72 71 69 57 49 48 48 50 51 53 56 54 53 55 58 55 57 64 67 68 68 70 72 75 74 74 74 74 75 75 75 76 76 74 74 75 75 75 75 75 74 74 74 74 73 73 73 73
70 70 67 59 43 41 45 49 49 53 55 56 56 55 55 57 60 62 65 67 67 66 67 70 75 74 74 74 74 75 74 74 75 75 74 74 74 74 75 74 74 74 74 74 73 73 73 73 73
66 64 59 43 35 39 45 49 52 54 55 55 56 58 57 59 61 62 66 67 67 67 67 71 75 75 75 74 74 75 75 75 75 74 74 74 74 75 74 74 74 74 73 73 73 72 72 73 73
60 60 57 38 35 42 46 51 55 55 55 56 55 56 60 62 62 64 67 67 67 68 69 72 74 75 75 75 75 75 75 75 75 74 74 75 75 74 73 74 74 73 73 72 72 72 73 73 73
60 53 38 34 39 42 47 53 55 53 54 54 54 54 59 64 65 66 67 67 67 67 70 70 76 76 75 75 75 76 75 75 75 75 75 75 74 74 73 74 73 72 72 72 72 73 73 73 73
52 47 35 33 39 44 48 52 54 54 56 56 53 57 60 64 65 66 67 67 67 67 69 72 76 76 76 76 76 76 75 75 76 75 75 74 74 74 73 73 72 72 71 72 73 73 73 73 73
47 41 36 37 39 42 46 51 52 54 56 55 54 55 61 62 65 66 66 66 66 67 69 71 72 75 76 76 76 76 76 75 75 75 75 74 74 74 73 73 72 72 72 73 73 72 72 72 72
48 42 37 38 39 40 46 49 53 53 55 56 54 55 59 61 64 65 65 66 67 67 69 70 71 71 73 73 76 76 75 74 74 74 74 74 74 73 73 73 73 72 73 72 73 72 72 72 72
50 40 37 38 40 44 47 47 53 55 57 57 56 55 58 61 63 64 65 66 67 67 69 69 69 73 74 71 72 75 75 75 74 74 74 73 69 71 69 72 72 72 72 72 72 71 73 72 72
43 40 37 38 39 45 47 47 52 54 55 55 58 58 60 61 63 63 64 65 66 68 68 68 70 71 71 68 73 73 70 69 69 69 71 68 71 72 70 71 71 71 71 72 72 72 72 72 67
35 38 40 40 39 45 47 48 52 49 52 53 56 60 61 61 62 62 63 64 65 67 67 68 70 72 71 70 70 69 69 68 69 73 71 70 71 71 70 70 69 69 71 69 70 70 68 69 68
30 32 33 36 42 45 46 48 49 49 48 52 56 60 61 61 61 61 62 63 64 66 67 68 70 72 71 71 69 69 68 68 67 68 73 72 69 71 72 69 71 72 70 70 71 68 71 70 70
27 26 28 32 40 44 47 48 49 50 52 54 57 60 60 60 60 61 61 62 64 66 67 68 71 73 73 74 69 69 69 67 67 68 71 69 69 72 70 72 73 71 70 70 70 70 70 70 68
27 28 29 34 41 46 47 49 51 50 53 56 59 60 60 60 60 62 62 63 64 66 67 69 71 73 73 73 74 71 70 68 69 67 68 73 70 74 70 71 70 70 71 70 71 71 70 69 68
30 33 40 40 45 47 47 50 50 51 55 58 58 59 59 60 61 62 63 64 65 66 67 69 71 72 73 74 74 73 70 69 68 67 72 74 76 74 73 72 70 70 73 74 72 72 71 68 66
32 32 34 42 46 48 47 42 49 54 55 56 57 59 59 60 60 63 64 65 65 67 68 69 68 70 72 73 73 71 69 69 74 70 72 73 74 74 73 70 69 69 70 72 71 71 67 65 63
31 29 31 42 46 48 47 40 48 54 54 56 56 57 58 60 62 64 64 65 65 68 69 70 70 69 71 74 73 73 74 75 73 72 72 73 73 73 72 70 73 73 73 72 71 67 67 61 59
28 29 29 34 44 46 45 43 49 53 52 54 57 56 57 58 60 62 64 66 66 68 71 71 70 72 74 78 77 75 71 70 70 74 76 74 74 73 73 72 72 72 73 71 68 69 65 63 61
27 29 30 33 42 44 41 42 47 53 53 53 56 57 56 56 58 62 64 65 66 69 71 72 73 74 76 70 69 69 68 69 70 71 74 74 73 73 74 71 72 73 70 69 69 65 63 58 63
27 28 29 33 43 42 40 42 44 49 53 53 54 56 58 56 57 62 64 64 65 68 71 73 74 75 75 71 76 71 70 68 69 70 74 74 73 74 73 73 71 72 67 70 67 66 61 60 64
28 27 29 34 42 43 39 41 43 44 50 53 54 54 57 57 57 60 62 64 65 67 70 72 74 75 76 75 74 74 74 74 71 70 71 72 74 74 74 74 71 71 67 60 66 66 65 59 64
25 26 28 33 37 36 41 33 37 40 46 51 53 54 53 57 59 59 61 63 64 66 69 72 74 75 75 76 76 76 70 66 65 67 66 68 72 72 72 73 71 69 62 66 66 65 65 66 61
25 26 29 31 34 35 38 36 35 39 41 46 51 53 53 53 56 59 60 62 64 65 67 70 74 75 76 76 77 73 74 67 67 67 70 72 72 71 69 72 69 68 64 68 68 67 67 64 61
23 26 29 30 29 30 34 34 31 32 42 39 46 50 53 51 53 56 59 61 63 64 66 68 73 76 76 76 76 76 74 72 67 69 67 65 65 68 71 71 68 68 66 67 67 67 67 66 65
23 26 28 28 27 27 33 32 34 31 33 36 35 46 52 51 52 54 57 60 63 65 66 67 72 75 75 75 75 76 75 75 74 72 68 66 63 63 69 72 69 65 69 68 67 67 66 66 64
21 25 25 29 24 25 31 31 30 34 33 33 37 40 49 51 49 52 56 59 62 64 66 67 70 74 74 74 75 77 76 72 71 72 65 64 61 62 67 70 67 67 68 68 66 63 63 65 64
20 24 25 24 25 22 23 31 31 32 34 36 36 42 47 51 49 52 55 58 61 64 67 70 73 73 73 73 74 76 76 75 72 73 72 67 68 62 67 68 67 66 68 66 67 62 65 65 65
18 23 23 24 29 26 24 27 28 33 30 30 39 42 46 50 52 49 54 57 60 62 64 67 69 72 72 72 73 73 74 75 74 74 73 71 68 68 67 67 65 66 66 65 67 63 65 65 60
15 20 24 23 24 23 24 24 29 32 33 30 31 41 42 49 52 53 52 55 59 61 63 65 67 70 71 71 73 73 72 73 74 74 74 73 71 69 68 68 65 66 65 65 66 65 63 63 64
15 21 25 22 31 25 24 21 25 29 29 29 29 29 37 46 52 55 55 56 58 61 61 62 65 66 68 71 74 72 73 73 73 75 74 74 72 69 69 68 67 65 64 65 65 64 60 61 61

GFSSGP_sfc_dewp_015.txt.gz
Dewpoint
73 71 71 71 61 56 46 47 51 51 52 52 53 56 59 61 56 56 66 68 68 67 70 72 74 74 74 74 75 75 75 76 76 76 76 75 75 76 75 75 75 75 74 74 73 73 73 73 73
70 69 70 64 49 51 45 49 50 52 53 53 53 54 55 57 59 63 64 67 66 65 67 69 75 74 74 74 74 75 74 74 74 75 74 74 75 75 74 74 74 74 74 73 73 72 73 73 73
69 67 61 51 45 43 45 47 50 51 52 52 53 55 57 58 60 62 65 65 65 66 67 71 75 74 74 75 74 75 74 74 74 74 74 74 74 74 74 74 74 73 73 72 72 73 73 73 73
65 60 55 33 35 42 46 47 49 50 51 52 54 55 58 60 62 63 65 65 65 65 67 73 75 74 74 75 75 75 75 75 74 74 74 74 74 73 73 73 73 73 72 72 73 73 73 73 73
59 55 45 31 34 40 47 48 49 49 50 51 53 56 58 61 63 64 66 66 66 66 67 69 75 75 75 75 76 76 75 75 74 74 74 74 74 73 73 73 72 72 72 72 73 73 73 73 73
54 45 38 30 32 37 45 48 48 49 51 51 54 56 59 62 63 64 66 66 67 67 66 70 75 75 75 75 76 75 75 74 75 74 74 74 73 73 73 71 71 71 71 72 73 72 72 72 72
50 45 37 31 34 35 40 46 45 47 50 50 55 56 60 61 63 64 65 66 66 66 67 70 71 75 76 76 75 75 75 75 74 74 74 74 73 73 72 72 71 71 72 73 73 72 72 72 71
48 44 33 38 33 33 38 42 44 46 50 51 53 56 58 62 63 62 64 65 65 67 66 69 70 70 72 73 75 75 75 74 73 74 74 74 74 74 73 72 72 71 71 71 72 71 71 71 72
45 45 37 34 41 36 38 39 44 49 51 50 51 55 59 62 61 61 61 64 65 66 67 66 66 69 73 72 74 75 75 73 73 73 74 73 70 72 72 73 72 71 71 71 71 71 72 72 72
40 53 42 34 39 38 39 37 43 45 49 50 52 55 59 61 61 60 60 61 63 65 66 66 69 68 69 65 73 72 69 68 69 69 72 68 72 72 69 71 72 71 72 72 72 73 73 73 71
34 45 43 35 36 41 40 39 42 43 45 49 52 56 58 60 61 60 60 61 61 66 65 67 71 73 68 71 68 68 68 67 68 70 70 69 69 71 71 73 71 71 72 71 72 71 71 70 66
29 32 31 32 37 38 39 41 39 40 43 47 53 56 58 59 60 59 59 60 62 65 64 64 68 70 69 70 67 66 65 65 65 68 72 72 69 71 70 74 72 73 73 70 73 70 72 68 68
27 31 28 29 35 36 40 41 40 39 43 48 53 55 57 58 59 59 59 60 62 62 64 65 68 72 72 72 67 70 66 65 65 66 70 69 68 73 70 70 69 71 70 71 70 73 70 71 70
27 27 27 29 33 37 39 41 43 42 46 49 54 55 56 56 57 59 59 60 62 63 64 65 68 72 72 72 74 70 70 70 65 71 67 72 70 75 75 74 68 68 73 73 72 71 72 73 72
27 28 32 31 34 37 39 40 41 43 48 50 53 55 54 55 56 58 59 60 62 64 65 66 68 70 72 73 73 71 68 66 70 68 70 72 73 73 74 71 69 72 72 73 72 72 71 70 68
24 27 29 31 34 39 41 40 42 45 47 49 51 54 54 55 55 58 59 60 62 64 66 68 65 68 71 73 72 70 68 73 72 69 73 72 74 74 74 70 69 73 72 72 73 69 73 65 60
27 25 27 31 35 40 40 50 43 46 45 46 50 51 53 55 56 59 59 61 62 65 67 68 69 68 70 75 72 72 74 73 70 71 68 75 73 74 73 71 70 72 70 73 70 70 67 61 59
27 27 27 35 34 39 38 43 43 46 45 45 48 49 52 53 56 58 60 61 62 65 67 69 69 72 74 77 76 75 70 70 69 68 72 73 72 73 73 70 72 72 74 71 74 69 65 63 61
26 27 25 30 32 36 38 39 42 47 47 45 48 49 50 52 55 57 60 61 62 65 68 70 72 76 73 71 73 71 69 70 67 67 72 74 74 74 74 72 74 72 70 72 68 65 64 59 62
24 26 27 29 32 35 37 37 41 47 47 48 48 49 50 51 52 56 60 60 62 65 69 73 74 77 76 72 73 73 71 66 67 67 72 72 72 74 73 75 70 73 67 70 67 66 61 58 63
24 24 26 27 37 37 36 37 38 41 47 49 48 50 50 50 49 55 58 60 62 65 69 73 76 77 77 77 74 74 76 71 68 66 69 71 72 72 74 73 73 72 69 61 67 65 65 59 61
22 24 25 25 34 34 33 31 39 37 40 45 49 49 50 50 51 52 57 60 61 64 68 73 76 78 77 78 74 77 70 66 63 65 65 68 70 70 72 72 70 70 65 70 66 63 66 65 60
21 23 26 26 30 38 30 29 33 36 36 39 45 49 49 50 51 52 54 59 61 63 65 70 76 78 78 78 77 72 73 65 64 63 72 74 74 70 68 70 70 69 63 68 68 66 67 64 61
18 22 26 25 25 28 33 31 33 35 36 37 39 45 50 51 50 54 55 58 60 62 64 69 76 78 79 78 78 78 77 73 66 68 67 65 65 67 70 69 70 69 68 67 66 67 66 67 66
17 19 23 24 23 23 30 29 38 34 34 35 35 39 46 51 50 51 56 56 61 64 66 69 75 78 78 76 76 77 77 77 75 72 67 68 62 63 72 72 71 66 69 68 68 69 67 66 64
14 17 19 27 22 22 27 27 29 34 33 32 32 32 38 47 50 49 53 57 61 63 68 69 73 77 78 77 78 78 78 71 70 72 67 63 62 64 74 71 69 67 68 68 69 64 63 67 63
11 14 18 21 24 23 24 27 30 33 33 33 32 31 33 45 50 50 51 54 59 62 67 70 73 76 76 74 78 78 78 77 71 74 75 67 70 63 67 70 69 67 67 68 69 63 66 66 66
7 11 15 22 29 27 23 26 26 34 34 33 33 31 34 42 49 49 50 52 58 59 64 68 71 74 74 75 76 75 77 78 77 77 76 73 71 71 71 69 68 67 67 67 68 66 66 66 63
9 8 17 19 23 23 24 25 29 35 36 34 33 31 32 39 47 49 49 51 55 57 61 64 68 72 73 74 74 75 74 75 77 76 76 76 73 73 71 71 68 67 67 66 67 67 65 65 66
13 12 13 20 31 24 25 22 26 29 31 31 31 31 33 37 45 49 49 51 53 57 57 60 63 64 69 72 74 75 75 75 74 76 76 77 75 73 72 71 70 68 68 68 67 65 63 63 62

GFSSGP_sfc_dewp_018.txt.gz
Dewpoint
73 71 70 67 60 58 52 50 53 52 50 56 60 60 58 60 54 56 66 69 69 68 71 71 75 74 74 75 76 76 77 77 77 77 77 77 77 77 76 76 76 75 75 74 73 73 73 73 73
69 69 71 63 56 52 51 52 56 56 51 59 61 59 57 57 60 63 65 68 67 67 69 70 76 75 75 76 76 76 76 76 76 76 76 77 77 76 76 74 74 74 74 73 73 73 73 73 73
68 68 67 63 48 52 47 50 51 51 52 53 55 59 58 58 61 64 66 67 65 66 68 72 75 76 76 76 76 76 76 76 76 76 76 76 76 75 74 74 73 73 73 73 73 73 73 73 73
69 68 66 57 44 47 47 46 48 48 52 53 56 56 59 60 62 64 65 64 65 67 68 74 76 75 76 76 76 76 76 76 76 75 76 76 75 74 74 73 72 72 73 73 74 73 73 73 73
68 66 56 46 37 46 45 46 50 47 50 54 56 58 59 60 62 63 64 64 65 66 68 71 76 76 76 76 76 76 75 75 75 75 75 74 74 73 73 72 72 72 72 73 74 73 73 72 72
66 59 52 30 32 40 44 49 52 49 51 53 54 58 60 63 63 64 64 64 65 65 66 70 75 76 76 76 76 76 75 74 75 74 74 74 73 73 73 71 71 71 72 73 73 72 72 72 71
61 55 41 34 32 36 40 46 47 46 47 52 56 56 59 63 65 65 65 65 65 65 68 70 72 74 75 76 76 75 75 75 75 74 74 73 73 73 72 71 71 71 72 73 73 72 71 71 71
62 56 48 43 31 33 38 41 45 45 50 52 55 54 58 63 65 65 65 65 65 66 68 71 72 72 74 73 75 75 75 74 74 73 73 73 73 74 73 74 73 71 71 71 72 71 71 71 72
60 44 43 44 37 34 37 36 44 49 47 49 55 55 58 59 64 63 65 65 65 66 66 68 69 73 75 74 73 75 74 73 73 73 74 75 72 73 73 74 74 72 72 71 72 73 74 74 74
48 54 45 48 41 37 37 37 40 43 45 47 55 56 58 58 62 62 62 62 67 65 65 65 68 71 72 68 75 75 72 70 71 71 74 73 73 74 72 73 72 72 73 71 74 75 75 74 72
44 47 44 40 41 40 41 37 38 43 43 47 54 57 58 57 57 60 62 62 63 64 66 67 71 72 70 73 72 71 70 70 71 75 74 75 72 73 72 74 74 74 73 71 72 73 72 73 71
37 40 39 39 39 43 42 37 37 42 43 48 55 58 58 57 56 56 58 59 63 64 67 67 70 73 74 71 69 70 70 70 70 72 76 77 75 75 73 75 73 74 73 72 74 73 72 73 72
27 28 36 28 29 34 42 38 37 38 44 48 53 56 58 58 56 56 57 59 64 63 66 69 72 74 76 74 73 71 73 69 70 73 74 73 75 71 74 75 73 75 74 73 72 73 73 72 72
25 26 28 26 28 32 39 39 38 38 43 47 51 54 56 57 56 58 58 60 64 64 65 70 72 74 76 75 77 75 68 75 69 70 74 77 76 78 76 75 74 72 74 75 75 75 75 74 73
25 24 27 29 29 32 39 38 38 41 42 46 50 53 54 56 57 58 58 60 62 64 66 69 71 72 75 76 77 77 75 71 69 73 75 74 77 77 78 76 75 74 74 74 76 74 74 73 71
22 22 24 29 29 34 35 39 38 42 40 44 49 51 53 55 55 58 58 60 63 64 69 70 66 71 73 75 76 74 71 75 73 72 76 74 77 78 78 76 74 73 74 74 73 73 73 71 70
22 22 23 28 31 35 36 46 46 42 42 44 47 50 51 54 56 59 58 61 62 67 71 71 71 71 73 76 75 74 74 75 76 75 73 75 74 77 76 75 75 75 76 75 74 74 72 69 67
21 22 24 31 32 33 47 50 46 47 42 43 45 48 51 51 54 58 58 60 62 67 71 71 71 76 75 74 76 77 75 73 73 76 74 75 76 76 76 75 74 76 76 75 75 72 71 68 67
21 25 24 31 35 31 47 51 51 49 43 42 45 46 49 51 55 57 59 60 61 66 70 72 73 76 76 75 72 73 73 74 73 75 75 75 77 77 76 75 76 76 74 74 72 71 68 67 68
22 23 26 30 39 37 37 48 49 48 44 43 44 44 45 47 52 57 59 59 61 66 69 73 73 77 76 75 75 74 73 72 73 70 76 76 76 77 76 76 75 73 74 72 72 70 68 67 69
22 23 25 25 32 34 32 33 39 41 43 44 44 46 45 47 48 56 59 60 62 65 70 73 74 76 75 76 75 76 76 74 73 73 75 73 76 76 75 76 76 75 73 72 71 70 69 66 69
21 22 23 23 30 31 34 32 42 40 44 45 44 46 47 48 50 53 57 61 61 65 70 73 75 76 76 76 75 75 71 72 73 74 73 75 75 75 76 76 75 75 73 72 71 70 69 70 66
21 23 23 23 27 35 37 34 38 41 42 44 44 45 46 50 49 51 56 60 61 65 68 72 75 76 76 77 76 75 74 72 71 71 76 75 77 74 74 76 75 74 71 73 71 70 70 70 68
17 21 22 23 23 26 32 33 35 37 41 39 42 45 48 48 51 52 55 59 62 64 68 70 76 76 76 77 76 76 74 73 71 74 72 73 72 73 75 73 75 73 71 72 71 71 70 69 70
10 14 20 21 22 22 28 35 38 40 41 40 45 44 47 50 51 53 54 58 62 64 67 70 74 76 76 76 76 76 77 76 76 77 72 71 68 70 73 75 73 71 73 73 72 72 72 70 69
10 11 19 24 22 22 27 26 33 40 41 40 46 41 44 48 49 52 55 57 62 63 67 69 74 75 76 75 77 77 77 75 73 75 73 72 70 70 72 73 72 72 72 72 72 71 69 70 68
11 10 12 16 20 21 22 25 26 33 40 38 36 37 36 46 49 52 55 58 62 63 66 69 74 75 76 76 76 77 76 76 74 75 75 72 73 73 71 72 72 71 72 72 72 69 69 69 70
9 11 8 13 22 24 23 29 29 35 41 41 40 36 36 37 50 51 53 57 60 63 65 69 72 74 76 76 76 76 76 76 75 75 75 73 74 73 73 72 72 70 70 71 71 68 69 69 68
12 11 11 10 16 20 24 26 33 40 43 42 39 37 36 38 47 49 53 54 60 62 64 67 69 73 75 75 76 76 76 76 76 76 75 74 75 73 73 73 71 70 69 70 69 67 67 66 68
15 14 12 12 25 18 21 24 28 36 36 39 38 38 38 41 45 49 52 53 56 59 62 65 67 70 73 74 75 75 76 76 76 75 76 76 74 75 73 72 71 69 68 69 68 66 65 66 66

GFSSGP_sfc_dewp_021.txt.gz
Dewpoint
74 73 70 67 60 58 54 54 57 54 56 58 58 57 58 60 56 54 67 69 70 70 72 72 75 75 75 76 77 77 77 78 78 78 78 77 76 76 76 75 75 75 74 73 73 73 73 73 73
72 70 70 63 57 52 53 53 54 56 57 60 60 58 57 58 61 64 67 70 70 70 70 72 75 76 75 76 77 77 76 76 77 77 77 77 76 76 75 74 74 74 74 73 73 73 73 73 73
70 67 67 61 56 52 51 53 55 58 59 58 58 58 59 61 64 66 68 68 69 69 70 72 76 76 76 76 77 77 76 76 76 77 77 77 76 75 74 74 74 73 73 73 73 73 73 73 73
68 70 68 59 51 52 51 53 54 57 57 58 58 57 61 63 64 66 67 66 67 70 72 75 76 75 76 76 76 76 76 76 76 77 77 76 76 74 74 73 73 73 73 73 73 73 73 73 73
70 66 59 55 50 48 50 52 54 55 56 57 58 58 60 63 65 67 65 66 68 70 72 74 77 77 77 76 76 76 75 75 76 77 77 76 76 74 73 72 72 72 72 73 73 72 72 72 72
65 65 55 50 44 45 49 52 56 56 58 59 58 59 60 64 64 64 65 66 68 70 72 73 76 76 77 76 76 76 75 75 76 77 76 76 76 75 74 72 72 71 72 73 72 72 72 71 71
58 56 51 49 38 43 50 53 53 54 57 58 60 59 61 62 63 64 65 66 67 68 70 72 73 74 76 77 76 76 76 76 76 76 76 76 75 74 74 74 72 71 72 72 72 71 72 73 72
63 57 54 49 45 38 50 49 53 53 56 59 62 60 60 62 64 64 64 65 65 69 70 71 73 73 74 74 75 75 76 75 75 75 74 74 73 73 73 75 74 72 71 71 72 73 74 74 75
60 54 51 46 45 35 43 48 51 54 56 59 58 61 63 64 64 65 65 65 67 68 69 71 72 73 73 73 74 76 75 75 75 74 75 75 73 72 73 74 74 72 72 72 73 75 75 75 76
55 53 44 45 47 39 43 50 50 50 54 56 58 61 64 64 64 64 64 64 67 67 69 70 71 72 72 72 73 74 73 72 72 72 72 73 72 72 73 74 75 72 73 74 74 75 75 74 72
49 45 46 47 44 43 38 39 43 45 53 55 57 60 63 63 64 63 63 65 65 66 68 69 70 71 71 70 72 73 72 71 70 70 72 72 73 72 72 72 72 72 73 71 72 72 72 71 71
42 42 39 38 45 40 38 38 43 44 52 56 56 56 63 62 62 62 63 63 64 65 66 67 70 70 70 72 72 71 70 70 70 71 73 71 73 70 72 73 71 72 72 71 72 71 70 70 68
36 38 39 38 41 42 40 41 43 46 55 57 57 57 59 62 62 61 62 63 63 65 65 68 69 70 72 70 69 69 69 70 70 71 72 70 71 70 71 72 72 72 71 71 70 72 70 70 70
35 33 28 35 40 42 40 40 42 48 56 57 57 57 57 56 58 61 61 62 63 65 66 68 69 71 71 70 71 71 70 70 70 72 71 71 71 71 73 71 70 71 71 72 72 70 70 70 71
30 29 27 28 29 39 46 47 40 47 53 56 57 57 58 57 57 57 62 62 62 64 66 69 69 72 71 70 72 72 71 67 66 72 72 72 72 71 72 72 70 73 72 72 72 70 71 70 70
25 24 21 26 29 35 46 45 44 43 51 53 54 56 57 58 57 58 61 63 61 64 67 69 69 70 72 71 73 71 70 71 70 69 72 73 73 73 72 72 72 71 72 70 70 70 70 69 68
21 20 21 22 29 34 41 44 40 41 48 49 52 53 55 56 57 58 58 61 62 66 68 68 68 69 70 72 74 71 70 72 69 72 72 72 74 73 72 72 72 72 72 71 71 69 68 64 61
19 20 20 22 30 40 42 42 42 43 44 48 50 51 53 54 56 58 58 61 62 67 68 67 69 69 69 73 73 73 72 72 72 72 70 71 73 74 73 72 72 72 70 71 69 68 67 63 62
20 20 21 22 32 45 44 42 43 41 45 45 49 50 52 53 54 58 58 60 63 68 67 68 69 71 70 72 72 72 70 72 70 71 72 73 73 73 73 71 72 72 71 70 68 66 61 62 64
18 19 21 23 33 43 47 44 45 42 41 45 46 49 50 52 53 56 57 58 62 66 67 68 69 74 71 72 72 71 71 72 71 72 73 73 73 74 72 72 72 71 71 69 65 63 62 63 65
17 18 20 23 33 39 46 45 47 41 44 45 45 47 50 50 51 56 56 58 60 65 68 68 69 73 73 72 73 73 73 72 70 70 72 73 74 74 72 72 72 72 69 67 64 63 63 61 65
18 20 21 22 25 32 43 39 45 41 43 45 44 44 47 49 52 55 56 58 59 65 69 69 70 73 72 73 71 70 69 69 70 71 72 73 74 73 73 72 72 70 69 67 65 65 63 63 60
16 22 21 22 23 34 33 32 42 45 44 44 43 44 44 46 49 54 57 57 60 65 67 70 71 71 72 73 71 71 70 69 70 69 70 73 72 72 73 72 72 68 67 68 66 64 62 65 65
11 17 21 22 22 24 31 32 37 41 43 43 44 45 45 45 47 53 55 58 59 64 67 71 71 71 73 71 72 72 71 70 69 70 72 72 72 70 72 72 70 67 64 67 65 65 64 63 65
8 9 15 18 19 21 30 31 39 40 40 44 44 45 46 47 47 48 54 57 59 63 67 70 71 72 73 73 72 72 72 70 69 71 70 70 69 68 70 71 69 67 67 67 67 65 64 63 64
7 6 10 16 18 20 25 28 34 38 39 44 44 43 45 46 48 49 54 56 59 61 66 70 71 71 73 73 74 73 74 70 71 72 70 67 67 68 70 71 68 67 66 69 68 66 66 65 64
12 6 6 9 16 20 21 23 25 39 37 40 41 40 43 43 49 50 51 55 59 61 66 67 72 72 73 74 74 73 73 74 74 71 72 68 66 69 69 71 68 67 67 66 68 66 64 66 64
10 13 6 6 7 13 17 22 26 31 38 42 42 42 42 43 48 51 51 54 59 61 65 67 72 72 73 72 74 74 74 73 74 72 71 70 67 70 69 71 69 68 67 67 68 65 66 65 65
14 9 9 8 8 11 17 18 25 34 41 41 40 39 38 42 45 51 52 54 59 61 63 67 71 72 73 73 72 74 75 74 73 73 72 70 70 70 70 70 69 67 67 68 67 65 64 66 63
14 13 11 11 14 17 12 13 25 23 39 40 39 38 40 42 48 51 52 54 60 60 61 66 71 72 73 74 74 72 74 74 73 72 73 72 69 70 70 70 69 67 65 67 67 64 64 64 65

GFSSGP_sfc_dewp_024.txt.gz
Dewpoint
73 72 72 67 60 58 54 55 58 54 56 59 58 59 59 60 56 55 67 69 69 70 72 73 75 75 76 77 77 77 77 77 77 77 76 75 75 75 75 75 74 74 73 73 73 73 73 73 73
73 71 70 64 57 53 51 54 55 56 57 58 58 58 59 58 62 65 68 68 70 71 72 72 75 75 76 77 77 77 76 76 77 77 76 75 75 75 75 74 74 73 73 73 73 73 73 73 73
70 68 64 60 56 52 51 53 55 57 59 58 57 59 60 61 64 66 68 70 70 70 72 72 75 76 76 77 77 77 76 75 76 76 75 75 75 74 74 73 73 73 73 73 73 72 72 72 72
69 68 68 60 54 53 53 57 57 58 58 58 59 59 62 65 65 66 69 69 69 70 72 74 75 75 76 76 76 75 75 75 76 76 75 75 75 74 73 73 73 73 73 73 73 72 72 72 72
69 65 58 57 53 51 56 58 59 56 57 59 59 59 61 64 66 68 68 69 69 71 72 73 76 76 76 76 75 75 75 75 76 76 75 74 74 73 73 73 73 73 73 73 71 71 71 72 72
65 63 55 51 49 51 56 59 57 57 58 60 60 60 61 65 66 67 67 69 71 72 73 73 75 76 76 75 75 75 74 75 76 75 75 75 74 73 73 72 72 72 72 72 72 71 72 72 72
58 55 51 51 47 50 55 57 57 57 58 58 60 59 62 64 66 65 68 69 70 72 73 73 73 73 75 76 75 75 74 75 75 75 75 75 74 73 72 72 71 71 72 72 72 71 71 72 72
61 55 53 50 45 50 55 57 58 57 57 61 61 59 60 63 64 66 67 68 69 71 72 73 73 74 74 75 75 75 75 75 75 75 75 74 74 73 73 75 74 72 71 71 71 72 73 72 72
61 51 50 46 45 50 54 55 58 59 59 59 61 61 62 63 64 65 66 66 69 69 72 73 73 73 74 74 74 75 75 75 75 75 75 76 73 72 73 74 74 74 72 71 71 73 74 73 73
54 50 49 46 46 48 50 55 55 58 59 59 60 62 62 63 63 63 64 65 68 69 70 72 73 73 73 73 73 73 73 73 73 73 72 73 72 72 73 74 75 74 73 73 73 73 74 73 71
55 49 48 47 46 48 51 54 56 58 57 59 60 61 62 62 63 64 64 66 67 69 70 71 72 72 72 71 73 73 73 72 71 71 71 72 73 72 73 71 73 72 73 71 71 72 71 71 70
48 50 46 46 46 45 49 54 55 56 55 59 62 62 62 63 63 64 64 66 67 68 69 70 71 71 71 71 73 72 72 71 70 70 70 71 72 69 70 71 72 71 71 71 72 71 70 70 69
39 39 46 45 44 42 41 44 54 54 57 60 62 63 63 63 63 64 64 66 66 67 68 69 71 71 71 71 71 71 71 70 69 69 71 71 71 69 70 71 72 72 70 71 70 71 70 70 70
33 33 34 37 41 41 40 42 49 54 57 60 62 62 63 63 62 63 64 65 65 66 67 69 70 71 70 71 70 69 69 70 69 70 71 71 72 70 71 70 70 72 71 72 72 70 69 70 70
32 29 28 26 33 41 44 46 52 56 56 57 61 62 62 63 63 62 63 64 64 65 66 68 69 70 70 69 69 69 69 70 69 70 71 71 71 71 72 71 69 71 71 73 72 69 69 70 69
25 26 23 25 42 44 40 41 54 56 55 55 57 61 62 62 62 62 62 63 63 65 66 67 68 69 70 69 70 71 70 68 69 71 72 72 72 71 71 71 71 70 71 69 69 69 68 65 61
23 21 21 22 36 43 43 44 45 56 56 55 55 56 58 58 60 61 61 63 63 65 66 68 67 68 71 70 72 70 69 71 69 70 72 72 73 73 71 71 71 71 72 70 70 68 67 62 60
22 20 19 20 28 42 42 44 44 55 56 56 56 56 56 56 57 59 62 62 62 65 68 68 67 69 71 71 72 71 69 71 71 71 71 73 73 73 71 71 72 71 70 70 68 67 67 62 63
22 21 20 21 25 42 41 41 41 53 54 55 55 56 56 56 57 58 62 62 63 65 68 68 68 69 69 72 71 71 69 71 71 71 70 70 73 73 71 71 72 71 69 69 67 64 60 59 63
17 18 19 21 23 41 42 40 39 47 50 53 53 54 55 56 56 57 59 62 64 67 68 68 68 68 68 70 70 70 71 71 71 71 72 71 72 73 72 71 71 71 71 69 65 61 61 62 64
16 15 16 19 23 46 42 42 44 43 42 47 51 52 53 54 54 56 57 60 62 66 67 67 69 69 68 69 71 71 71 71 70 71 72 73 72 73 72 71 71 71 70 67 63 63 60 60 63
17 17 17 19 23 30 41 35 44 44 41 43 47 50 52 53 53 55 56 58 61 64 67 67 69 70 70 71 71 70 69 68 69 69 71 72 73 73 72 72 71 68 69 64 63 65 64 60 58
18 20 21 21 21 22 26 35 39 44 42 42 44 48 50 52 53 54 56 57 60 63 66 66 69 72 71 71 70 69 68 68 69 70 71 71 73 72 72 72 71 68 67 65 64 63 64 64 62
19 14 17 22 21 21 23 33 36 40 42 41 44 45 48 50 52 53 56 57 58 62 65 66 67 71 72 71 70 69 68 68 68 69 69 72 72 72 72 72 71 67 66 66 64 62 63 64 64
15 9 10 12 15 18 23 32 34 39 43 41 43 45 45 49 50 52 55 56 57 61 65 67 68 68 71 71 70 70 69 69 68 68 70 70 70 69 71 71 69 66 64 66 64 65 64 63 63
14 8 9 9 15 18 21 27 31 37 43 44 43 45 45 45 49 51 53 56 57 60 64 67 68 67 70 70 71 70 70 70 70 70 70 71 69 68 71 70 68 66 66 66 66 64 64 63 62
15 7 8 9 23 17 20 23 27 35 37 43 44 45 45 44 46 48 53 56 57 60 65 67 68 68 70 70 69 71 72 70 69 70 70 70 69 67 70 70 67 66 65 67 67 64 64 65 63
15 13 11 6 5 6 13 19 22 26 35 39 42 44 45 46 45 46 49 54 58 59 65 67 69 68 69 71 71 70 70 72 71 72 71 68 67 68 69 69 67 66 64 66 67 65 64 64 64
19 13 9 6 6 5 10 10 19 24 31 38 44 44 45 47 47 48 48 53 57 59 64 67 69 68 70 71 71 71 71 70 72 73 71 70 67 67 68 69 68 66 65 65 66 65 65 63 63
19 16 11 9 8 10 6 8 21 22 26 38 42 42 44 46 46 50 49 51 55 59 63 66 70 69 70 71 72 72 72 72 71 71 72 71 68 68 68 69 68 67 66 65 66 65 64 65 64

GFSSGP_sfc_dewp_027.txt.gz
Dewpoint
72 72 71 68 60 57 54 55 58 54 56 59 59 58 59 60 57 54 66 68 69 70 72 73 75 75 75 75 77 77 76 76 76 75 75 75 75 75 74 74 74 73 73 73 73 73 73 73 72
71 71 70 63 56 50 52 54 55 56 57 58 59 59 59 59 63 66 67 69 69 71 72 73 75 75 75 75 77 76 76 76 75 75 75 75 75 75 74 74 73 73 73 73 73 73 73 73 72
71 68 64 59 55 51 50 55 56 57 58 58 58 60 60 60 64 66 68 69 70 71 72 72 75 75 75 75 76 76 76 75 75 75 75 75 75 74 73 73 73 73 73 73 73 73 72 73 72
65 68 67 58 55 53 53 56 57 57 58 59 59 59 63 64 65 67 69 70 70 71 72 73 75 75 75 75 75 75 75 75 75 74 75 75 74 73 73 73 73 73 73 73 73 72 72 73 72
68 65 58 56 54 53 56 56 58 57 58 58 59 59 62 65 67 67 69 69 69 71 72 73 75 76 75 75 75 74 74 75 75 75 74 74 73 73 73 72 72 72 73 73 72 73 72 72 72
63 62 55 51 50 53 57 58 57 58 59 59 60 60 62 67 67 68 68 69 69 71 72 73 75 75 75 75 75 74 74 75 75 75 74 74 74 73 72 72 72 72 72 72 72 72 72 71 71
58 56 51 51 50 53 56 59 57 58 58 58 59 59 64 66 67 68 68 69 69 72 73 73 72 73 75 75 75 74 74 75 75 75 74 74 74 73 72 72 71 71 71 72 72 71 71 71 72
61 53 52 51 51 51 57 58 58 58 58 60 60 59 61 65 67 67 68 70 70 73 73 73 72 72 73 73 75 74 74 74 75 75 75 74 74 73 72 74 73 72 71 71 71 71 71 71 73
60 50 48 49 49 51 57 57 58 60 59 58 60 60 62 66 66 67 68 69 70 71 72 73 73 73 74 74 73 74 74 74 75 75 74 75 73 72 73 73 73 73 72 71 71 71 72 73 73
56 50 46 46 47 52 56 57 57 58 57 59 60 62 64 65 65 66 67 67 69 69 72 73 73 73 74 74 73 73 73 73 73 74 73 74 72 72 73 74 74 72 72 73 73 72 72 72 72
54 51 49 47 49 53 55 56 57 58 56 60 59 61 63 63 65 65 66 66 68 69 71 72 72 73 73 73 72 73 73 73 72 72 72 72 72 71 73 72 73 72 73 71 71 71 70 71 70
53 53 52 50 48 48 54 56 57 57 56 60 60 61 62 62 63 64 65 66 66 68 69 71 72 73 72 71 73 73 72 72 71 70 70 71 71 71 70 71 71 70 71 71 71 71 70 69 69
54 51 47 51 50 46 54 55 56 57 58 60 61 61 61 62 62 64 64 66 67 68 69 70 71 72 72 71 72 71 71 71 70 69 69 71 70 69 70 70 71 71 70 71 70 71 70 69 70
32 40 37 38 40 46 53 54 55 57 59 61 61 61 61 61 62 64 64 66 67 68 69 70 70 71 71 70 70 70 71 71 70 69 69 71 71 71 70 70 71 71 71 72 72 70 69 69 70
31 31 32 31 33 42 50 51 53 56 59 61 61 61 62 62 62 63 64 66 66 67 69 69 70 70 70 70 70 69 69 70 69 69 70 71 71 70 70 70 69 71 71 72 72 69 69 68 65
24 25 24 28 40 40 43 42 52 56 58 60 61 61 62 62 62 63 64 65 66 67 68 69 69 70 70 70 70 69 69 69 69 70 71 71 71 70 71 70 70 70 71 71 69 68 67 63 60
23 23 23 23 39 43 40 43 54 57 58 59 61 61 62 62 63 62 63 65 65 66 67 68 69 69 70 70 69 70 70 69 69 70 71 71 71 71 71 71 71 71 70 70 69 67 66 61 60
22 21 21 21 27 41 42 44 54 56 57 59 60 61 61 62 62 62 62 64 64 65 66 67 68 68 70 69 69 70 69 70 69 70 71 71 72 73 71 70 71 71 70 69 68 66 66 61 62
23 22 21 23 29 41 41 42 53 55 54 55 59 60 61 61 62 62 62 63 63 65 66 67 67 68 69 69 70 69 68 69 71 71 71 71 72 73 71 70 71 71 69 69 67 64 60 59 63
21 20 19 23 28 39 39 41 45 54 55 55 55 57 59 60 60 59 62 62 62 64 66 67 67 67 68 69 69 70 69 69 70 71 70 70 72 72 71 70 71 70 69 68 66 62 60 61 63
19 19 19 19 25 40 41 41 42 53 55 56 56 56 56 57 56 57 59 61 62 62 65 67 67 67 68 69 70 70 71 70 70 70 70 71 70 72 72 71 70 70 69 68 64 62 60 59 62
20 19 19 19 20 18 39 37 42 49 53 54 55 56 56 56 56 56 59 61 62 63 65 67 67 67 68 69 69 68 68 67 69 69 70 72 73 72 72 71 71 70 70 67 63 63 61 59 60
22 21 20 21 19 20 25 34 36 44 47 48 51 53 55 56 56 56 57 60 62 63 65 67 67 68 68 68 68 68 67 68 69 69 69 70 72 72 72 71 70 69 69 66 63 63 64 60 59
24 23 17 21 20 18 18 23 22 41 42 43 44 50 53 53 55 56 56 58 61 63 66 67 67 68 68 68 68 68 68 68 68 68 69 70 71 72 72 71 70 68 67 65 64 63 63 64 63
21 15 16 12 14 15 16 24 21 34 42 42 42 44 50 52 53 54 55 56 58 61 65 66 67 68 69 69 69 69 68 68 68 68 68 69 70 70 71 71 70 67 66 66 64 62 62 63 62
19 17 15 9 12 13 20 21 23 31 39 43 43 43 45 49 51 53 54 55 57 60 64 65 66 68 69 70 69 69 69 68 68 68 68 69 71 70 71 71 70 67 65 66 64 64 63 62 62
18 15 15 9 25 13 19 21 25 31 36 40 43 42 44 46 50 51 53 54 56 58 62 65 66 67 70 70 69 69 69 69 68 69 69 70 70 70 70 71 70 68 64 66 64 63 63 63 62
16 13 14 8 10 10 10 15 17 28 28 37 43 43 44 46 48 50 51 53 55 57 60 64 65 65 68 69 69 69 69 69 69 69 69 69 70 69 69 70 69 67 65 65 65 64 63 64 63
21 14 11 10 9 8 8 9 14 24 30 34 40 44 45 46 46 48 50 51 54 56 59 63 65 65 66 68 69 69 69 70 70 69 70 69 69 68 69 69 68 67 65 66 65 65 64 63 63
20 19 15 12 9 9 8 9 18 21 24 30 33 42 44 47 47 46 47 49 53 56 58 62 65 65 66 68 68 68 69 70 71 70 71 70 68 67 68 69 68 67 65 64 66 65 64 63 62

GFSSGP_sfc_dewp_030.txt.gz
Dewpoint
72 72 71 69 60 57 54 54 58 55 56 59 58 57 57 60 57 53 67 69 70 69 72 72 75 75 75 77 77 76 76 75 76 76 75 74 74 74 74 74 74 73 73 74 73 73 73 72 72
72 70 70 62 54 50 51 56 55 56 58 59 59 59 59 59 63 65 67 69 70 70 72 72 75 76 76 76 76 76 75 75 75 75 75 75 74 74 74 73 73 73 73 73 73 73 73 72 71
71 70 63 59 54 51 50 55 56 57 58 58 59 60 60 61 64 65 68 69 70 71 72 73 75 76 75 75 75 76 75 75 75 75 75 75 74 74 73 73 73 73 73 73 73 73 73 72 71
67 68 66 58 54 54 54 56 57 57 58 59 59 59 63 65 65 67 68 70 70 71 72 74 75 75 75 75 76 76 75 75 75 75 75 74 74 73 73 73 73 73 74 73 73 73 73 72 71
68 64 57 56 55 54 56 57 58 57 58 58 60 59 61 65 67 68 69 70 70 71 72 73 76 76 76 75 75 75 75 75 74 75 74 74 73 73 72 72 72 73 73 73 73 72 72 71 71
62 62 54 50 51 54 57 57 58 58 59 60 59 59 63 66 67 68 69 69 71 71 72 73 75 75 75 74 74 74 75 75 74 74 74 74 73 72 72 71 71 72 73 73 72 72 72 70 70
58 55 49 51 50 54 57 58 58 58 58 58 60 59 64 64 67 68 68 69 71 71 72 73 72 74 75 74 74 74 74 75 75 74 74 74 73 72 72 71 72 72 72 72 72 71 71 71 71
59 52 50 51 51 51 58 58 59 58 58 60 61 59 61 65 68 68 69 69 70 72 72 72 72 72 73 73 74 74 74 75 75 74 74 73 73 72 72 74 72 72 72 71 71 71 71 71 71
59 50 48 50 50 50 57 57 59 60 59 59 60 61 62 67 67 68 68 69 71 72 72 72 72 72 73 73 73 74 74 74 74 74 74 73 73 73 73 74 74 73 72 71 71 71 72 72 72
56 50 48 48 48 52 57 57 57 58 57 59 60 62 65 67 66 67 66 66 69 70 72 72 72 72 73 74 74 73 73 73 73 74 74 74 74 73 73 74 74 72 72 71 72 72 72 72 73
56 53 51 49 53 54 56 57 58 57 55 59 59 62 65 65 66 66 66 66 68 69 71 72 72 73 73 74 73 73 73 73 73 74 73 73 74 73 73 73 73 73 72 73 71 72 71 72 70
54 54 54 52 48 55 56 57 57 55 56 58 61 63 65 64 65 66 67 67 67 69 70 72 73 73 73 72 73 73 72 72 72 72 72 71 72 71 72 72 72 72 71 72 73 72 72 70 71
56 51 50 50 50 49 56 56 56 57 58 60 61 63 64 64 65 66 66 67 67 68 70 72 72 73 73 71 72 72 72 72 72 71 70 71 72 71 71 71 72 72 72 72 72 72 71 70 71
42 50 48 46 40 47 51 55 56 58 59 59 61 62 63 63 64 65 65 66 66 67 69 71 72 72 73 72 71 72 71 72 71 70 70 71 72 72 71 71 72 73 72 73 72 72 71 71 71
29 29 31 34 34 39 50 53 54 57 59 59 60 61 62 62 64 64 65 65 66 67 68 70 71 71 72 71 70 70 71 71 70 70 70 71 72 72 72 72 71 72 72 73 73 71 71 67 64
24 27 24 28 32 33 51 46 54 58 59 59 60 60 61 62 62 63 65 65 67 68 68 70 70 70 70 70 70 70 70 70 70 70 71 72 72 72 72 72 71 72 73 73 71 71 69 65 64
24 24 24 25 30 43 47 42 51 57 59 59 60 60 60 61 62 63 65 66 67 68 69 69 70 70 70 70 70 70 70 70 70 70 71 72 72 72 72 72 72 72 72 72 71 69 68 64 64
22 21 22 22 29 42 42 42 51 57 58 59 60 60 61 61 62 63 64 65 67 67 69 69 69 70 70 70 70 70 71 71 71 70 71 72 72 72 72 72 73 72 72 71 70 68 67 64 64
24 23 23 23 27 40 40 43 54 56 57 58 59 60 61 61 62 63 63 65 66 67 68 68 69 70 70 69 69 69 69 70 71 71 72 72 73 73 73 72 72 72 71 71 69 67 65 62 64
23 22 22 22 23 36 36 38 52 56 56 57 59 60 61 61 62 63 63 63 65 65 67 68 69 69 70 70 69 70 70 70 71 72 72 72 73 73 73 72 72 72 71 70 68 66 63 63 64
23 22 22 22 23 34 39 38 45 54 56 56 59 60 60 61 61 62 63 63 63 65 66 67 68 69 69 70 70 71 71 71 70 71 71 71 72 73 73 72 72 72 71 69 68 65 64 62 64
22 22 21 19 19 18 35 29 41 47 54 54 54 58 59 60 61 62 62 63 62 64 66 67 68 68 69 70 69 69 68 68 69 70 70 71 72 72 73 72 72 72 71 70 68 65 63 64 63
24 21 20 19 17 18 24 29 34 43 51 53 55 55 56 57 59 60 59 61 63 63 64 66 68 68 69 69 69 69 68 69 69 70 71 71 73 73 72 72 72 71 71 70 67 66 66 63 63
24 21 18 22 20 18 19 25 23 43 45 52 54 56 56 56 57 58 59 59 61 63 64 66 67 68 68 69 69 69 69 68 68 69 69 70 71 72 73 72 72 71 70 69 67 67 66 65 65
22 20 19 16 16 17 19 21 20 34 45 48 51 53 55 56 57 57 58 58 61 63 64 65 67 67 68 68 69 69 69 69 69 69 69 70 70 71 72 72 71 70 69 69 67 66 66 66 65
20 19 19 15 14 16 20 18 21 25 41 45 47 49 50 53 55 56 57 58 59 62 64 66 67 67 68 68 68 69 70 68 69 69 69 69 70 70 72 72 72 70 69 68 67 65 64 66 65
20 19 18 13 23 12 17 20 23 29 30 42 43 44 45 47 52 54 56 57 58 60 63 66 67 67 68 68 69 69 69 70 69 69 69 69 71 71 72 72 72 71 69 68 67 65 65 65 65
17 18 17 14 15 13 15 16 20 30 29 33 43 43 44 45 47 51 54 56 57 58 61 64 66 67 67 68 69 69 69 70 70 70 69 69 70 71 71 72 72 71 69 68 67 65 66 65 64
18 15 15 16 16 14 12 14 20 25 31 28 33 43 44 45 46 47 52 54 56 57 60 62 65 66 67 69 69 69 69 70 70 69 70 70 70 71 70 71 71 70 69 67 67 66 65 65 65
20 18 13 14 13 11 14 13 21 19 27 32 33 38 46 47 48 48 50 52 54 56 58 61 64 65 66 69 70 69 70 70 70 70 70 70 70 70 70 71 71 70 69 68 67 66 65 65 65

GFSSGP_sfc_dewp_033.txt.gz
Dewpoint
72 71 71 69 61 58 53 54 56 55 55 58 57 57 56 60 56 55 68 71 70 70 71 71 75 75 75 76 77 77 76 76 76 76 75 74 75 74 74 74 73 73 73 73 73 73 73 72 72
72 70 70 63 56 53 52 55 54 55 58 59 59 58 58 59 63 66 68 70 69 68 69 71 75 76 76 77 77 77 75 75 75 75 75 74 74 74 74 73 73 74 73 73 73 73 73 72 71
70 69 64 60 55 51 50 54 56 57 58 57 59 60 59 61 64 65 68 68 67 68 69 73 75 76 76 76 76 76 76 75 75 75 75 74 74 73 73 73 73 74 74 73 73 73 73 72 71
69 68 66 58 51 53 53 56 57 57 58 59 59 59 62 64 64 66 67 67 66 68 69 74 76 75 76 76 76 75 75 75 75 75 74 74 73 73 73 73 74 74 73 73 73 73 72 71 71
66 64 58 54 51 53 55 56 58 57 58 58 58 59 62 66 67 67 67 67 66 67 70 71 76 76 76 75 75 75 75 75 75 75 74 74 73 73 73 73 73 74 73 73 72 72 72 72 71
64 61 51 47 49 53 56 57 58 58 59 58 58 59 62 67 66 67 67 67 67 67 69 70 75 76 75 75 75 75 75 75 75 75 74 73 73 73 72 72 73 73 73 72 72 72 71 71 72
57 53 48 48 49 52 56 58 57 57 57 57 59 58 64 64 66 67 67 68 68 68 69 70 70 73 75 75 74 75 75 75 74 74 74 73 73 72 72 72 72 72 72 71 71 71 71 71 72
59 52 47 48 49 50 57 57 59 57 57 59 60 58 60 64 66 67 67 68 68 69 69 71 69 70 72 72 74 74 74 75 74 74 74 73 73 72 72 72 72 72 71 71 71 71 71 71 71
58 49 49 46 49 50 58 57 58 59 58 57 60 60 61 66 66 66 66 67 68 69 69 69 69 72 74 73 72 73 74 74 74 74 73 73 73 73 72 73 74 72 71 71 71 71 71 72 72
55 53 49 48 50 46 56 57 57 57 56 56 60 61 63 65 66 65 65 65 66 67 68 69 70 71 72 70 73 73 71 70 71 71 74 73 73 73 72 73 74 72 71 71 71 72 72 71 70
59 53 53 48 50 53 55 56 57 57 55 56 59 62 63 64 64 64 64 64 65 66 68 69 71 72 71 71 71 71 71 71 71 74 74 73 73 74 72 73 72 73 71 70 70 71 70 71 70
56 57 55 52 52 55 56 57 57 57 53 55 60 62 63 63 63 63 63 64 65 67 68 69 70 72 72 71 71 71 71 71 70 71 74 73 71 72 73 72 73 73 71 72 73 72 73 71 71
59 55 51 52 51 48 56 55 55 57 55 58 61 62 62 62 63 63 64 64 66 67 67 69 71 73 73 73 71 71 72 70 69 71 72 71 71 73 73 73 72 73 72 72 75 74 72 71 70
48 52 47 38 41 44 48 50 56 56 57 60 61 61 61 62 62 64 65 65 66 67 67 69 71 72 73 73 74 73 72 71 71 69 70 72 71 74 73 73 71 73 73 73 73 74 72 71 71
33 28 29 28 32 34 40 44 53 56 59 60 60 60 61 62 63 64 65 66 66 66 68 69 71 71 73 73 73 73 72 71 69 69 72 72 72 73 75 73 71 74 74 75 74 72 71 66 64
26 27 25 27 30 32 38 32 46 56 58 59 59 60 61 62 63 65 65 66 67 67 68 70 69 70 72 72 73 72 71 70 69 69 69 72 72 74 74 73 71 72 74 77 74 72 69 67 64
23 20 25 26 29 35 40 33 43 56 57 58 59 59 60 62 64 65 65 66 67 68 69 69 70 70 71 73 72 72 72 70 68 69 69 72 73 74 73 72 72 74 73 76 73 71 70 65 64
19 21 22 24 28 38 37 40 46 55 57 58 59 59 60 60 62 64 65 66 67 68 70 70 70 71 72 71 72 71 70 68 68 68 71 73 73 74 74 72 74 74 72 73 72 72 69 66 65
19 18 23 25 26 37 37 38 44 55 56 57 59 59 59 60 61 63 64 65 66 68 69 71 71 73 71 70 69 68 66 68 69 71 73 74 74 75 75 72 74 74 73 73 73 71 69 64 67
20 18 21 25 24 27 30 37 42 53 56 57 58 59 59 59 60 62 64 65 66 68 69 71 72 74 73 71 71 69 69 68 70 72 73 74 74 75 75 75 73 74 72 74 73 71 67 66 67
23 17 18 21 23 27 32 29 39 50 54 56 58 59 60 59 60 62 63 64 65 68 70 72 73 74 73 73 71 71 71 71 71 71 72 73 74 75 75 75 74 74 73 71 73 71 69 62 66
20 21 19 21 22 21 30 24 38 41 52 55 56 58 59 60 61 62 63 64 64 68 69 72 73 74 73 75 72 73 68 67 68 70 71 72 74 74 75 75 75 75 73 73 72 71 69 66 63
21 23 21 19 22 23 23 25 30 44 48 52 54 57 58 59 60 62 63 65 65 66 67 69 73 74 74 75 74 72 72 69 69 70 74 75 75 74 74 75 75 75 73 74 74 72 70 65 63
26 25 24 24 21 20 24 23 26 31 40 46 53 55 58 59 60 62 63 65 65 66 66 68 72 73 74 74 74 74 73 73 69 71 70 70 70 71 74 74 75 75 74 74 73 73 71 68 66
26 22 19 18 18 17 24 24 27 30 36 36 47 53 56 58 60 60 62 64 66 67 68 68 71 72 73 73 73 74 74 74 74 73 70 71 69 70 74 75 75 74 75 74 74 73 71 70 67
25 20 14 16 11 12 25 22 24 29 30 39 41 47 54 56 57 58 61 64 65 66 68 68 70 71 72 72 73 74 74 71 71 72 69 69 69 70 74 75 75 75 75 74 73 71 69 69 68
23 22 19 14 18 15 15 21 25 29 29 35 40 43 49 54 56 58 60 62 63 65 67 69 70 71 72 71 73 73 74 74 72 74 74 70 73 70 73 74 75 75 74 73 73 70 70 69 69
22 22 18 18 16 15 15 21 19 32 29 33 37 40 45 49 53 56 59 61 62 63 66 68 69 70 71 71 72 71 72 73 73 74 74 73 73 73 73 74 74 74 74 74 73 70 71 69 67
19 21 20 18 17 11 9 11 27 32 39 36 34 38 41 46 49 51 56 59 62 62 64 66 68 69 70 71 72 72 72 72 73 73 74 74 74 74 74 74 74 74 74 73 73 72 70 69 69
21 21 21 17 24 19 15 11 23 28 29 36 34 37 41 46 50 50 51 55 58 62 62 64 66 67 69 70 71 72 72 73 72 73 73 74 74 74 75 74 74 74 74 73 73 71 69 69 68

GFSSGP_sfc_dewp_036.txt.gz
Dewpoint
71 69 70 69 62 57 52 53 53 53 54 56 56 56 56 59 57 57 68 71 69 70 71 71 75 75 76 76 77 77 76 75 76 75 75 75 74 74 74 73 73 74 73 73 73 73 72 72 72
69 69 70 63 57 51 50 53 52 54 56 58 57 57 57 59 62 66 69 70 69 70 71 71 75 76 76 76 77 77 75 75 75 75 75 74 74 74 73 73 74 74 73 73 73 73 72 71 71
69 68 64 58 53 49 47 52 55 56 57 57 57 59 58 61 65 66 69 68 69 68 68 72 75 76 76 76 76 76 75 75 75 75 75 74 74 73 73 74 73 74 73 73 73 73 72 71 71
66 67 63 59 48 50 51 54 56 56 57 57 57 58 62 63 65 67 68 67 66 67 68 73 75 75 76 75 75 75 75 75 75 75 74 74 73 73 73 74 74 73 73 73 73 72 72 71 71
64 60 57 53 47 50 53 55 55 55 56 57 57 59 62 64 66 67 66 65 65 65 67 71 76 76 76 76 75 75 75 75 75 74 74 73 73 73 73 73 74 73 73 72 72 72 72 72 71
63 58 49 43 45 51 53 55 55 55 57 57 57 60 64 65 66 66 66 64 64 64 64 69 75 76 76 75 75 75 75 75 75 74 74 73 73 73 73 73 73 73 72 72 72 71 71 72 72
59 51 46 44 46 49 53 56 54 54 55 55 58 59 63 64 66 65 64 64 64 63 63 67 69 73 75 75 75 75 75 75 75 74 74 73 73 72 72 72 72 71 72 71 71 72 72 72 72
61 50 46 46 45 49 54 55 56 54 55 58 59 58 61 63 65 64 64 64 64 63 63 66 68 68 71 71 75 75 75 74 74 74 74 73 73 72 72 72 72 71 71 71 71 71 72 72 72
59 49 44 44 45 47 55 54 56 56 56 56 58 58 62 64 64 64 64 64 64 63 63 64 64 68 70 70 71 74 74 74 74 73 73 73 71 70 70 72 73 71 70 70 71 71 71 72 73
56 48 44 46 44 45 52 53 55 54 54 55 58 59 62 63 64 63 64 64 65 63 62 63 64 66 68 66 71 71 68 68 68 70 71 70 72 72 71 72 73 71 71 71 71 71 72 72 67
53 47 48 44 47 50 51 53 55 53 51 54 57 60 62 62 63 63 63 64 63 63 62 63 66 69 68 68 68 67 67 67 69 72 72 72 72 72 70 70 69 70 71 70 69 69 68 68 68
52 51 50 46 47 48 52 53 53 53 50 54 59 61 62 62 62 62 62 62 63 64 64 64 66 69 69 67 67 66 65 65 65 67 73 73 70 71 73 70 70 71 70 70 69 68 69 69 68
53 50 47 47 47 45 47 50 50 53 53 54 59 60 61 62 62 62 62 62 63 64 65 66 68 71 71 71 67 66 66 65 64 67 70 70 70 73 71 71 70 70 70 68 68 70 68 68 66
47 49 46 41 39 38 40 45 48 51 55 56 58 59 60 60 61 62 62 62 63 64 65 66 68 71 71 71 72 69 68 66 66 65 67 72 70 74 73 71 69 70 70 70 69 69 68 69 67
45 36 33 35 32 32 36 36 40 47 55 57 58 59 59 60 61 62 62 62 64 64 66 66 68 70 71 72 72 70 67 66 65 65 70 72 73 74 75 70 69 69 72 72 71 73 72 67 65
35 28 27 31 30 30 32 33 38 47 54 57 57 59 59 60 60 62 62 63 64 65 67 68 66 68 71 71 71 69 67 67 65 64 67 71 72 74 75 71 70 71 71 70 70 72 66 66 63
25 26 30 30 30 31 32 35 40 45 53 55 58 58 58 59 60 62 62 63 63 65 67 68 69 68 70 72 71 71 71 68 65 65 66 71 72 73 74 70 71 75 73 70 71 68 68 64 63
26 24 27 31 31 30 33 35 35 45 51 53 57 57 58 58 59 61 62 63 64 66 67 69 69 71 72 71 72 69 67 67 65 65 67 71 72 73 74 71 72 71 71 69 69 71 68 64 61
26 25 26 29 29 28 31 33 34 45 50 52 56 57 58 58 60 61 62 63 64 66 68 70 71 73 71 70 69 67 65 65 64 66 70 73 73 75 76 72 74 74 71 72 73 70 70 63 63
23 22 24 28 27 28 31 32 34 43 50 52 54 55 57 58 59 61 62 63 63 66 68 71 72 73 73 70 71 67 66 63 64 67 71 74 74 75 75 76 72 74 72 74 74 73 66 65 63
22 22 23 25 27 26 27 29 32 37 46 50 52 55 56 58 58 60 61 62 63 65 68 71 73 74 74 74 70 70 67 66 65 67 70 73 74 75 76 76 75 74 74 70 73 72 70 63 62
20 21 21 20 23 23 28 26 33 33 39 44 47 53 54 58 59 59 60 61 62 65 67 71 73 75 74 75 72 74 66 64 64 68 69 70 74 74 75 76 76 77 72 73 73 71 71 70 61
18 16 21 21 19 23 24 25 30 32 33 39 43 49 54 57 58 59 60 61 62 64 66 69 73 76 77 76 75 71 72 65 65 66 74 76 75 75 73 75 76 76 74 74 75 74 74 68 62
17 19 18 21 17 18 24 24 26 28 35 36 41 47 52 55 57 59 61 61 61 63 66 68 74 76 76 75 75 77 75 73 67 70 68 69 69 70 74 74 76 76 75 75 75 75 74 72 68
20 20 16 14 13 14 22 23 28 29 31 35 36 42 50 56 56 58 61 62 62 63 65 68 73 75 75 74 75 75 76 76 75 74 70 72 67 67 73 75 75 74 76 75 76 76 73 73 70
22 19 12 17 9 11 21 21 24 29 31 32 35 34 45 53 55 56 60 62 64 64 67 68 72 75 75 74 77 77 78 71 71 74 70 69 67 68 72 73 74 75 75 76 76 73 72 72 71
24 20 15 9 14 11 11 19 22 27 29 31 31 33 36 50 54 57 58 61 64 66 68 70 73 74 74 73 76 77 77 76 72 75 75 70 74 69 71 73 75 75 75 76 76 72 73 71 72
21 22 15 13 18 17 11 18 19 27 29 31 32 33 36 44 52 53 57 59 62 64 66 69 72 73 74 73 74 74 75 77 76 76 76 75 74 75 72 73 74 74 75 76 76 73 73 73 70
19 19 19 14 14 13 12 11 22 27 31 31 32 35 35 41 48 51 53 56 59 61 64 66 69 72 72 73 74 74 73 74 75 75 76 77 75 76 75 75 74 73 74 75 76 75 73 73 72
19 20 21 15 23 17 15 11 16 21 24 30 30 33 35 39 43 46 49 53 57 60 61 63 65 67 69 72 75 74 74 74 73 75 76 77 77 76 76 76 75 74 73 74 75 74 72 72 71

GFSSGP_sfc_dewp_039.txt.gz
Dewpoint
70 68 69 69 62 58 50 48 55 53 54 55 55 54 57 57 58 58 67 69 68 69 70 71 75 76 76 76 77 76 75 75 76 75 75 75 74 74 73 74 74 74 73 73 73 72 72 72 72
67 68 69 65 58 54 47 53 52 54 54 56 56 55 57 59 63 66 65 69 66 63 66 70 76 76 76 76 76 76 75 75 75 75 75 74 74 74 73 74 73 73 74 73 73 72 71 71 71
69 68 66 61 54 53 47 54 52 54 55 56 55 59 60 61 63 65 67 66 68 66 69 72 75 76 76 76 76 76 75 75 75 74 74 74 74 73 74 73 74 73 73 73 73 72 72 71 70
67 66 64 59 53 47 49 51 52 53 55 56 57 58 61 64 65 66 67 67 65 69 68 74 76 76 76 75 75 75 75 75 75 74 74 74 73 73 74 74 74 73 73 73 72 72 71 71 70
66 61 55 56 46 47 50 51 53 54 54 54 59 58 62 64 65 66 67 66 67 68 68 71 76 76 75 75 75 75 75 75 75 74 74 73 73 73 74 74 74 73 73 72 72 72 72 72 72
63 58 57 51 44 46 48 51 50 52 54 56 58 60 62 65 65 65 65 66 66 66 66 71 76 76 76 75 75 75 75 75 74 74 74 73 73 73 73 73 73 73 72 72 72 71 72 72 72
59 56 52 50 43 47 48 50 49 51 53 55 58 60 63 65 66 64 65 65 65 65 66 68 70 74 75 75 75 74 74 74 74 74 74 73 73 73 72 72 72 72 72 72 72 71 72 72 72
61 52 44 44 42 43 47 49 49 50 53 57 59 59 61 65 65 64 64 64 64 63 62 65 67 69 71 71 74 74 74 74 74 74 73 73 73 73 73 73 72 71 71 71 71 71 72 72 73
59 51 46 39 47 44 46 46 50 53 54 55 56 60 63 65 64 63 64 64 64 61 60 61 63 67 70 70 72 74 74 74 74 73 73 73 74 72 72 73 71 70 71 71 71 71 71 72 73
53 52 51 43 42 45 46 44 48 50 52 53 56 61 63 63 63 63 63 63 63 60 59 60 63 65 66 63 71 71 69 67 68 70 71 74 73 72 70 71 72 72 72 72 72 72 74 72 69
50 49 57 42 45 43 44 46 46 47 49 53 57 60 61 62 63 63 63 63 61 60 59 60 63 67 65 67 66 66 65 65 67 74 72 74 72 70 72 69 70 70 73 73 73 73 70 72 65
47 47 48 43 44 46 45 46 46 46 46 53 56 60 60 60 60 62 63 63 61 60 60 60 63 67 66 65 64 63 63 64 64 68 73 74 71 70 74 73 73 72 72 68 68 68 67 70 65
46 47 47 46 45 44 47 46 52 47 46 52 56 59 60 60 60 60 61 61 61 60 60 61 65 70 70 70 65 63 63 62 63 66 71 72 73 73 72 71 72 74 69 68 71 71 67 69 67
45 45 46 43 42 41 41 43 45 50 49 54 56 58 59 59 59 60 60 60 60 61 61 62 65 69 70 71 72 67 65 63 63 63 67 72 71 72 74 73 73 73 74 72 68 71 69 70 68
44 42 45 44 41 35 39 38 42 49 52 54 56 57 59 59 59 59 60 60 60 61 63 63 66 68 70 71 71 69 65 63 63 63 69 71 72 73 74 69 74 70 70 72 74 70 70 70 63
42 41 37 37 38 35 34 34 37 44 53 54 55 56 57 58 58 60 60 60 61 62 65 65 63 66 69 71 70 68 65 64 63 63 67 71 72 73 74 73 74 73 71 68 70 67 70 67 62
32 34 37 33 34 33 32 34 36 41 49 53 56 56 56 57 59 60 60 60 61 63 66 67 67 66 69 73 70 70 71 66 64 63 65 73 72 73 73 73 74 74 73 68 67 68 65 60 60
27 32 31 32 32 32 31 32 37 38 45 50 55 56 57 56 57 59 60 60 61 64 66 68 67 72 74 71 73 68 66 66 65 63 64 72 72 73 74 72 72 71 74 73 73 71 64 62 58
27 30 29 33 32 31 32 33 34 37 44 48 53 55 56 56 57 58 60 60 61 63 66 70 71 75 72 69 68 67 65 66 65 64 69 71 72 73 75 72 73 72 73 72 69 70 68 61 61
33 29 30 30 30 31 31 32 32 36 44 48 51 53 55 56 57 58 59 59 60 63 68 72 73 76 74 70 72 68 68 63 64 64 71 71 73 74 74 77 73 74 74 73 70 70 67 62 60
29 28 27 28 29 30 30 31 33 34 42 48 49 52 54 56 56 58 59 60 60 63 69 71 75 76 75 75 72 72 70 68 63 64 66 70 73 74 76 75 74 76 72 76 74 71 69 64 59
20 24 25 24 27 27 29 25 33 32 38 43 48 50 51 54 57 59 58 59 60 63 66 72 75 76 76 77 72 74 66 63 61 64 64 69 74 73 74 74 73 75 72 75 73 70 71 70 63
18 17 23 23 24 26 27 26 29 32 31 38 41 47 49 52 55 57 59 59 59 62 64 69 76 77 77 77 76 71 71 63 63 62 72 75 78 74 72 76 76 77 73 76 74 73 74 69 65
16 16 17 20 20 22 25 24 27 26 32 34 37 39 46 50 54 57 59 60 59 60 62 68 75 77 78 78 77 77 74 72 65 66 65 67 68 72 76 74 77 78 76 74 73 75 74 73 69
16 15 13 13 15 18 24 23 28 29 29 32 34 38 42 49 53 56 58 59 60 62 65 67 74 77 78 77 77 77 76 76 77 74 67 69 65 65 74 77 78 74 78 76 77 78 75 74 71
17 14 11 18 11 12 21 22 24 27 29 29 33 36 40 44 51 54 58 59 62 63 66 67 72 76 77 77 78 78 78 72 71 73 68 67 65 65 74 77 76 77 76 76 78 73 72 75 72
20 17 12 11 11 8 10 18 19 24 27 30 32 35 36 42 50 53 56 59 62 63 67 69 72 75 77 76 77 78 78 77 72 75 75 71 73 67 73 74 76 76 76 77 78 72 75 74 74
19 20 13 14 19 17 11 18 16 26 28 30 32 33 34 39 48 53 54 57 61 62 64 68 71 74 76 76 77 77 78 78 77 76 76 75 74 76 75 74 74 75 76 77 78 74 76 75 71
18 19 18 13 13 13 15 14 21 27 30 29 31 33 33 35 45 51 54 56 60 61 63 66 69 73 75 76 76 76 76 77 78 76 77 77 77 78 76 77 76 76 76 77 78 77 75 75 75
19 20 22 16 25 15 14 15 18 18 22 28 30 33 33 37 43 50 51 54 56 60 62 64 66 67 72 73 76 76 76 76 76 77 77 78 78 77 78 78 77 77 76 77 77 76 72 75 74

GFSSGP_sfc_dewp_042.txt.gz
Dewpoint
71 68 69 69 63 60 55 54 59 55 54 54 55 56 57 58 56 57 67 68 67 67 70 72 76 76 76 77 77 77 76 76 76 76 76 75 74 75 75 75 74 74 74 74 73 73 73 72 72
67 66 69 67 59 54 53 53 54 55 54 56 56 56 57 59 63 64 66 68 66 65 68 72 76 76 76 76 77 76 76 75 76 76 75 75 74 75 75 74 74 74 74 73 73 72 72 72 72
68 67 66 63 59 54 54 53 54 54 55 57 58 59 59 61 63 64 66 66 65 64 67 73 76 76 76 77 77 76 76 75 75 75 75 74 74 74 74 74 73 74 73 73 73 72 72 71 71
68 68 66 60 53 53 52 53 53 53 55 58 58 59 62 63 62 63 66 64 61 68 69 75 76 76 76 77 76 76 76 75 75 75 74 74 74 75 74 74 73 73 73 73 73 72 72 71 72
68 64 58 56 54 51 50 51 53 52 55 56 58 59 61 62 63 63 64 60 65 67 70 73 76 76 77 76 76 76 75 75 75 74 74 74 74 74 74 74 73 73 73 73 73 73 72 72 72
65 63 55 52 50 45 48 51 53 54 57 58 59 60 63 65 63 65 59 60 67 66 68 72 76 76 76 76 76 76 75 74 74 74 74 74 73 73 74 74 73 73 73 73 72 72 72 72 73
61 60 56 54 51 46 47 50 49 50 55 57 60 60 63 64 64 62 63 66 66 66 68 71 72 74 75 76 75 75 75 74 74 74 73 73 73 73 73 73 73 73 73 72 72 72 72 72 72
60 57 57 58 48 45 47 47 48 52 55 59 60 60 63 64 63 66 66 65 65 65 67 70 71 70 72 72 74 74 74 74 74 74 73 73 73 73 73 75 74 73 73 72 72 72 72 72 72
56 58 53 47 45 49 45 48 52 53 56 56 59 62 64 64 63 64 64 64 64 66 64 65 66 71 73 73 73 74 74 74 74 73 73 75 75 72 73 75 75 72 71 71 71 71 73 73 74
54 57 55 52 50 49 46 44 48 50 51 57 59 64 64 64 63 63 62 63 62 62 61 62 65 68 70 66 74 74 71 70 72 73 64 67 75 75 72 73 75 72 71 71 73 71 73 72 69
50 52 56 55 52 48 47 43 46 47 49 57 60 62 63 63 63 62 62 61 62 62 59 61 67 70 68 70 70 70 69 70 72 72 71 71 74 75 73 72 72 70 73 71 72 71 72 73 70
46 52 51 51 50 51 54 53 49 45 49 58 60 61 62 62 62 61 62 61 61 61 60 61 67 70 69 69 67 68 67 69 71 73 75 77 74 73 73 74 73 72 72 73 72 72 72 71 71
44 51 52 55 52 54 58 51 51 47 50 57 59 60 61 61 61 63 63 61 62 61 60 63 68 72 74 74 68 68 71 68 70 73 75 75 73 74 73 75 73 73 73 72 73 72 71 66 69
44 43 45 51 42 50 50 52 49 50 48 55 58 59 59 59 61 63 63 63 63 61 61 65 68 72 75 75 78 71 74 69 71 70 73 75 74 75 76 74 73 74 72 73 73 74 73 72 69
41 41 43 46 40 39 39 49 48 57 49 52 55 58 57 57 62 62 62 63 62 61 62 66 68 70 74 75 76 75 73 66 69 71 75 75 77 77 78 75 74 72 76 75 73 74 71 69 69
39 41 40 41 42 39 35 36 49 52 50 52 54 56 57 57 55 59 61 60 61 61 65 67 62 68 71 73 75 74 70 71 71 71 73 75 77 77 76 72 74 74 76 75 75 70 73 71 70
38 37 40 39 41 39 34 34 36 49 48 52 54 54 55 58 57 59 57 60 60 63 67 68 68 69 71 74 73 73 73 73 72 72 73 76 76 77 77 74 73 74 76 73 73 71 72 70 66
37 35 37 38 35 35 34 32 37 39 49 52 54 54 55 56 57 59 58 59 61 65 69 69 69 73 73 72 74 72 70 72 72 73 73 76 76 76 77 74 73 76 72 75 74 73 70 70 66
36 33 30 35 37 33 33 33 37 39 42 51 53 55 55 55 57 59 59 59 61 65 69 70 71 74 73 72 71 71 69 71 72 73 74 77 76 77 77 77 74 76 74 73 76 71 72 70 67
36 31 26 31 32 35 32 32 32 39 41 50 53 54 55 55 56 59 60 59 60 64 68 71 72 74 74 72 72 72 73 70 70 72 75 75 76 77 78 76 77 76 75 75 73 74 73 69 69
34 32 28 27 33 36 33 32 33 36 39 45 51 52 54 55 55 58 60 59 60 65 68 71 72 75 74 74 74 75 74 74 71 70 70 73 76 77 77 77 77 76 78 76 76 73 73 67 67
30 34 31 29 28 29 30 28 36 32 37 44 46 50 53 55 57 58 59 60 61 64 68 71 73 73 75 75 73 74 69 68 68 70 70 72 74 75 76 77 76 78 77 75 76 75 75 73 68
23 24 30 29 26 27 27 27 31 33 33 41 44 49 50 54 56 58 58 61 61 63 67 70 73 74 75 74 76 72 72 69 69 70 72 75 76 76 76 77 77 78 77 77 76 76 75 75 72
19 22 23 24 23 24 25 26 30 29 35 34 41 47 49 52 55 59 60 61 61 63 67 69 73 74 75 75 74 76 72 72 68 68 70 71 74 74 77 77 77 78 77 77 77 78 77 76 75
15 15 16 16 18 20 24 23 30 30 34 34 40 42 48 51 54 58 61 60 61 63 66 69 73 74 75 75 75 74 76 73 74 75 68 70 70 72 75 77 77 76 77 78 77 78 78 76 75
16 12 13 20 16 16 23 22 25 30 30 30 37 39 42 47 51 55 61 61 62 63 65 68 72 74 75 75 76 75 75 74 71 73 70 69 70 70 75 75 76 76 77 77 78 77 76 76 75
16 15 12 12 13 12 14 20 21 28 29 29 28 36 40 45 48 54 60 61 62 62 65 67 71 74 75 74 75 76 74 75 73 72 74 73 73 72 76 75 75 75 76 76 77 75 76 77 75
17 17 12 13 19 19 13 22 21 28 31 32 33 32 39 43 48 54 58 60 62 62 64 66 70 72 74 75 75 75 76 75 75 74 75 73 75 74 78 76 75 76 76 77 77 76 76 76 75
16 16 16 13 14 15 16 15 25 33 32 33 33 35 36 43 47 51 57 59 62 62 63 65 67 72 74 75 75 75 76 75 75 74 75 76 75 78 75 77 76 76 76 76 77 75 75 76 75
18 18 20 19 26 18 20 15 20 27 30 31 32 36 37 42 49 51 55 57 61 62 63 64 66 68 72 75 76 75 76 76 76 75 74 75 77 75 77 77 76 75 75 76 75 75 72 75 74

GFSSGP_sfc_dewp_045.txt.gz
Dewpoint
71 70 70 69 61 59 55 56 59 57 59 60 56 57 59 61 57 55 67 68 69 70 72 75 77 77 77 76 77 76 76 75 75 76 76 75 74 75 75 74 74 74 74 73 73 73 73 73 72
69 68 70 66 60 54 54 55 57 56 55 57 58 58 59 60 64 66 66 66 68 70 72 74 77 77 76 77 77 76 75 75 75 76 76 75 75 75 74 74 75 74 74 73 73 73 73 72 72
67 67 66 62 58 54 54 55 54 55 57 58 59 61 60 61 65 64 66 66 67 69 73 74 77 77 76 76 76 77 76 75 75 76 75 75 76 75 74 74 74 74 74 73 73 72 72 72 71
69 69 67 60 56 56 56 55 55 55 58 59 60 60 61 64 64 66 66 66 65 71 73 76 76 76 76 76 76 75 75 75 75 75 75 75 75 74 74 74 74 73 73 73 73 73 72 72 72
70 66 57 55 55 57 56 55 56 56 57 59 60 59 60 63 65 65 65 64 68 72 74 74 77 77 77 76 75 76 75 75 75 75 74 75 75 75 74 74 74 74 73 73 73 73 73 73 72
65 63 56 53 53 53 55 55 55 56 59 60 59 61 62 64 64 63 63 64 69 71 73 74 76 77 77 75 75 76 75 75 75 75 74 74 74 74 76 74 73 73 73 73 73 73 73 73 72
62 57 53 56 55 53 52 55 55 57 58 59 61 60 62 62 63 63 61 66 68 70 72 73 74 74 75 76 75 75 75 75 75 74 74 74 73 73 74 74 74 73 73 73 73 72 73 73 72
63 57 53 57 56 53 50 52 57 58 58 61 62 60 61 63 58 57 63 66 67 70 72 72 73 72 73 73 75 75 75 75 75 74 74 73 72 72 73 75 75 73 73 72 72 72 73 73 72
61 59 56 55 48 49 55 54 57 58 59 60 60 62 63 59 57 64 65 65 66 69 70 71 71 71 72 72 73 75 75 75 75 74 74 73 73 72 72 73 74 73 72 72 72 74 75 74 72
55 57 55 54 54 51 50 52 57 58 60 61 62 63 62 62 63 64 64 64 65 66 67 68 69 70 71 70 72 73 73 73 72 73 65 67 70 73 73 73 75 73 73 74 74 72 73 72 69
53 55 55 55 55 53 51 51 51 58 60 61 62 62 62 64 63 63 63 64 64 64 65 65 68 69 69 70 72 72 71 71 72 71 70 66 73 73 73 71 71 63 68 71 71 70 70 70 70
51 53 52 51 52 54 51 54 51 58 60 63 63 63 61 62 63 63 62 63 63 61 61 64 67 68 68 69 70 70 70 70 70 72 70 66 72 67 71 72 70 70 71 71 72 71 70 70 70
47 50 51 50 52 56 52 49 53 57 62 63 62 62 62 62 62 62 62 61 62 61 59 63 66 67 68 68 67 67 68 69 70 72 72 73 71 70 73 73 72 71 71 71 72 71 69 65 63
47 48 50 51 52 52 47 49 49 58 60 62 62 61 62 62 62 61 62 61 61 60 59 64 66 68 68 69 69 66 69 66 70 71 72 72 73 72 72 72 72 72 71 68 71 70 69 68 68
46 44 50 52 52 52 52 48 47 58 59 60 61 61 61 61 62 62 62 62 60 60 62 64 65 69 69 69 69 70 70 65 67 71 72 72 71 72 72 73 72 71 72 69 71 70 69 66 67
42 42 39 45 47 50 51 47 51 54 58 59 59 61 61 61 62 62 62 61 62 61 64 65 64 68 70 69 70 70 69 69 67 70 71 71 72 73 71 71 72 72 73 73 70 71 68 66 68
38 38 38 41 43 45 47 45 52 52 55 57 58 59 59 60 61 62 62 62 62 61 65 65 65 67 70 70 71 70 69 70 70 71 71 71 72 73 72 71 70 66 73 72 70 68 69 67 67
36 37 37 39 42 42 38 37 51 52 52 55 56 57 56 60 61 62 62 62 61 62 64 64 66 66 68 71 72 70 69 70 70 69 71 73 73 74 74 72 70 70 72 72 71 66 64 63 62
38 38 36 36 40 39 38 35 50 50 54 59 61 55 56 56 57 61 61 59 59 63 65 64 68 69 68 71 70 70 68 69 69 68 73 73 73 73 74 72 71 72 71 69 71 66 66 65 63
35 37 36 35 35 36 34 34 37 49 56 58 59 60 56 56 56 57 57 58 60 64 64 66 68 70 68 70 68 69 69 69 68 68 72 73 73 74 74 73 73 72 72 71 71 68 67 64 64
31 34 36 34 30 29 34 34 34 47 54 55 60 62 55 56 56 57 56 57 61 64 65 67 68 71 70 70 70 70 70 70 69 68 67 72 72 73 74 73 73 71 73 71 70 68 68 61 64
30 34 35 35 31 33 36 32 35 37 49 55 59 60 55 55 56 57 56 57 59 64 66 66 69 72 70 71 70 68 67 66 68 67 68 71 73 74 74 74 73 73 73 72 71 70 68 64 59
31 32 33 34 33 31 34 32 33 34 36 51 57 58 56 55 56 57 57 58 58 63 67 68 68 71 71 71 69 70 68 68 67 68 67 70 71 72 75 74 73 73 73 72 71 72 70 67 66
32 29 27 32 32 28 28 32 32 33 35 51 54 55 56 56 57 56 58 58 59 64 66 69 69 70 71 71 72 69 69 67 67 65 66 70 72 73 74 74 74 74 74 73 72 72 70 70 70
29 26 22 20 23 25 26 26 27 31 34 38 47 53 54 56 56 56 57 58 59 63 65 69 69 69 71 71 69 72 69 70 67 66 65 68 72 72 73 75 74 74 74 74 73 74 72 71 70
28 25 18 19 21 22 22 20 24 27 31 33 44 50 54 56 57 56 57 58 59 61 65 68 69 69 70 72 70 68 73 70 68 70 69 67 70 71 71 74 74 73 74 74 74 74 74 73 71
21 19 16 13 20 16 19 19 22 23 26 27 32 47 51 54 56 56 57 58 59 61 65 66 69 69 70 71 72 71 70 73 69 66 71 67 69 70 72 73 75 73 74 74 73 75 73 74 72
16 17 13 12 12 13 15 17 19 19 20 26 28 38 45 50 54 57 57 58 59 60 64 66 69 70 71 71 72 72 71 70 73 69 69 72 69 69 73 72 73 73 74 74 74 74 74 73 73
14 16 14 14 15 16 19 18 20 22 24 23 30 33 39 48 53 57 59 59 59 59 62 65 67 71 71 72 72 73 73 72 71 72 69 71 71 73 72 74 73 73 73 74 73 73 73 73 73
22 16 16 13 15 15 16 14 28 28 25 25 27 30 39 46 52 57 59 59 59 59 61 63 66 70 71 72 73 72 73 73 71 71 73 68 73 71 74 75 74 74 73 73 74 73 73 72 73

GFSSGP_sfc_dewp_048.txt.gz
Dewpoint
71 71 70 69 60 59 55 56 59 59 59 62 57 56 59 62 59 55 67 69 69 71 73 74 76 76 75 76 76 76 74 75 75 75 75 75 75 75 74 75 74 74 74 74 73 73 73 73 71
70 69 70 66 59 54 53 56 57 58 59 59 59 60 60 60 64 65 66 69 71 72 74 75 76 76 75 76 76 76 75 75 75 75 75 75 75 74 75 75 74 74 73 73 73 73 73 73 72
69 68 66 62 57 54 54 56 57 57 58 59 59 61 61 62 64 65 67 69 70 73 74 74 77 77 75 75 76 75 75 75 74 75 75 75 75 74 74 74 74 74 73 73 73 72 72 72 71
66 69 67 59 55 57 57 57 56 56 58 60 60 59 62 65 63 65 68 69 71 73 73 76 76 75 75 76 75 75 74 75 75 75 75 75 74 74 74 74 74 73 73 73 73 72 72 72 71
70 65 57 55 55 56 58 59 56 57 58 60 60 59 62 64 66 66 66 68 72 73 74 74 77 77 76 75 75 74 75 75 75 75 75 75 75 74 74 74 74 74 73 73 73 73 72 72 72
64 63 55 53 55 56 58 63 59 58 59 59 59 59 62 65 64 65 65 71 72 73 74 74 76 77 76 75 75 75 75 74 74 74 74 75 75 75 74 74 73 73 73 73 73 73 73 72 72
59 58 54 53 55 55 59 61 59 59 59 59 60 59 63 63 64 65 66 71 72 73 73 74 73 74 75 75 75 75 75 74 74 74 74 74 74 74 74 74 73 73 73 73 73 73 73 72 72
62 58 55 56 55 55 57 61 60 59 59 62 61 59 60 62 63 62 65 70 71 73 73 73 73 73 73 73 75 75 75 75 74 74 74 74 73 73 73 75 75 73 72 72 72 73 73 72 72
61 57 54 56 55 56 58 58 60 60 60 60 61 60 62 62 62 60 65 69 70 72 73 73 72 73 73 73 73 74 75 75 75 74 74 74 72 72 72 73 73 71 71 71 71 72 73 72 72
62 57 54 55 53 52 57 58 58 59 60 60 61 62 61 61 59 60 65 67 69 70 71 71 71 72 72 72 73 72 73 73 73 72 67 68 70 72 73 73 73 72 73 73 72 72 72 71 69
60 56 56 54 54 54 54 57 60 60 60 61 61 59 57 57 58 63 64 66 68 69 70 70 70 71 71 71 72 72 72 72 72 68 66 68 72 72 72 71 69 62 67 70 71 71 68 69 70
54 55 54 53 52 53 52 52 59 60 60 62 62 58 55 55 63 63 63 65 67 68 68 68 69 70 69 71 71 71 71 70 71 71 68 69 69 70 69 71 69 69 69 69 70 71 70 70 69
52 53 53 53 53 53 51 51 57 60 62 62 61 59 58 61 63 64 64 64 65 66 66 67 68 69 69 69 69 70 69 70 70 71 70 71 68 66 69 71 71 70 71 71 70 71 70 67 64
50 52 50 52 51 52 52 50 56 61 62 61 61 62 62 62 63 63 63 63 63 63 64 66 68 68 68 67 67 67 68 69 70 71 71 71 71 71 71 71 71 71 71 71 69 69 69 67 66
41 44 48 51 51 51 53 49 59 62 62 61 60 61 62 62 62 62 62 63 63 61 62 64 67 68 67 67 67 66 68 67 70 71 72 71 68 71 71 71 71 71 71 70 69 69 68 64 66
39 42 42 49 52 52 50 46 59 62 61 61 60 60 61 62 61 62 62 62 62 61 61 64 65 68 66 69 68 69 68 66 69 71 72 71 70 72 71 71 71 71 71 71 70 69 67 64 67
35 35 38 44 51 51 51 47 59 61 60 60 60 60 61 61 62 62 62 62 61 61 62 64 64 68 66 69 68 69 69 69 69 70 70 72 72 72 69 70 71 69 70 72 70 68 68 66 66
31 37 38 39 48 48 50 47 56 59 60 60 60 60 61 60 60 62 62 62 62 63 63 63 64 68 67 70 68 68 68 68 69 70 70 71 72 72 71 71 68 68 71 71 70 67 67 66 64
32 35 37 39 42 48 45 47 50 58 58 60 60 60 60 60 61 62 62 61 62 64 64 63 64 67 68 69 68 67 65 66 68 68 70 71 72 73 72 71 70 70 71 70 68 64 64 61 63
26 28 34 39 39 41 43 46 49 56 57 58 59 59 60 60 60 62 62 61 61 64 64 64 64 66 68 68 68 68 67 67 68 68 72 72 72 73 72 71 71 71 71 69 69 67 67 62 63
25 26 28 37 38 35 40 41 48 51 56 57 58 59 58 57 59 60 62 61 62 63 64 65 65 66 67 69 68 69 69 68 68 67 69 72 73 73 73 72 72 71 71 70 70 68 65 60 64
24 26 27 32 36 33 37 35 40 48 53 55 56 57 57 56 59 60 61 61 60 61 64 66 67 67 67 69 68 67 67 67 67 66 67 71 72 73 73 73 73 71 72 71 71 68 67 59 59
26 27 28 31 34 34 33 35 36 48 52 53 53 54 54 57 56 57 60 60 60 62 64 65 69 68 68 69 68 67 66 67 67 67 66 69 72 71 72 73 72 71 72 71 70 71 68 65 60
30 31 32 32 31 30 32 32 34 46 52 53 52 55 55 57 57 56 57 57 60 62 63 65 68 68 69 69 69 67 67 67 66 66 66 67 70 71 73 73 72 72 72 71 70 71 69 68 65
31 30 28 27 26 26 32 29 31 46 52 53 52 56 56 56 56 56 57 56 60 63 64 65 67 69 69 69 69 69 68 68 67 66 65 66 70 70 71 74 73 72 72 72 71 71 70 69 70
30 29 28 25 23 23 26 27 28 31 37 53 54 56 57 54 54 56 57 57 58 63 65 65 66 67 69 69 69 69 69 69 67 66 66 65 68 71 71 73 73 72 73 73 73 72 71 69 69
30 28 26 20 23 20 22 22 24 25 27 50 54 55 56 55 54 56 57 57 58 62 65 66 66 66 69 69 69 70 70 68 68 68 68 65 68 71 71 72 73 72 73 73 73 73 73 72 70
27 27 22 18 19 14 16 17 22 21 21 26 51 55 56 54 55 54 56 58 58 60 64 66 67 66 67 69 69 68 69 72 70 68 68 71 67 70 71 71 73 73 73 72 72 72 73 73 72
26 23 26 22 16 15 14 15 20 22 24 23 38 53 53 53 55 55 56 57 58 59 63 66 67 67 67 68 70 69 69 68 73 70 67 67 69 68 69 71 72 73 73 72 72 71 73 72 72
32 19 18 15 14 16 18 15 19 21 23 23 22 49 52 53 54 55 57 57 58 59 62 64 67 67 68 69 69 71 71 70 68 72 70 68 68 70 70 72 72 73 73 73 72 72 72 73 72

GFSSGP_sfc_dewp_051.txt.gz
Dewpoint
71 71 70 68 60 59 54 55 60 59 60 62 55 57 57 62 58 54 67 68 70 72 73 75 76 75 75 76 75 75 75 75 75 75 75 74 75 74 74 74 74 74 74 73 73 73 72 71 72
70 70 70 66 59 53 53 57 58 59 60 60 61 61 60 60 63 66 66 69 71 73 73 74 76 76 75 76 75 76 75 74 75 75 75 75 75 74 74 74 74 73 74 73 73 73 72 71 71
70 69 65 60 57 54 54 58 59 58 59 60 60 61 61 62 64 65 67 70 72 73 74 73 76 76 75 75 75 75 75 74 75 75 75 74 74 74 74 74 74 74 73 73 73 73 72 71 71
68 68 67 58 55 56 57 59 59 58 60 61 60 60 63 65 64 66 69 71 73 74 73 74 75 74 75 75 75 75 75 74 75 75 75 74 74 74 74 74 74 74 73 73 73 73 73 72 71
69 65 57 55 55 56 60 60 59 57 59 60 59 59 62 64 66 68 69 72 72 73 73 73 76 75 75 74 74 75 74 74 75 75 75 74 74 74 74 74 74 74 73 73 73 73 73 73 71
64 62 54 52 54 56 59 61 61 58 59 59 60 60 62 65 66 67 70 71 73 73 73 74 75 75 75 75 74 75 74 74 75 75 75 75 75 74 74 74 74 73 73 73 73 73 73 72 72
59 56 53 52 54 55 57 62 61 59 58 58 59 59 63 64 66 67 71 72 73 73 74 74 72 73 74 74 74 74 74 74 74 74 74 74 74 74 74 74 74 73 73 73 73 73 72 71 72
62 58 54 54 53 55 57 59 62 60 59 61 61 59 61 63 65 69 71 72 73 73 73 73 73 72 73 73 74 74 74 74 74 74 74 73 73 73 73 74 75 73 73 73 73 73 72 73 72
60 56 53 53 54 56 59 58 62 61 60 60 60 61 62 64 64 69 70 71 71 73 73 72 72 72 73 73 73 74 75 74 74 74 74 74 72 71 72 73 73 73 73 72 72 73 73 73 73
62 56 53 56 57 56 62 59 59 59 59 60 60 62 62 63 62 66 68 67 69 70 72 71 72 72 72 73 72 73 73 73 73 73 70 70 70 71 72 72 72 73 73 73 73 71 73 71 69
61 57 58 55 55 54 56 57 60 60 59 60 60 60 61 62 61 64 67 67 69 70 72 71 71 71 71 72 72 72 72 73 72 69 65 69 72 72 72 72 69 64 68 69 71 70 68 69 69
57 59 58 53 55 54 53 58 60 60 60 61 61 60 61 61 59 64 67 68 69 70 70 71 71 71 71 71 72 71 71 71 71 69 65 70 70 70 70 70 68 69 69 68 69 70 70 70 69
55 55 56 58 54 52 54 53 59 60 62 60 59 60 60 59 59 64 66 68 68 69 69 70 70 70 70 70 70 71 71 70 70 70 68 68 68 69 68 69 70 69 70 70 70 70 70 66 63
51 52 53 53 53 52 50 55 59 61 62 59 58 59 58 57 62 63 65 67 68 68 68 68 69 70 69 69 68 69 70 70 70 70 70 69 68 68 69 70 70 70 70 70 68 69 66 67 65
42 43 44 45 51 51 53 49 55 62 61 59 56 56 55 60 63 63 64 65 66 67 67 67 68 69 68 68 67 68 69 69 69 70 70 70 70 70 71 70 70 71 71 70 68 69 68 65 64
38 38 38 42 51 50 50 47 60 61 60 59 57 55 55 59 63 63 64 64 65 65 65 66 67 68 68 67 66 67 67 68 69 70 71 71 69 70 71 70 70 71 70 70 70 69 65 65 62
27 34 39 40 50 51 50 48 61 61 60 59 60 60 60 60 62 63 63 64 64 63 63 64 66 67 67 67 68 68 67 67 69 71 71 71 70 72 71 70 70 71 69 71 70 68 67 65 65
24 34 36 36 48 51 49 48 60 61 60 59 60 61 61 61 61 62 62 63 64 62 62 63 65 66 67 68 68 68 68 68 69 70 71 71 72 70 70 70 70 65 70 70 69 68 67 66 66
31 36 37 39 41 49 49 48 59 60 60 60 60 59 60 61 61 61 62 62 62 62 60 63 64 65 67 68 67 66 66 66 68 69 70 71 72 71 70 70 69 69 70 69 68 63 62 60 63
24 23 29 35 38 48 48 48 57 60 59 60 60 59 60 61 61 61 62 62 62 62 61 63 63 65 68 66 67 66 66 66 67 68 70 71 71 73 71 70 70 70 70 69 69 66 66 61 63
23 22 23 30 39 42 41 45 48 59 60 60 60 60 60 61 60 60 61 62 61 63 62 63 63 64 67 67 68 68 67 66 66 67 69 71 71 73 72 71 70 71 71 69 69 67 64 59 63
23 24 24 27 33 33 37 36 46 54 57 58 59 60 60 60 60 60 61 61 61 62 64 64 63 64 66 67 67 66 64 63 64 66 67 71 72 72 73 72 71 71 71 70 70 68 66 61 60
26 26 26 27 28 37 31 34 42 52 55 57 58 59 60 60 60 60 61 61 61 62 64 64 64 64 65 68 66 66 64 64 67 66 66 69 71 72 73 72 72 71 71 71 70 68 66 60 59
30 28 29 31 30 28 29 33 34 47 50 55 57 57 59 59 60 60 61 61 62 61 64 64 65 64 65 67 66 66 65 66 66 67 66 66 70 71 72 73 72 71 71 71 70 70 68 65 62
30 28 26 26 27 26 30 32 32 44 47 50 54 56 57 57 58 59 60 61 62 61 62 64 65 65 66 67 67 66 66 66 66 66 66 66 68 69 71 72 71 71 71 71 70 70 69 69 65
30 29 28 25 26 28 28 29 32 43 47 49 52 55 55 55 54 57 58 61 61 61 62 63 65 65 66 67 67 67 67 66 66 66 66 66 67 68 70 72 72 71 72 71 71 70 70 68 70
30 30 30 26 21 23 27 26 30 40 45 48 50 53 53 54 55 57 57 59 59 61 62 63 65 66 67 67 67 68 67 67 67 67 67 65 66 69 70 70 72 72 72 72 72 71 71 70 68
32 30 27 25 22 18 19 22 28 28 32 47 50 52 53 53 54 56 57 57 58 60 62 62 64 65 67 67 68 68 68 68 68 68 66 66 66 68 70 71 71 72 72 72 72 71 71 71 70
28 29 30 28 26 25 18 20 23 28 28 40 45 49 53 54 55 55 56 57 57 59 62 62 63 64 66 67 68 68 68 68 68 68 68 68 68 67 70 71 72 73 72 72 72 71 72 71 71
33 28 24 27 25 19 25 25 21 23 26 36 47 51 54 54 56 56 54 56 57 57 62 63 63 63 64 67 67 68 68 69 70 69 68 68 69 69 68 71 71 72 72 72 71 71 71 72 71

GFSSGP_sfc_dewp_054.txt.gz
Dewpoint
71 70 70 68 60 59 53 55 60 59 59 61 57 57 57 61 57 54 66 68 70 71 73 74 76 75 75 75 75 76 75 75 75 75 75 75 74 74 74 74 73 73 73 73 72 71 72 71 71
71 69 69 66 58 51 52 58 57 59 60 59 60 60 60 60 63 65 66 70 72 73 74 74 75 76 75 75 75 75 75 75 75 75 75 74 74 74 74 74 74 74 73 73 73 72 72 72 72
70 69 65 61 57 53 54 58 59 59 59 58 60 62 61 61 64 65 67 71 72 73 73 74 76 75 75 75 75 75 74 75 75 74 74 74 74 74 74 74 73 73 73 73 72 72 72 72 72
68 68 66 57 54 57 57 59 60 60 62 61 61 60 63 65 64 67 70 72 72 73 73 75 75 75 74 75 75 74 74 75 75 75 74 74 74 74 74 73 74 73 73 73 73 72 72 71 70
68 65 55 55 55 57 59 60 61 59 61 60 60 60 62 64 67 69 71 72 72 73 72 73 75 75 74 75 75 74 75 75 75 75 74 74 73 73 73 73 73 74 74 73 73 73 71 71 71
65 62 53 50 53 55 58 61 61 59 60 60 59 59 62 66 67 70 71 72 73 73 73 73 74 75 74 74 75 74 74 75 75 74 75 75 74 74 74 73 73 73 73 73 73 72 71 71 72
61 56 52 53 54 55 58 62 61 59 58 59 60 59 64 65 67 70 71 72 73 73 73 73 73 73 74 74 74 74 74 74 74 75 75 75 74 74 74 74 73 73 73 72 72 72 72 72 72
62 57 54 55 54 55 58 60 61 60 59 61 61 59 61 64 68 71 71 72 73 73 73 72 72 72 72 73 74 74 74 74 74 74 74 74 74 74 74 73 73 73 73 72 71 71 72 73 73
60 54 52 53 54 55 59 58 62 61 59 59 60 61 63 66 69 70 70 71 71 72 72 72 72 72 72 73 73 74 74 74 74 74 74 74 73 72 73 73 73 73 73 72 73 72 73 72 72
61 54 52 55 56 57 60 60 60 59 59 59 61 63 64 65 68 66 66 67 69 70 72 71 72 72 73 73 73 73 73 73 73 73 72 72 72 73 72 72 73 73 73 73 72 73 72 71 70
62 57 58 55 56 57 58 58 60 59 59 60 60 62 63 65 67 64 64 65 66 68 71 71 71 72 72 73 72 73 73 73 72 71 69 70 72 73 73 72 69 67 70 70 71 70 69 70 70
58 60 60 55 56 55 55 59 59 59 60 61 61 62 63 63 66 63 64 65 66 67 70 71 71 71 71 72 72 72 72 72 71 70 67 71 72 71 72 71 69 70 71 70 71 72 72 71 71
58 57 57 59 58 54 55 58 61 60 61 61 61 62 62 62 65 64 65 67 68 68 70 71 71 71 71 70 72 71 71 71 71 70 66 71 70 70 70 71 71 71 71 71 71 72 71 68 66
51 54 54 54 53 55 51 53 59 60 60 60 60 61 62 62 62 66 67 67 69 69 70 70 70 71 70 70 70 70 70 71 71 70 70 68 69 70 70 71 72 72 71 71 70 71 69 68 66
44 41 42 44 49 52 52 51 57 60 59 59 59 61 61 61 62 66 67 67 68 68 69 69 69 70 69 69 69 70 70 70 70 70 71 69 70 70 71 71 72 72 72 71 71 71 69 67 64
34 38 39 44 47 52 51 48 60 60 58 58 58 60 60 59 62 64 66 67 68 68 68 69 68 69 69 69 68 68 69 70 70 70 71 71 71 71 71 71 72 72 72 72 72 71 66 67 64
26 37 39 43 46 51 50 49 60 60 57 57 58 58 58 58 62 64 65 66 67 68 67 67 68 68 68 68 68 67 68 69 69 70 71 72 72 71 72 72 72 72 71 72 72 70 69 67 66
27 30 37 39 43 50 50 51 60 60 58 56 56 56 55 56 61 63 64 65 66 67 66 66 67 68 68 68 68 69 69 69 69 71 71 72 72 72 72 71 72 70 71 71 72 70 68 68 67
30 34 35 37 40 49 49 52 60 60 59 58 57 55 54 54 59 63 64 64 65 65 65 65 66 67 68 68 67 68 68 69 70 70 72 72 73 73 71 71 71 70 72 71 70 66 65 65 65
27 25 30 34 39 48 48 49 59 60 59 59 59 59 59 59 59 62 63 63 64 64 63 65 66 67 68 68 68 68 68 68 69 70 71 72 73 73 71 72 71 71 72 71 70 68 67 65 65
25 25 23 32 34 42 47 46 55 60 60 60 60 60 61 61 61 61 62 62 63 64 62 64 65 66 68 68 68 68 68 68 68 69 70 71 72 73 73 72 71 71 73 71 71 69 67 64 66
20 26 27 25 30 30 42 36 45 57 59 59 59 60 60 60 61 61 61 62 62 63 64 64 65 65 67 68 68 68 66 65 66 68 69 71 72 73 73 73 72 72 73 72 71 70 68 66 65
19 25 25 25 29 29 30 33 35 52 57 58 59 60 60 60 61 61 61 61 63 63 63 64 65 65 67 68 68 67 67 66 67 67 68 70 72 73 73 73 73 72 73 72 72 70 69 65 65
28 28 26 29 27 26 26 29 34 49 53 57 59 60 60 60 61 61 61 62 62 63 64 64 65 65 66 68 68 68 67 66 67 67 66 68 71 72 73 73 73 73 73 72 72 72 70 67 65
28 25 24 24 27 24 28 28 31 38 50 54 57 59 60 60 60 61 61 61 62 63 63 65 65 65 66 67 68 67 67 67 67 67 66 66 68 71 72 73 73 72 73 73 73 72 71 69 67
28 26 24 22 23 25 30 29 32 34 45 53 54 57 59 59 60 60 61 61 62 63 63 64 65 65 66 66 68 68 68 67 67 67 68 67 67 69 72 72 73 73 73 72 73 71 71 71 70
28 27 28 27 28 25 28 30 32 37 39 46 49 52 56 58 59 60 61 61 62 63 63 64 65 65 66 66 66 68 68 67 67 68 68 68 68 69 71 72 73 73 73 73 73 72 71 72 71
29 30 28 27 25 21 25 25 31 34 38 45 48 50 54 57 58 58 59 61 62 62 63 63 64 65 66 66 66 67 67 68 68 68 68 68 68 70 71 71 72 73 73 73 73 73 73 72 71
25 26 30 28 27 24 22 24 29 35 37 36 47 50 53 55 57 56 56 59 61 62 63 62 63 64 65 66 67 67 68 68 68 68 68 68 68 68 70 71 71 72 72 73 73 73 73 72 73
34 32 30 29 27 26 26 25 26 33 34 34 35 49 53 55 55 56 56 57 59 61 62 62 63 64 65 67 67 67 68 68 68 68 69 69 68 68 69 71 71 72 73 73 73 72 73 72 72

GFSSGP_sfc_dewp_057.txt.gz
Dewpoint
70 69 70 68 61 59 54 55 59 58 58 57 56 56 57 60 56 56 65 68 68 68 72 72 76 75 75 75 75 76 75 75 75 75 75 74 74 74 74 74 73 73 73 72 72 72 71 72 72
69 68 68 66 57 54 53 57 57 58 59 57 60 59 59 60 63 65 66 68 67 68 70 70 76 76 75 75 75 75 75 75 75 75 75 74 74 74 74 74 73 73 73 73 72 72 72 72 72
69 67 66 62 57 54 55 57 58 57 58 57 60 61 61 61 64 64 67 67 67 69 71 71 76 76 75 75 75 75 75 75 75 75 74 74 74 74 74 74 73 72 73 72 72 72 72 72 71
67 68 66 58 53 57 58 57 58 58 58 60 60 60 62 64 63 65 68 67 66 69 69 73 75 74 75 75 74 75 75 75 75 74 74 74 74 74 74 73 73 72 72 72 72 72 72 71 72
68 66 58 55 54 57 58 59 60 58 60 59 60 60 62 64 66 67 69 67 67 67 70 70 76 75 75 75 74 75 75 75 75 75 75 74 74 74 73 73 73 72 72 72 73 71 71 72 72
65 62 55 52 53 55 57 60 60 59 60 60 59 60 62 66 67 68 68 67 68 68 68 70 75 75 75 75 74 75 75 75 75 74 74 75 75 74 73 73 73 73 73 72 72 71 72 72 72
60 59 53 52 53 54 57 61 59 59 59 59 60 58 64 65 67 68 68 69 68 68 69 70 73 73 74 75 74 75 75 75 74 74 75 75 75 74 74 73 73 72 72 71 71 72 72 72 73
64 57 53 53 53 53 58 60 61 59 59 61 61 59 61 65 67 67 69 69 68 68 68 70 72 70 71 71 74 74 74 74 75 75 75 75 74 74 73 73 73 72 71 71 71 72 72 73 73
59 56 53 51 52 55 59 58 61 61 59 59 60 60 61 66 67 67 69 68 67 68 68 69 70 72 73 72 72 74 74 74 74 74 74 74 73 72 70 73 73 73 73 72 72 72 72 73 73
60 57 53 52 54 56 59 59 60 59 59 59 60 62 64 65 66 65 66 65 65 68 68 69 70 71 71 70 73 73 72 71 72 73 74 73 73 73 70 72 73 73 73 73 73 72 72 70 68
59 58 56 54 55 59 58 59 59 59 58 60 60 62 64 64 64 63 63 62 63 67 67 69 71 72 72 71 72 72 72 72 73 75 73 73 73 73 71 71 69 69 71 68 68 69 68 68 68
58 59 59 57 56 55 55 57 59 59 58 61 62 63 63 62 63 62 62 63 64 67 68 69 71 72 72 72 71 72 71 72 71 72 71 73 72 73 72 70 70 70 70 71 72 71 72 71 70
57 58 57 58 57 56 56 56 59 59 61 61 62 62 62 61 62 61 63 65 65 66 69 69 72 73 73 74 72 71 72 71 70 72 69 72 72 73 71 71 71 71 72 71 72 71 69 69 69
53 55 56 55 55 54 54 53 58 60 61 61 62 61 61 61 61 61 63 65 66 67 68 70 71 72 73 72 74 72 72 71 71 71 68 71 72 73 70 70 71 72 72 72 71 71 69 68 68
47 48 46 49 52 54 52 51 54 60 61 61 61 61 61 61 61 61 63 65 68 68 69 70 71 71 72 72 72 71 70 69 70 71 73 70 71 73 73 73 72 72 73 73 74 72 71 65 66
32 39 45 48 48 49 51 48 56 60 60 59 60 60 60 61 61 63 64 65 67 68 69 70 68 69 70 70 71 69 68 69 70 71 71 71 73 74 75 73 72 73 73 73 76 73 68 66 65
33 22 37 46 46 51 50 49 58 59 59 59 60 60 60 60 61 64 65 66 66 68 70 70 70 69 69 71 70 69 70 69 70 71 71 73 73 72 73 73 73 74 72 72 72 70 69 66 64
23 25 36 43 46 47 49 50 59 58 58 58 59 60 60 60 60 63 65 66 67 68 69 70 69 70 71 70 71 69 68 69 70 70 70 73 73 73 73 74 73 73 74 75 73 73 71 69 67
30 31 27 41 46 46 46 47 58 59 57 58 58 59 59 59 60 62 64 65 66 68 69 69 70 71 70 68 67 68 67 68 69 70 73 73 73 74 75 73 73 73 73 75 73 70 69 67 66
26 30 32 34 39 46 47 46 53 59 58 58 58 58 58 58 59 62 64 64 65 67 69 70 70 71 71 69 70 69 70 69 71 71 73 74 73 75 74 74 73 73 72 74 72 71 64 66 66
23 24 29 32 36 39 45 44 48 57 59 59 57 57 57 57 57 61 63 64 65 66 68 69 71 71 71 72 70 71 71 70 69 70 71 73 74 74 75 74 73 73 78 75 74 70 68 63 67
17 21 28 29 29 34 41 39 46 52 58 59 59 58 56 57 57 58 62 63 64 66 67 70 71 71 71 73 71 72 67 67 68 69 70 73 74 74 75 75 74 75 76 77 73 71 70 68 64
17 17 17 24 30 30 31 38 41 49 55 57 58 59 59 59 58 58 59 62 63 65 66 67 70 72 72 73 73 70 70 68 69 68 72 74 75 74 74 75 75 75 75 76 74 74 73 68 65
20 23 21 17 20 27 32 32 36 42 51 55 58 59 60 60 61 62 62 62 63 64 66 67 70 71 72 72 72 73 73 71 68 69 68 68 70 72 74 74 75 75 74 75 74 75 74 71 68
23 19 20 20 14 21 31 31 34 39 45 50 56 59 60 61 61 62 63 63 64 65 66 67 70 70 71 71 72 72 73 73 72 71 68 69 68 69 73 75 75 74 76 75 75 75 75 73 69
25 23 17 20 13 9 26 29 32 36 37 46 52 55 59 60 60 61 62 64 65 66 67 67 69 70 70 71 72 73 73 68 68 71 67 67 66 68 73 74 75 75 75 75 75 73 73 74 72
27 24 22 19 26 19 12 27 33 36 37 38 41 53 57 60 60 61 62 63 64 65 67 68 69 70 70 69 71 72 73 72 70 72 71 68 71 67 71 73 73 74 75 75 75 73 74 74 74
28 27 24 24 19 19 18 21 25 36 37 39 40 49 55 58 60 61 62 62 64 64 66 67 68 69 70 70 70 70 71 72 72 72 72 72 70 71 70 72 73 73 74 75 76 73 74 75 72
28 27 27 26 24 19 16 19 30 34 40 41 42 44 49 55 59 60 61 62 64 63 65 66 67 69 69 70 70 70 70 70 71 71 71 73 71 72 72 73 73 73 73 74 75 75 74 75 75
33 30 27 26 28 28 24 19 30 35 36 38 38 44 47 53 58 60 61 62 62 64 64 65 66 66 67 69 70 70 70 71 70 71 71 73 73 72 72 72 73 73 73 73 74 73 72 73 74

GFSSGP_sfc_dewp_060.txt.gz
Dewpoint
69 66 68 68 61 60 54 54 56 57 55 56 56 55 55 58 57 58 65 67 67 67 69 72 76 75 75 75 75 75 75 75 75 75 74 74 75 75 74 74 73 74 72 72 72 72 73 72 72
66 66 68 66 58 54 54 56 55 55 56 56 57 57 56 59 61 63 65 67 67 66 66 71 76 76 75 76 75 75 75 75 75 75 74 74 74 74 74 73 73 73 73 72 72 72 72 73 73
66 66 66 62 59 54 55 56 57 58 56 57 59 60 59 61 62 63 65 66 66 64 65 73 76 76 76 75 75 75 75 75 75 75 74 74 73 74 74 73 72 73 72 73 73 72 72 72 72
65 68 67 59 53 55 58 57 56 57 56 57 59 59 62 64 62 63 65 65 64 63 64 74 75 75 76 75 75 75 75 75 75 75 74 74 73 73 73 73 73 73 72 72 73 72 72 72 71
66 66 59 56 54 55 58 58 57 56 56 58 58 59 62 63 64 64 64 64 62 61 65 71 76 75 75 74 75 75 75 75 75 74 74 74 74 74 73 73 72 73 72 73 72 71 72 72 72
65 63 55 52 53 55 56 59 58 58 58 59 58 59 62 65 64 64 64 62 61 61 63 71 75 75 75 74 75 75 75 75 75 75 74 75 75 74 74 74 73 73 72 72 71 71 72 72 73
63 57 54 50 51 53 56 60 57 58 59 58 59 59 63 64 65 64 63 61 61 61 63 69 68 74 75 74 75 75 75 75 74 74 74 75 75 74 74 73 72 72 72 71 71 72 73 73 73
64 55 52 52 53 53 56 59 58 59 58 60 60 58 62 64 66 63 61 61 61 61 63 68 67 68 72 70 75 75 75 75 75 74 75 75 74 73 73 74 72 71 71 71 71 73 72 72 73
62 54 52 49 50 55 58 59 60 61 59 59 60 59 62 64 65 62 61 61 61 61 63 66 64 68 70 71 73 74 75 75 75 74 75 74 67 68 70 73 72 72 72 71 71 72 72 73 73
58 55 51 51 53 55 57 58 59 58 58 58 59 60 62 64 64 62 60 60 60 61 61 63 65 67 68 65 71 71 70 69 69 69 72 69 70 70 68 72 73 72 73 72 72 72 72 73 66
56 55 54 53 55 57 57 57 58 57 57 58 59 61 62 64 64 62 60 59 59 61 61 63 66 69 68 68 68 68 68 68 70 73 71 70 69 69 67 68 68 68 71 66 69 69 67 67 65
52 54 56 54 54 56 55 57 57 57 57 59 61 62 62 63 61 60 59 59 58 61 62 64 66 69 69 68 67 67 66 67 67 69 73 72 70 70 69 66 68 69 68 70 69 66 70 69 69
50 52 55 56 54 54 55 55 57 57 60 60 61 62 61 61 60 60 60 59 59 61 62 64 67 70 71 71 68 67 67 67 67 70 71 70 69 70 68 69 68 69 68 67 68 67 67 69 69
43 44 50 54 54 53 53 52 56 58 60 61 61 61 60 60 59 60 60 58 60 61 62 64 67 70 71 71 72 70 69 69 69 68 68 73 75 71 68 69 68 68 68 67 66 67 65 65 65
37 43 43 48 53 53 53 51 52 59 60 60 60 60 60 60 59 60 60 60 61 62 64 64 67 68 71 71 72 70 68 67 67 68 72 71 73 74 73 69 69 68 71 71 70 69 68 61 62
27 32 34 43 50 52 51 47 52 59 59 60 60 60 59 60 59 60 60 60 62 63 65 66 63 66 69 70 71 68 67 67 67 68 69 71 72 74 75 72 68 70 69 67 66 71 62 61 61
19 20 28 47 49 50 49 47 55 57 57 59 60 59 59 60 60 60 60 61 62 65 66 67 66 66 68 70 69 69 70 69 68 69 69 73 73 73 75 70 71 76 71 66 65 64 65 62 61
16 19 23 41 47 48 48 48 55 57 57 58 59 59 59 59 60 60 60 61 62 65 67 68 66 68 69 68 69 67 67 68 69 69 69 73 72 73 73 71 76 71 68 67 66 69 66 66 64
23 20 22 37 46 47 47 47 54 56 56 58 59 59 59 59 61 61 61 61 61 64 67 68 68 70 68 66 65 65 65 67 68 68 72 73 73 74 75 70 74 75 68 68 71 70 70 66 69
19 26 28 27 41 48 46 45 47 56 55 57 59 59 59 59 59 61 62 61 61 64 66 69 69 70 70 66 67 65 67 66 67 69 73 73 73 74 73 74 72 75 68 71 72 70 64 64 64
19 18 25 27 32 42 45 45 46 51 55 56 57 59 59 58 59 60 62 61 61 63 66 68 70 71 71 70 67 70 70 70 70 70 69 72 73 74 74 75 74 76 71 68 72 70 68 62 65
16 15 15 26 30 32 41 39 45 46 53 55 56 57 57 58 59 60 61 62 61 63 66 69 71 71 71 71 70 73 68 65 65 67 67 69 74 73 74 75 74 74 70 74 70 68 68 68 63
18 15 16 17 27 30 34 38 40 44 48 54 55 56 56 58 58 58 60 62 62 63 65 68 71 73 73 73 73 69 71 64 65 66 72 74 75 74 73 75 75 76 70 73 73 74 73 65 63
20 18 18 17 12 20 29 33 36 41 44 47 54 55 57 57 57 59 60 62 63 63 64 67 72 74 74 73 71 74 73 71 66 69 68 67 68 70 74 74 75 76 74 73 72 73 74 71 69
22 18 18 15 9 4 20 28 34 37 43 44 48 54 56 58 58 58 59 60 63 64 65 66 71 74 74 72 71 71 72 73 72 71 68 70 65 66 71 75 76 74 77 75 74 78 75 73 71
24 20 16 19 11 7 11 19 28 36 39 43 47 52 56 57 58 59 60 60 62 64 65 66 70 73 73 72 74 75 75 68 69 71 67 66 65 65 70 73 74 75 74 75 75 72 71 73 72
26 23 21 16 16 12 8 11 22 32 35 39 43 47 50 54 57 59 61 62 63 63 66 68 70 71 72 70 74 75 74 73 69 74 71 67 72 66 69 71 73 73 74 74 75 71 73 73 73
29 27 21 21 21 20 17 17 11 32 35 38 40 41 47 51 56 58 60 62 64 63 64 66 68 71 71 70 71 71 71 73 73 72 73 72 70 71 70 71 71 71 72 74 75 73 74 75 72
26 26 27 22 21 19 17 16 20 25 30 37 38 41 42 51 56 57 59 61 63 64 63 65 66 68 69 70 71 71 70 70 72 71 72 72 72 72 73 72 71 70 72 73 75 74 72 74 75
29 29 27 24 27 23 22 17 21 24 25 32 37 39 41 45 52 56 57 60 62 63 63 63 65 66 67 70 73 71 71 71 70 71 72 73 73 73 73 73 72 71 71 73 74 73 71 72 73

GFSSGP_sfc_dewp_066.txt.gz
Dewpoint
70 66 66 65 60 58 55 54 52 53 53 54 56 57 58 62 57 58 65 66 67 68 71 72 75 75 75 75 75 75 75 75 75 74 75 75 74 74 73 74 73 73 72 73 73 73 73 74 74
63 61 66 67 59 55 53 56 54 54 54 55 57 56 57 58 61 62 64 67 67 68 69 71 75 75 75 75 76 75 74 75 75 75 75 75 74 74 74 74 73 74 73 73 73 73 73 74 74
68 66 66 63 60 55 55 60 60 54 53 54 59 61 59 60 62 64 66 65 65 65 67 71 77 76 76 76 75 75 75 75 75 74 74 74 74 74 73 73 73 74 73 73 73 73 73 73 74
66 66 66 61 56 57 59 60 58 54 55 59 58 58 61 63 63 64 65 63 61 62 67 74 77 75 76 75 75 75 75 75 75 75 74 74 74 74 74 73 73 74 73 73 73 72 72 73 72
67 67 60 57 55 53 58 56 54 55 55 57 59 59 61 63 64 64 62 61 59 63 68 71 76 76 75 75 75 75 75 75 75 74 74 74 74 73 73 73 73 73 73 73 73 73 72 72 72
65 64 58 54 50 50 54 56 55 55 57 59 58 59 60 64 63 63 61 60 61 63 66 71 75 76 76 75 76 75 75 75 74 75 75 75 75 74 74 73 73 73 73 72 73 73 73 72 71
61 62 58 56 53 55 55 56 55 57 57 58 60 59 61 62 63 62 60 59 59 61 65 70 71 74 75 75 75 75 75 75 76 75 76 76 76 75 74 74 73 72 72 72 72 73 73 73 72
62 62 57 59 57 58 61 58 57 58 59 60 61 59 59 62 63 62 60 56 59 62 64 69 70 69 73 73 75 75 75 75 75 76 76 76 75 73 73 75 74 72 72 72 72 73 73 73 72
59 58 55 53 59 59 61 55 57 60 57 57 60 60 61 62 62 60 59 55 60 60 62 64 66 69 74 74 74 75 75 74 75 74 75 74 72 71 70 75 74 72 72 72 72 73 72 72 72
55 58 55 56 57 55 57 56 55 55 56 58 61 61 61 61 61 60 57 54 58 59 58 61 67 68 71 68 74 75 73 72 72 72 74 76 71 73 69 73 75 72 73 73 73 68 72 72 71
51 51 61 60 58 58 54 55 54 55 55 59 61 60 61 61 61 58 56 54 54 57 57 61 68 69 67 70 72 71 71 71 73 75 73 75 72 73 70 71 71 72 73 70 72 73 73 72 71
47 51 52 55 55 57 61 60 59 59 62 61 61 61 61 60 59 56 55 55 55 58 58 62 65 71 68 69 69 69 70 69 69 71 75 74 71 71 73 71 74 72 71 72 71 72 73 72 71
44 47 49 57 55 59 55 60 63 55 58 61 61 61 60 59 59 56 57 55 56 56 59 63 66 74 69 72 70 70 68 66 70 71 73 75 76 73 73 70 72 73 72 71 69 71 71 70 70
42 42 46 52 54 58 55 59 60 60 62 60 61 60 59 59 58 58 57 56 57 58 61 64 66 72 73 74 76 70 72 69 71 72 73 73 76 76 74 72 71 71 73 72 72 71 71 70 67
32 35 39 43 53 53 53 53 54 60 58 57 60 60 60 60 59 58 58 58 58 59 63 65 66 68 73 72 73 74 71 69 68 73 76 75 74 76 75 72 72 74 75 74 73 74 71 69 68
27 30 33 36 44 52 51 51 55 60 58 57 60 60 60 60 58 58 58 57 59 59 66 66 61 66 70 74 75 75 72 73 71 72 74 75 73 77 72 73 72 73 72 74 68 72 70 67 67
24 24 30 33 40 45 51 53 60 64 61 56 57 59 60 60 60 59 58 58 59 62 66 66 67 68 70 74 74 73 72 74 72 74 72 76 76 76 75 73 74 73 75 74 72 66 73 68 69
20 21 24 29 34 41 45 55 59 61 59 55 56 59 59 59 59 59 58 57 60 63 66 67 68 72 73 73 76 72 73 73 73 76 75 76 76 76 74 75 75 75 70 71 73 66 69 68 68
21 16 17 22 26 38 40 53 56 57 57 56 56 58 59 58 60 59 59 57 60 63 65 68 70 73 72 72 71 70 69 73 70 71 73 76 75 76 75 76 75 75 71 71 74 73 71 68 71
24 21 15 15 21 40 49 53 55 55 53 58 55 55 58 57 58 59 59 57 59 63 66 70 71 73 72 72 73 72 71 71 70 72 74 75 75 76 75 74 76 70 75 75 73 70 69 67 68
19 18 16 16 20 36 39 52 54 53 57 62 57 54 56 58 58 59 60 59 59 63 66 69 71 73 72 74 72 75 76 74 71 73 73 75 75 76 76 76 76 77 74 73 74 74 68 67 70
18 17 15 15 16 22 27 39 53 54 59 58 58 53 54 57 59 59 59 60 59 63 67 70 72 74 72 75 71 74 71 70 71 73 73 74 76 76 76 77 77 77 75 74 76 74 71 67 68
19 19 18 16 16 17 23 25 44 54 52 57 57 54 52 55 57 59 59 60 60 64 66 69 71 74 72 73 74 72 72 70 73 71 75 75 78 77 75 78 77 77 76 77 76 75 76 74 72
19 17 20 19 14 13 15 20 28 48 50 53 58 57 53 53 56 60 60 61 61 63 65 68 71 73 73 73 73 74 71 74 72 72 71 73 73 75 77 76 77 77 77 76 76 77 76 77 76
21 18 17 17 14 13 13 11 25 36 49 51 53 57 54 56 56 59 61 62 62 62 64 67 71 72 72 72 71 74 72 73 75 76 71 70 71 70 75 78 77 76 77 77 77 78 77 77 76
21 20 18 20 14 13 18 15 15 21 47 54 56 59 59 55 56 57 61 62 63 63 64 66 70 71 72 73 71 72 74 70 71 74 71 74 70 71 74 76 76 77 77 77 77 76 76 76 76
24 22 19 17 17 15 15 16 17 17 22 48 50 55 58 58 56 58 60 61 64 64 64 66 70 72 73 72 73 71 74 73 70 74 76 72 75 72 75 75 76 77 76 76 77 74 76 75 76
18 21 20 19 22 22 18 21 17 24 22 29 49 56 58 60 60 61 59 61 63 64 65 66 69 71 73 72 73 72 70 73 73 71 75 74 75 74 75 76 75 75 77 77 77 75 75 76 74
19 21 23 22 22 20 19 19 26 32 27 27 48 53 56 59 60 64 61 60 62 63 65 66 67 71 73 73 73 73 72 71 71 72 71 73 73 78 76 77 76 76 75 77 77 76 75 75 75
11 21 21 23 28 26 22 18 22 25 25 24 26 51 52 57 60 62 61 61 61 62 64 65 66 68 72 73 73 73 73 72 71 70 73 75 76 75 79 76 77 75 75 76 76 75 72 75 74

GFSSGP_sfc_dewp_069.txt.gz
Dewpoint
71 69 67 66 60 59 57 57 55 54 54 57 59 58 59 61 58 56 68 68 69 70 72 73 76 75 75 75 76 75 75 75 75 74 74 74 74 74 74 74 74 72 74 73 73 74 74 74 74
67 65 66 66 58 55 56 60 58 55 56 58 59 59 59 59 61 64 65 67 68 70 71 72 75 76 75 75 76 76 75 75 75 75 75 74 74 74 74 74 74 73 73 73 73 73 74 74 74
66 65 65 62 58 54 56 60 60 56 58 59 59 60 60 60 63 64 66 68 69 70 71 72 75 76 75 75 75 76 75 75 75 74 74 74 74 74 73 74 74 74 73 73 73 73 73 74 73
67 67 65 58 57 56 58 59 60 58 59 60 60 59 61 63 64 65 66 67 67 69 72 75 76 76 75 75 76 76 75 75 75 75 74 74 74 74 74 74 74 73 73 73 73 72 73 72 72
67 66 60 58 59 58 57 58 59 56 58 60 61 60 61 64 64 65 65 64 67 69 73 74 77 76 75 75 76 75 75 75 75 75 74 75 74 74 74 73 74 73 73 73 73 72 72 72 71
64 64 58 55 56 55 59 60 59 58 59 60 60 60 62 63 64 64 63 65 68 69 72 73 76 76 76 75 75 75 75 75 75 75 74 74 74 74 74 73 74 73 73 73 72 72 72 72 71
61 62 58 56 56 58 60 56 57 58 58 59 61 60 62 62 63 62 62 65 66 69 72 73 73 74 76 75 75 75 75 75 75 75 75 75 75 74 74 73 73 73 72 72 72 72 72 72 71
63 62 58 58 57 55 61 61 58 58 58 60 61 60 60 61 63 62 62 63 66 69 71 70 73 73 73 74 75 75 75 75 75 75 75 74 74 74 73 75 74 73 72 72 72 72 73 71 71
60 58 56 58 55 55 59 59 58 61 60 60 61 61 62 62 62 60 59 63 64 67 69 68 70 72 73 73 74 76 75 75 76 75 74 74 71 71 72 74 74 73 72 72 72 72 72 72 72
55 57 57 56 58 58 58 60 58 59 59 60 60 62 62 62 61 59 59 60 62 65 67 66 68 71 71 72 73 73 73 73 73 74 72 72 71 70 72 73 74 73 73 73 70 72 73 72 71
53 52 56 57 60 63 60 62 65 58 59 60 60 61 61 61 61 56 59 59 60 63 64 66 68 70 69 70 73 73 72 72 72 72 71 73 70 70 70 72 71 71 73 71 71 70 71 71 71
48 50 52 58 59 60 62 65 63 62 62 62 61 61 61 61 60 55 56 58 58 59 65 66 67 69 68 71 72 71 70 72 70 69 72 70 67 68 71 71 72 70 71 71 72 70 70 70 70
46 47 48 51 57 60 63 61 59 61 63 62 61 61 60 60 60 55 54 55 57 60 64 65 67 66 67 70 70 69 70 71 70 71 71 71 71 70 71 71 71 71 71 70 71 71 70 71 69
43 43 43 52 56 59 59 62 60 60 63 62 61 60 60 60 60 55 55 54 56 61 61 63 69 67 68 68 69 69 69 70 70 70 66 69 71 72 71 69 70 70 71 70 70 70 70 69 67
38 31 32 42 57 56 61 61 61 66 64 61 60 60 59 59 58 57 56 54 55 61 61 64 67 67 70 69 68 69 67 68 70 71 70 71 71 72 72 71 70 70 70 67 68 70 70 67 66
33 26 27 31 43 53 57 57 63 66 64 59 59 59 59 59 58 58 56 55 58 62 62 63 64 69 69 68 72 69 69 69 71 72 73 72 72 72 71 70 69 71 71 70 64 68 67 67 67
33 25 26 28 32 42 52 57 64 64 64 62 59 58 59 59 58 58 56 56 59 63 63 62 63 68 69 68 69 69 67 71 70 72 72 72 72 73 71 70 70 70 70 70 69 66 68 65 66
29 23 22 23 30 33 51 58 59 58 62 62 60 59 59 59 59 58 56 56 60 63 64 65 65 68 69 70 68 70 71 70 72 72 71 74 73 73 72 72 71 72 70 68 69 63 66 63 64
27 26 23 21 25 30 48 56 55 56 59 63 63 59 59 59 60 59 56 57 62 63 63 66 67 68 71 71 69 69 68 69 70 72 73 73 74 70 68 71 72 71 68 66 69 69 64 64 66
25 24 24 23 19 40 55 55 56 55 59 61 62 59 58 59 59 58 56 57 60 63 62 66 68 69 70 70 70 68 68 70 69 70 71 73 73 72 72 71 72 71 69 70 69 67 65 64 64
22 24 22 22 19 40 52 52 54 55 57 60 63 63 59 58 58 58 56 58 60 62 64 65 70 69 70 69 69 70 70 71 68 70 70 73 73 73 73 72 72 71 71 70 70 69 66 63 65
18 20 20 17 16 16 35 42 52 53 55 59 62 60 58 58 58 58 56 57 60 61 65 66 70 69 69 70 67 68 67 66 69 69 71 73 72 73 73 73 72 72 70 70 70 71 67 65 64
19 22 20 20 17 16 14 17 50 51 53 56 57 56 58 59 57 57 58 56 60 62 64 67 70 69 68 70 67 68 67 68 68 69 70 72 73 73 74 74 73 72 71 71 70 71 71 68 67
21 19 19 19 19 17 15 15 49 50 52 52 54 54 58 58 58 58 58 58 60 63 63 67 70 68 68 69 71 68 67 68 68 68 70 71 73 74 74 75 73 73 73 72 72 71 70 71 71
20 25 18 18 17 16 17 15 13 53 53 52 53 57 57 59 59 58 58 58 58 61 64 66 68 70 68 68 68 72 68 68 70 70 70 70 71 72 72 74 73 73 73 73 73 72 72 72 71
22 18 19 16 17 17 19 16 18 44 54 53 56 56 59 63 62 60 58 58 59 62 64 65 66 68 69 67 67 69 71 68 70 71 70 69 70 70 71 74 72 72 73 73 73 71 72 72 72
25 24 21 18 18 18 19 19 20 20 49 53 52 54 61 62 62 62 63 58 59 61 63 65 67 67 69 69 66 68 72 67 69 69 71 70 69 70 71 74 72 74 73 73 73 72 72 72 72
20 22 18 20 17 18 20 21 23 27 31 51 50 58 57 60 63 64 66 65 61 60 63 64 67 67 69 69 68 66 69 71 69 69 70 70 67 70 72 73 73 74 73 72 73 71 72 71 71
17 19 21 22 23 19 17 19 24 25 30 38 51 57 55 58 62 65 66 65 65 64 62 63 67 68 69 68 70 67 66 70 71 68 67 70 70 72 74 74 74 74 74 73 73 71 72 71 72
16 15 14 22 22 26 27 25 25 22 24 44 50 56 56 59 62 63 66 65 62 61 62 62 65 68 69 69 69 70 67 68 69 70 68 70 69 70 73 73 73 73 72 73 74 71 71 72 71

GFSSGP_sfc_dewp_072.txt.gz
Dewpoint
71 70 68 66 59 59 56 57 58 55 55 56 58 58 59 62 58 53 68 69 69 69 72 73 76 75 75 75 75 75 75 75 74 75 75 74 75 74 74 73 73 73 73 73 73 74 74 74 74
70 67 66 66 59 54 56 61 56 57 59 60 60 59 59 59 63 66 67 69 70 71 73 73 76 76 74 75 76 75 75 75 75 75 74 74 74 74 74 73 72 73 73 73 74 74 74 74 74
67 65 64 62 58 53 55 60 57 58 59 59 59 61 60 61 64 66 68 69 70 71 72 73 75 75 75 75 75 75 75 75 75 75 75 74 74 73 74 74 73 73 73 73 73 73 73 73 73
66 67 66 57 56 56 58 59 59 59 59 61 60 59 61 64 64 66 68 70 70 71 71 74 75 75 75 75 75 75 75 75 75 74 75 74 74 73 74 73 73 73 73 73 72 73 73 73 73
68 66 59 57 57 56 56 59 61 58 60 59 60 59 62 65 66 67 68 69 70 71 73 73 77 76 75 75 75 75 75 75 75 75 75 74 74 74 73 74 73 73 73 73 72 72 72 73 73
64 64 58 55 55 56 57 60 60 60 60 60 60 61 62 65 66 67 68 69 71 73 74 74 76 76 76 75 75 75 75 75 75 75 74 74 74 74 73 73 73 73 73 73 72 72 72 72 72
62 61 57 56 56 57 59 62 60 60 60 60 61 60 62 64 65 65 68 69 71 73 73 73 74 74 75 75 75 75 75 75 75 75 74 74 73 73 73 74 73 73 72 72 72 72 72 72 71
63 62 58 57 57 55 58 62 60 60 59 62 62 59 59 62 64 66 68 68 71 72 73 73 73 73 74 73 75 75 75 75 75 75 75 74 74 73 73 75 74 72 72 72 72 72 73 72 72
61 58 57 57 54 55 59 61 62 63 61 61 62 61 61 63 63 65 66 68 70 71 71 72 73 73 73 73 74 75 75 75 75 75 74 74 71 71 71 73 73 72 72 72 72 73 73 72 73
59 56 56 57 57 60 60 61 62 61 60 59 62 61 61 62 62 63 64 66 68 69 69 71 72 72 73 73 73 73 73 73 73 73 73 72 71 71 71 73 73 72 73 72 72 73 73 72 70
56 55 56 57 59 62 61 64 65 62 59 61 61 60 61 61 61 62 63 65 67 68 68 70 71 72 72 73 73 73 73 72 72 71 71 71 71 71 72 72 71 71 72 71 69 70 70 69 70
50 52 54 54 61 62 62 64 63 64 64 63 62 61 61 61 59 61 62 64 66 67 66 68 71 70 69 72 73 73 72 72 72 71 71 69 68 70 70 71 71 70 71 70 70 69 70 69 70
47 48 50 50 59 62 63 59 62 63 65 64 62 61 60 61 60 60 61 62 65 65 65 67 70 69 69 71 72 72 71 72 70 71 72 69 69 69 71 71 70 70 72 70 69 69 69 69 68
47 45 43 41 62 62 60 60 58 62 64 63 62 61 60 61 59 59 59 60 63 63 65 67 68 69 69 70 70 70 69 70 71 69 70 70 71 70 70 69 67 68 70 70 70 69 69 68 68
44 36 32 54 59 59 61 59 60 64 63 62 61 60 60 60 61 57 57 57 61 64 65 66 66 68 68 68 68 69 69 70 70 67 67 70 71 71 69 70 69 69 70 70 70 70 70 68 66
33 31 25 39 58 59 58 57 63 64 63 61 60 59 59 60 60 58 55 59 62 63 64 66 66 68 68 69 70 68 68 70 71 69 70 70 72 71 70 69 68 70 70 68 67 69 70 67 67
32 31 30 27 53 58 57 59 62 64 64 61 59 58 59 59 59 59 55 60 61 61 65 65 68 67 66 70 68 68 68 70 71 72 71 71 72 72 71 70 70 69 70 69 65 67 66 65 65
30 29 25 24 25 54 56 59 61 64 63 61 60 59 58 59 59 58 57 61 61 61 63 65 67 67 67 69 68 68 68 70 71 71 71 72 72 72 71 70 70 71 69 69 67 65 66 65 64
29 27 26 27 27 25 52 59 60 62 61 62 61 61 58 59 60 58 56 61 61 61 61 64 66 66 68 69 68 67 68 69 72 71 71 72 72 71 70 71 71 71 66 67 66 68 62 63 64
30 27 26 26 28 50 57 58 59 61 62 62 62 61 59 59 59 59 55 61 61 61 62 64 66 67 68 69 68 68 68 68 71 71 73 72 72 68 70 70 71 69 67 69 68 66 63 63 63
30 28 26 24 45 53 53 53 54 56 61 63 63 62 61 58 59 59 55 61 61 61 63 65 66 67 69 68 69 69 69 69 69 69 70 72 73 71 72 71 71 70 70 69 67 66 63 61 64
28 25 22 22 18 15 43 45 52 54 59 62 62 61 62 60 59 59 56 59 61 61 64 65 67 67 69 68 68 68 68 67 67 68 69 71 73 72 72 71 72 71 70 70 69 69 65 62 62
28 27 21 23 19 17 18 20 39 53 55 59 62 60 61 60 59 59 57 57 61 62 62 67 68 68 68 68 66 68 66 66 68 68 70 71 71 72 72 72 72 72 70 69 70 70 68 65 65
24 21 20 20 19 16 17 15 34 50 51 55 61 62 61 59 59 59 58 58 59 62 62 68 68 67 69 68 66 66 67 66 69 68 70 71 71 72 72 73 72 72 71 70 70 70 70 70 69
21 18 17 17 15 15 18 17 17 48 52 52 57 61 60 59 59 58 58 58 59 61 62 66 68 67 67 68 69 66 67 66 68 68 69 69 71 72 72 73 72 71 72 72 71 71 70 70 69
23 18 17 14 15 17 19 16 17 36 51 51 53 58 59 59 61 60 59 57 60 60 62 64 67 67 66 67 68 70 67 67 68 70 69 69 70 71 72 73 72 72 72 72 72 71 71 72 71
23 23 21 18 22 17 19 20 23 26 43 52 52 55 59 61 59 61 64 61 61 61 61 64 66 66 66 66 66 67 70 68 67 69 70 70 69 70 71 73 71 72 72 72 72 70 70 71 71
16 19 17 19 18 18 19 20 21 24 38 48 52 53 57 62 62 62 64 65 65 63 63 63 65 66 67 66 65 65 67 70 67 68 69 70 69 70 71 73 71 71 72 72 72 71 71 71 70
18 15 15 20 21 20 18 19 29 35 45 47 52 53 54 61 61 63 65 66 66 64 63 64 64 65 67 68 66 65 65 68 70 68 68 69 69 69 70 72 71 72 72 71 72 71 70 71 70
18 19 17 16 14 23 25 24 32 39 42 49 54 51 56 60 60 63 64 64 65 64 63 63 65 65 65 68 67 66 64 66 69 70 67 68 69 70 72 73 72 72 73 71 71 70 70 71 70

GFSSGP_sfc_dewp_075.txt.gz
Dewpoint
71 70 69 65 56 59 53 53 59 57 55 57 55 56 58 61 58 53 65 67 68 68 72 73 75 74 74 75 75 75 75 74 74 75 74 74 74 73 73 74 73 72 73 73 73 74 74 74 75
70 68 66 65 59 53 54 58 58 58 57 56 60 60 60 60 64 65 66 68 67 70 72 74 76 75 75 75 75 75 74 74 75 74 74 74 74 73 72 73 74 73 73 73 73 73 73 74 74
69 66 64 61 58 53 54 58 59 60 58 59 61 63 61 62 64 64 68 67 68 72 73 74 75 75 75 75 75 75 74 75 75 74 74 74 74 74 73 73 73 73 73 73 73 73 73 73 74
65 66 65 58 55 56 56 59 59 59 61 60 61 60 62 65 64 67 68 68 70 72 72 74 75 75 74 74 75 75 74 74 74 74 74 74 73 73 73 73 73 73 72 72 73 73 73 73 73
67 66 59 57 57 55 57 60 62 60 61 59 60 60 62 65 67 68 68 69 70 71 72 73 76 75 75 75 75 75 74 74 74 74 74 73 73 74 73 73 73 73 72 72 72 72 72 73 73
64 64 57 55 55 56 57 61 62 61 61 60 60 61 62 66 67 68 69 70 70 72 73 74 75 75 75 75 75 74 74 74 75 74 74 74 74 74 74 73 73 73 72 72 72 72 73 72 73
62 61 57 56 56 57 59 62 61 60 60 59 61 60 64 65 68 69 69 71 71 73 73 74 74 74 75 75 75 75 74 75 74 74 74 74 73 73 74 73 73 72 72 72 72 72 72 72 72
63 62 56 57 58 56 60 62 63 60 60 61 61 60 61 65 67 68 70 71 72 73 73 73 73 73 73 73 75 75 75 75 74 74 74 73 73 73 73 74 74 72 72 72 72 72 72 72 73
62 58 56 56 55 56 61 62 63 64 61 60 62 60 64 65 67 68 69 70 71 72 72 72 73 73 73 73 72 75 75 74 74 73 74 74 71 71 71 73 73 73 72 72 72 72 72 72 73
60 56 56 57 56 59 61 63 62 65 60 60 61 62 64 65 66 66 67 67 69 70 71 72 72 72 72 73 73 73 73 73 73 73 71 71 71 71 71 72 72 73 73 73 72 72 72 71 70
59 56 57 58 60 60 62 63 64 63 60 61 59 61 63 64 65 65 66 67 68 70 71 72 72 72 72 73 73 73 73 72 72 72 71 70 70 72 72 72 71 71 72 70 70 70 70 69 69
52 53 57 56 61 61 61 61 62 63 64 65 60 62 62 63 63 64 64 66 68 68 70 71 71 72 71 72 72 72 72 71 71 70 71 70 70 70 70 70 70 70 70 69 69 69 69 69 69
49 49 49 51 53 62 62 58 59 60 65 66 61 61 61 62 63 63 64 65 67 66 67 70 71 70 70 72 71 72 71 72 71 71 70 69 69 69 70 70 69 69 70 69 69 69 69 69 68
48 47 47 44 61 61 59 60 58 62 66 66 62 60 61 60 61 62 63 65 67 66 65 68 70 70 70 71 71 71 70 71 70 70 70 68 69 69 70 69 68 69 69 69 69 68 69 68 67
46 44 36 59 61 60 58 56 59 63 64 65 61 60 60 60 60 61 62 64 66 65 65 67 69 69 69 70 70 70 69 71 70 69 69 70 71 70 69 69 67 67 69 69 69 69 69 68 67
33 32 28 57 58 59 57 56 62 64 64 62 61 60 60 61 59 60 60 63 65 64 65 67 68 68 68 69 69 69 69 70 69 68 68 70 71 71 69 69 69 68 69 68 67 69 68 66 66
31 31 32 30 58 59 58 57 61 64 63 62 60 59 60 60 60 59 59 60 63 64 65 66 67 67 67 68 69 68 69 70 70 69 69 70 72 71 70 69 69 70 69 67 66 68 66 65 65
30 30 28 27 53 56 57 57 61 63 62 61 60 59 59 60 60 57 57 59 63 64 65 66 67 67 68 69 68 67 68 70 71 70 70 71 72 71 70 69 69 70 69 69 65 65 66 65 65
32 29 27 28 28 26 55 56 59 62 62 61 60 59 58 59 60 56 58 60 62 63 65 66 67 66 68 67 67 67 68 69 71 71 71 72 72 71 70 70 71 69 65 68 65 65 63 63 64
33 30 29 28 39 43 57 56 59 61 61 62 61 60 58 58 59 56 59 60 61 63 64 66 66 66 67 67 68 67 68 69 70 71 71 72 71 70 70 70 70 69 65 68 68 64 62 63 63
33 30 29 28 36 55 54 56 58 59 61 62 63 62 60 58 58 56 59 60 60 62 64 66 65 66 67 67 68 68 69 69 69 69 71 72 71 69 70 70 71 69 67 68 66 64 61 60 63
30 31 29 25 20 17 48 47 54 55 57 59 62 62 61 58 58 58 58 60 60 60 63 65 66 66 67 67 67 67 67 67 67 68 69 71 73 70 71 71 71 70 70 68 67 67 63 61 61
30 31 26 23 19 18 24 26 43 54 54 58 61 61 62 61 58 59 56 60 60 60 61 63 66 66 67 67 66 67 67 67 67 68 68 70 72 71 72 71 71 70 69 69 69 69 66 64 63
28 27 20 20 18 15 16 16 24 50 53 54 60 62 62 61 61 59 57 60 60 61 62 64 65 66 67 67 67 67 66 66 67 67 68 69 70 72 72 72 71 71 70 69 69 69 69 68 67
20 19 16 16 15 14 18 16 18 46 52 53 56 60 62 60 61 59 58 58 60 60 62 64 65 65 67 67 66 66 67 66 67 68 68 69 70 71 71 71 71 70 70 70 69 70 69 69 69
22 18 17 13 15 16 20 15 18 24 31 49 54 58 61 61 62 60 59 56 59 61 61 65 65 65 66 67 67 66 66 66 67 68 68 69 70 70 71 72 72 71 71 71 70 70 70 70 69
20 22 24 18 22 17 18 20 24 38 44 49 52 56 61 62 60 61 61 58 58 60 61 64 66 65 66 66 66 67 66 66 66 68 69 69 69 70 71 73 72 71 71 71 71 70 70 70 70
17 17 17 19 17 16 19 20 29 38 43 50 53 53 58 61 60 60 61 59 60 60 61 62 65 65 66 66 66 66 68 68 67 67 69 70 69 69 70 73 71 71 71 71 71 70 70 70 70
19 18 18 19 21 18 18 23 30 40 44 52 55 56 55 59 60 61 61 62 61 60 60 61 63 64 65 65 66 65 66 69 69 67 67 68 70 69 70 72 72 70 71 71 71 70 70 70 70
18 18 18 16 16 18 23 26 24 25 41 51 55 57 57 59 61 62 63 64 64 61 61 61 62 64 65 65 65 65 65 66 69 68 67 67 68 69 70 70 72 71 71 71 71 70 71 70 69

GFSSGP_sfc_dewp_078.txt.gz
Dewpoint
71 70 68 65 57 59 54 53 57 58 56 57 55 55 55 60 57 52 65 64 67 69 72 73 75 74 74 75 75 74 73 73 74 74 74 73 73 72 73 72 73 74 73 74 74 74 74 74 75
70 68 66 65 58 53 54 58 57 59 56 55 61 60 60 60 64 64 65 67 67 71 72 73 76 75 74 75 75 74 73 74 74 74 74 73 74 72 74 73 73 73 73 74 73 73 74 74 74
70 67 64 61 58 52 54 58 59 58 56 60 61 63 61 61 63 63 67 66 70 72 73 74 75 75 75 74 74 74 73 74 74 74 73 73 73 73 72 73 73 73 73 74 73 73 73 73 73
65 65 65 58 54 56 56 59 60 59 60 62 62 61 63 65 62 67 66 69 71 72 73 75 75 75 75 75 75 74 74 74 74 73 73 73 73 73 73 73 73 73 73 73 73 73 73 73 73
67 66 59 57 57 57 57 61 61 60 61 61 62 60 62 65 68 67 66 70 71 72 73 73 75 75 74 74 74 74 74 74 74 73 73 73 73 73 73 73 73 72 72 73 72 73 73 73 73
64 64 57 55 55 56 59 62 61 61 61 61 61 60 63 67 67 67 68 70 71 72 73 73 75 74 75 75 74 74 74 74 74 73 73 73 73 73 73 73 72 71 71 72 72 73 72 73 74
62 61 56 55 56 58 60 62 61 61 60 60 62 59 64 66 67 68 70 70 71 73 73 73 73 74 75 74 75 74 74 74 74 74 73 73 73 73 73 72 73 71 70 72 73 73 73 73 73
64 61 56 56 57 57 61 63 63 62 61 62 62 59 61 66 68 70 70 71 73 73 73 73 73 74 73 74 75 74 75 74 73 73 73 73 73 72 72 73 73 71 71 72 72 72 72 73 74
62 57 55 55 55 58 62 63 66 65 61 60 61 61 64 68 69 69 69 70 71 72 72 72 73 73 73 73 74 74 75 74 74 73 73 73 72 72 73 73 73 72 71 72 72 71 71 73 74
60 57 56 57 58 59 62 61 63 61 62 59 63 65 66 67 68 66 66 65 66 69 71 72 72 72 73 73 73 73 73 74 73 73 72 72 72 71 72 73 73 72 72 72 71 72 73 71 71
60 57 58 58 60 61 61 61 64 63 61 60 62 64 66 66 66 65 65 65 66 68 71 71 72 72 73 73 73 73 73 73 73 72 71 71 71 72 72 73 72 72 72 71 71 71 71 70 70
55 54 56 57 61 61 61 63 62 63 64 64 63 64 65 66 66 66 66 67 68 68 70 71 72 72 72 73 72 72 72 72 71 71 71 71 71 71 71 71 72 71 71 70 70 70 71 70 70
51 53 51 53 55 61 61 60 60 63 66 64 63 64 64 64 65 66 66 68 69 69 70 71 71 71 71 72 72 72 72 71 71 71 71 71 71 70 70 71 70 71 71 70 70 70 70 70 69
49 49 48 47 55 61 57 57 59 60 66 62 62 62 63 63 64 64 65 66 67 68 68 70 71 71 71 71 71 71 71 72 72 71 71 70 71 71 71 70 69 70 71 71 71 70 70 70 68
45 44 45 61 61 60 59 56 58 63 66 62 62 61 62 62 63 63 64 66 67 66 67 69 70 70 70 71 71 71 71 72 71 71 71 70 70 70 71 71 69 69 71 70 71 70 70 68 68
33 33 30 59 59 60 57 53 62 64 65 62 60 61 61 61 62 62 64 65 66 65 66 68 70 69 70 70 71 70 71 71 71 70 70 71 72 71 70 70 69 70 71 70 69 70 70 69 68
32 32 31 37 58 58 57 55 60 64 64 62 60 60 60 60 61 62 62 64 66 65 66 68 69 68 69 70 70 70 70 71 71 70 69 71 72 72 70 71 71 71 71 69 68 70 68 67 67
31 30 27 28 56 57 56 56 60 64 61 62 61 59 60 60 59 61 61 64 65 65 66 67 68 68 68 69 69 69 70 71 71 70 70 71 72 72 71 71 71 71 71 70 68 69 67 67 67
33 29 30 30 29 31 50 55 60 63 62 62 61 59 59 60 61 60 60 62 64 65 66 66 67 68 68 68 68 68 68 70 71 72 71 72 72 72 71 71 70 71 70 70 68 67 67 66 66
34 31 30 30 41 42 54 55 59 61 61 62 62 60 59 59 60 58 59 60 62 64 66 66 68 67 68 69 68 68 69 70 72 72 72 73 73 72 71 71 72 71 68 70 70 68 66 65 66
34 32 30 29 33 55 53 53 57 60 61 62 63 62 60 59 59 57 57 59 62 63 65 66 67 67 69 69 69 69 70 70 71 71 71 73 73 71 71 71 72 70 70 69 70 67 66 65 66
31 32 31 30 21 17 48 39 52 56 58 60 61 63 61 59 59 57 58 59 61 63 65 66 67 67 68 68 68 68 68 68 69 70 71 73 73 71 70 72 72 71 70 70 69 68 67 66 65
31 32 30 27 21 18 28 32 42 54 54 56 59 61 62 61 59 57 58 60 61 63 64 66 67 67 68 68 68 68 68 68 69 70 70 71 73 73 72 72 72 72 71 71 71 70 69 67 67
29 23 20 20 18 15 18 20 19 49 53 54 57 59 62 62 60 59 58 61 61 62 64 66 67 67 68 68 67 68 68 68 68 68 69 69 71 72 72 72 72 72 71 71 71 72 70 70 70
22 20 17 16 15 15 18 17 27 28 37 49 52 58 62 62 62 61 57 59 61 61 63 64 66 66 67 67 67 67 68 68 68 68 69 69 70 71 72 73 72 72 71 72 72 72 72 71 71
21 19 17 13 15 16 22 16 30 41 47 52 54 56 61 62 62 62 59 59 61 61 62 63 65 66 67 68 67 67 68 67 68 69 69 70 70 71 73 73 73 72 72 72 72 71 71 71 71
22 20 23 18 21 16 19 30 32 34 42 52 55 55 59 62 63 62 62 58 61 61 62 63 64 65 66 67 67 67 67 68 67 69 70 70 71 71 72 73 73 72 72 72 73 71 71 72 73
17 20 19 20 16 16 19 28 28 25 28 40 53 55 57 59 63 62 62 59 60 61 61 63 64 64 65 67 67 67 66 67 68 68 69 70 71 71 73 73 73 73 72 72 72 72 72 72 71
17 17 18 20 20 17 22 25 25 27 36 36 53 56 59 59 62 62 62 63 59 60 61 62 64 65 65 66 67 67 68 67 67 67 69 70 71 71 71 73 73 73 72 72 72 72 72 71 72
19 18 19 16 15 19 23 20 24 41 47 51 55 57 60 60 61 62 63 64 63 61 61 61 62 65 65 66 67 67 68 68 68 67 68 69 70 71 71 72 73 73 72 72 72 71 72 71 71

GFSSGP_sfc_dewp_081.txt.gz
Dewpoint
70 69 67 65 59 59 54 51 57 57 56 57 55 54 52 53 55 54 64 63 66 68 71 72 75 74 75 75 74 73 74 75 74 75 73 73 73 73 72 73 74 74 74 74 75 75 74 75 75
68 67 66 65 57 53 54 57 57 58 57 57 59 56 58 57 63 62 61 64 67 68 69 70 76 75 75 75 75 74 74 75 74 74 74 74 73 74 73 73 73 73 74 74 74 74 74 75 74
67 67 64 62 58 52 54 57 59 56 56 57 61 62 61 61 62 60 62 65 67 69 70 72 75 75 75 75 75 74 74 74 74 74 74 73 73 73 73 73 73 74 74 73 74 74 74 73 73
65 65 66 58 54 56 55 59 56 59 60 62 61 60 62 64 60 63 64 66 66 69 69 74 75 75 75 75 75 74 74 74 74 74 73 73 73 73 73 73 73 73 73 73 73 74 73 72 73
66 66 60 57 56 57 58 62 59 58 60 61 61 59 60 65 66 63 65 66 66 68 70 71 76 75 75 75 74 75 74 73 73 74 73 73 73 73 73 73 73 73 73 73 73 73 73 72 72
65 65 57 55 54 58 61 62 61 61 61 61 60 59 62 67 63 63 65 66 66 68 69 71 75 74 74 74 75 74 74 73 74 73 73 74 73 73 73 73 72 73 72 73 73 73 73 73 73
62 61 55 54 56 59 60 63 61 60 60 60 60 59 64 64 62 64 66 67 68 69 70 72 70 74 75 74 74 74 74 74 74 74 73 73 73 73 73 73 72 71 72 73 73 73 74 74 74
64 62 56 56 55 57 62 63 65 62 60 62 61 58 60 64 64 65 67 68 69 70 70 71 72 73 73 73 74 74 74 74 74 74 73 73 73 72 73 73 73 72 72 73 73 73 73 73 73
62 59 55 54 55 59 63 63 65 65 61 60 61 60 62 64 65 65 67 68 69 69 70 71 71 73 74 74 73 75 74 74 74 73 74 73 71 71 70 73 73 72 73 73 72 72 74 73 74
60 58 55 55 58 59 62 62 64 62 61 61 62 63 64 65 64 64 65 66 67 68 70 71 73 72 72 71 74 74 73 73 73 73 74 72 72 72 71 73 72 72 72 72 72 73 73 72 70
60 57 57 57 60 61 61 61 64 62 60 61 62 63 64 63 63 63 64 66 64 68 69 71 73 73 71 73 72 71 73 72 73 74 73 72 71 72 73 72 70 70 72 68 69 69 69 69 69
57 56 56 58 61 60 60 61 62 62 64 63 63 64 63 62 62 63 64 64 64 68 69 71 72 73 73 72 70 72 71 71 70 72 74 72 70 72 72 71 70 71 69 69 70 69 71 71 71
55 55 53 53 59 61 62 60 61 63 65 64 63 64 62 62 63 64 65 65 65 67 70 71 72 73 74 74 73 72 71 70 71 72 73 71 70 71 71 72 70 71 69 69 70 70 70 71 70
49 50 48 48 48 60 58 59 59 65 65 64 62 62 63 63 64 65 65 64 66 67 69 70 71 73 74 73 74 72 71 71 72 71 72 73 71 72 69 70 69 71 72 71 71 71 70 69 69
44 42 54 58 58 58 57 58 58 64 64 63 62 62 63 63 64 64 64 64 65 67 69 70 71 71 73 73 73 71 70 71 71 71 73 72 72 73 73 71 70 71 73 73 73 72 71 68 68
35 34 34 58 59 59 58 54 61 64 62 62 61 61 62 62 63 64 64 63 65 66 68 70 68 70 72 72 72 71 71 71 72 72 72 72 73 73 74 71 69 70 72 71 71 71 69 68 68
33 37 31 52 58 58 56 53 62 64 62 60 60 60 60 62 63 64 64 64 64 66 68 69 70 70 71 72 72 71 72 73 73 71 71 72 73 74 72 71 71 73 71 70 70 69 69 68 68
37 32 29 42 56 55 55 54 61 63 64 60 61 60 60 60 62 64 64 64 64 66 67 69 70 71 72 71 72 70 71 71 72 71 71 72 74 74 72 72 72 72 70 69 68 71 69 69 68
33 31 30 30 38 42 44 47 55 62 61 62 61 60 59 59 62 63 64 64 64 65 66 68 70 72 71 70 68 69 69 70 72 72 73 73 74 74 74 71 73 72 71 71 70 70 70 67 69
35 34 32 31 47 37 52 54 56 59 59 61 62 60 60 60 60 62 63 63 63 64 66 69 70 72 71 70 70 70 71 71 72 73 73 72 73 74 73 73 72 73 70 73 72 71 67 68 69
35 36 32 30 31 54 52 52 56 60 61 62 62 61 60 60 60 61 62 62 63 64 66 68 70 71 72 72 71 71 72 72 71 71 72 73 74 74 74 74 74 73 71 69 72 70 69 65 68
36 34 33 31 27 21 50 31 53 57 59 60 62 62 61 60 61 62 61 61 62 64 66 69 70 71 71 73 71 72 69 68 68 70 72 72 74 74 72 74 74 74 71 72 71 69 68 69 65
34 33 32 31 27 22 35 34 34 55 55 57 58 60 62 61 60 61 61 61 61 63 65 67 70 71 72 72 73 71 71 69 70 70 73 74 75 75 72 73 74 74 72 73 73 72 71 68 66
31 26 24 23 22 19 24 30 38 42 46 50 54 58 60 63 61 61 62 62 62 63 64 66 70 71 72 72 72 73 73 71 70 71 70 70 71 73 75 74 74 75 74 73 73 74 73 71 71
29 26 22 21 19 18 22 28 42 44 48 53 54 54 55 61 62 61 61 61 63 63 64 66 69 70 71 71 71 72 72 73 73 72 70 71 70 70 74 75 75 73 75 74 74 75 75 73 71
29 26 20 21 18 18 23 29 36 32 39 46 55 57 58 59 62 62 61 62 63 64 65 66 68 70 70 70 72 73 73 69 69 72 69 69 69 70 74 75 75 75 75 74 74 72 71 73 72
23 23 21 19 20 17 21 30 35 37 45 51 56 58 59 59 62 62 63 61 63 64 65 66 68 69 69 69 71 72 72 71 70 72 73 70 73 70 73 74 75 75 75 75 75 71 73 74 73
23 21 20 23 22 19 27 28 26 42 49 53 55 57 60 60 60 63 63 62 62 63 64 65 67 68 70 69 70 69 70 71 71 72 73 72 72 73 73 74 74 74 75 75 75 73 73 75 72
20 20 23 23 22 20 23 25 37 48 51 51 54 58 60 62 60 62 64 64 65 62 63 64 65 66 67 68 70 70 69 69 70 70 71 72 73 74 74 74 74 74 74 75 75 75 73 74 74
20 21 21 21 25 25 24 22 44 49 51 51 53 57 59 62 64 64 64 64 63 64 64 63 64 64 66 68 70 70 70 70 69 70 70 72 73 73 74 74 75 74 74 75 75 74 72 73 73

GFSSGP_sfc_dewp_084.txt.gz
Dewpoint
69 64 64 65 60 58 55 52 57 55 56 56 54 51 51 52 54 55 60 62 66 66 69 71 76 75 74 74 73 74 75 75 75 74 73 72 72 72 74 74 74 74 74 75 75 75 75 74 75
63 63 66 66 57 53 55 57 57 57 57 55 54 53 53 58 60 59 60 64 66 66 66 68 76 76 75 74 74 74 75 74 75 75 75 73 74 73 73 74 73 74 74 75 75 75 75 74 75
65 66 64 63 57 53 54 58 56 56 56 56 58 59 59 60 60 57 60 64 65 65 66 71 75 75 75 75 74 75 75 74 75 74 74 73 74 74 73 73 73 74 74 74 75 74 73 73 74
64 64 64 60 55 54 57 57 56 55 58 60 58 59 61 63 57 58 62 63 63 65 66 73 75 75 75 75 74 75 75 74 74 74 74 74 74 74 73 73 74 74 74 74 74 73 73 72 74
64 65 60 57 57 55 59 58 58 57 59 60 59 59 60 60 61 60 62 62 63 63 66 70 76 75 75 75 75 75 74 74 74 74 74 73 73 73 73 73 73 73 73 73 73 74 73 73 73
64 64 58 54 55 57 60 62 58 58 60 60 59 58 62 62 59 61 62 62 62 63 64 69 75 75 75 75 75 75 74 74 74 73 74 74 73 73 72 73 73 73 73 73 73 73 73 73 74
62 62 55 54 56 58 60 63 61 60 59 60 60 58 61 58 59 61 62 62 63 64 65 68 69 73 74 75 74 74 74 74 74 74 74 73 73 73 73 72 72 73 73 73 74 74 74 74 74
63 62 54 55 55 58 62 64 64 62 60 61 60 57 57 58 60 61 62 62 64 64 65 67 67 69 71 71 74 74 74 74 74 74 74 73 73 73 72 74 73 73 73 73 73 74 74 74 74
62 60 55 53 54 58 63 62 65 65 61 60 60 58 58 58 60 61 62 62 64 64 65 65 68 70 72 71 73 74 75 74 74 74 73 72 67 68 70 74 73 73 73 73 72 75 75 75 74
60 60 53 53 56 59 62 61 62 62 60 60 60 59 59 59 60 60 60 61 63 63 63 65 68 69 69 66 72 73 71 69 68 68 71 69 69 71 68 71 73 73 73 73 73 73 72 72 67
59 56 55 55 56 59 60 61 61 60 59 61 60 60 58 59 60 60 60 61 61 63 64 66 68 70 68 69 67 68 67 68 70 71 70 69 68 69 65 67 68 69 72 66 69 69 67 68 64
56 56 54 55 57 56 57 61 60 61 63 63 62 60 58 58 58 59 59 61 61 63 65 66 68 70 68 67 66 66 66 65 66 69 71 71 67 67 66 66 69 69 66 68 69 67 70 70 69
55 53 51 50 55 56 60 58 60 60 63 64 63 59 58 58 58 59 60 60 61 63 64 66 69 71 70 71 67 67 67 64 66 67 70 67 66 68 67 67 66 67 67 67 68 69 69 69 68
51 51 48 47 45 57 57 58 59 63 64 62 60 58 57 57 58 60 60 60 61 64 65 67 69 71 70 71 72 74 68 68 66 66 69 71 68 69 68 68 68 68 68 68 68 70 68 67 67
48 45 49 49 51 56 57 56 58 64 64 62 58 58 58 58 59 60 60 60 62 63 66 67 68 69 71 72 73 75 68 67 67 67 71 72 71 73 71 68 68 68 71 73 71 71 68 65 65
43 42 40 52 55 57 56 55 61 64 64 61 58 58 59 59 59 60 59 58 62 63 67 68 65 67 69 70 71 69 68 67 68 67 69 71 73 73 73 69 67 69 70 69 68 68 65 64 65
41 40 38 52 56 55 55 56 60 63 62 61 59 58 58 59 59 60 59 59 60 64 67 68 68 67 70 72 70 70 72 70 71 69 68 72 72 73 71 68 69 72 68 68 67 67 67 65 64
39 38 35 46 53 52 49 54 60 62 60 60 59 59 58 57 56 61 61 60 59 63 66 68 68 69 71 71 72 69 69 70 70 69 69 73 72 72 72 70 71 70 67 67 67 69 67 66 66
38 37 37 46 51 43 42 50 59 62 62 60 59 59 57 54 58 61 62 62 60 62 64 68 69 71 70 69 67 69 68 69 69 70 72 72 73 73 74 69 70 70 68 71 71 69 69 64 67
38 35 32 37 37 33 39 41 56 61 60 61 61 59 57 55 58 61 62 62 61 61 63 67 69 71 71 68 69 69 69 69 70 71 73 72 72 73 73 73 69 71 68 72 72 71 65 64 66
37 35 32 33 34 40 43 46 49 56 60 60 60 61 59 56 56 61 62 62 62 60 64 67 70 71 72 71 71 72 72 72 71 71 70 71 73 73 73 73 72 73 71 67 72 71 69 62 67
33 38 34 30 28 35 42 45 52 53 57 59 60 61 60 60 58 59 61 62 62 61 63 67 70 71 71 73 72 73 67 66 66 68 68 71 73 73 73 74 73 75 70 71 71 69 69 69 62
31 37 36 32 29 25 31 33 48 55 54 57 58 61 61 60 60 60 60 62 62 63 63 64 70 72 72 73 73 70 72 66 67 66 73 74 75 74 72 73 74 74 71 73 72 72 72 66 64
35 33 33 32 28 25 26 30 39 45 50 51 53 55 60 61 61 61 61 62 62 62 64 65 69 73 73 73 74 74 72 71 67 69 68 68 69 71 74 73 74 74 73 73 72 74 73 71 69
32 27 25 28 24 21 26 29 42 44 44 50 53 55 54 61 62 61 62 61 62 62 64 65 69 72 72 72 72 73 73 73 73 71 69 69 67 67 75 75 76 72 74 73 73 73 72 72 70
30 25 20 26 21 20 27 32 35 42 48 54 56 57 57 56 60 62 62 62 63 63 64 66 67 71 72 72 73 73 74 70 69 69 66 67 67 68 71 75 73 73 73 74 74 70 69 71 69
29 27 22 19 21 18 23 35 37 43 49 53 58 59 60 59 58 61 63 62 63 64 65 67 68 71 71 70 72 73 73 73 69 70 71 67 70 67 72 73 71 72 73 75 75 69 72 72 72
27 28 22 20 24 22 23 34 33 44 49 54 57 59 61 61 60 62 62 63 63 63 64 66 68 69 71 70 70 71 72 73 73 72 72 71 69 71 71 73 73 72 74 74 75 71 73 73 69
22 23 24 20 21 19 24 26 40 48 51 53 56 58 60 62 63 62 64 64 64 63 64 64 66 68 69 70 70 70 70 71 72 71 71 71 71 72 74 75 75 72 73 74 75 73 72 72 72
22 25 26 22 26 23 21 29 44 49 51 53 55 56 57 59 62 62 64 65 66 65 64 64 64 65 67 69 71 70 71 71 70 71 70 71 72 72 73 75 75 74 72 73 74 73 70 72 72

GFSSGP_sfc_dewp_087.txt.gz
Dewpoint
69 64 64 65 62 58 55 55 54 55 54 52 49 47 50 57 56 54 61 63 64 64 68 71 75 74 74 74 75 75 74 75 74 73 72 72 72 74 73 74 74 75 75 75 75 75 74 75 74
62 60 64 66 60 54 55 56 55 55 53 52 50 50 54 56 58 57 59 63 63 63 65 69 76 75 74 74 74 75 74 74 75 74 74 74 73 73 73 74 74 74 75 75 74 74 74 75 75
67 62 66 62 56 55 56 57 54 54 53 52 53 58 58 56 56 58 61 63 63 63 65 71 75 75 74 74 74 75 74 74 74 74 73 74 74 73 74 73 73 74 74 74 73 73 73 74 74
62 65 64 60 54 55 56 54 53 55 57 55 57 58 59 57 56 60 61 62 61 63 66 73 75 74 75 74 74 75 74 74 74 74 74 73 74 73 73 74 74 74 74 73 74 73 74 74 74
62 64 62 57 56 56 55 55 55 54 55 56 58 57 56 56 58 60 61 60 61 65 66 70 76 75 74 74 75 74 74 74 74 74 74 74 73 73 73 73 74 74 74 74 73 72 74 74 74
65 65 59 55 56 56 58 62 57 57 58 58 58 58 57 58 58 60 59 60 60 61 65 69 75 75 75 74 75 74 74 74 74 74 74 73 73 73 74 73 73 73 73 72 73 73 74 75 74
62 62 56 55 56 58 59 64 62 58 57 58 59 57 58 56 59 59 59 60 60 60 63 68 69 73 75 74 74 74 74 74 74 73 74 73 73 73 73 73 73 73 73 74 73 74 74 74 74
62 63 56 54 57 58 62 64 65 61 60 60 59 54 55 57 59 58 58 59 61 60 62 68 65 67 70 71 74 74 74 74 74 74 73 74 73 73 72 74 74 73 72 73 73 74 74 74 74
61 60 54 53 55 59 62 61 65 65 60 59 59 54 55 57 58 58 58 61 60 62 62 65 66 71 71 71 73 73 73 74 74 73 73 73 70 68 70 74 74 73 72 72 72 74 74 74 73
59 60 53 54 56 59 62 61 63 61 59 58 57 54 56 57 57 56 57 58 60 60 60 67 68 67 70 64 72 72 71 70 69 67 72 74 71 68 67 72 73 73 73 73 73 73 73 73 67
57 55 53 54 56 58 60 61 61 61 59 59 56 54 55 57 57 56 56 57 58 59 63 65 68 69 66 67 67 69 70 64 65 72 74 70 67 66 64 69 69 70 73 67 71 72 71 71 61
56 55 53 53 55 55 57 60 59 59 63 61 59 55 55 56 55 54 55 56 58 60 63 65 64 66 65 64 64 62 62 62 67 69 70 72 65 64 69 70 68 71 72 69 70 65 69 68 66
55 53 49 51 53 56 58 58 59 61 62 62 60 55 55 55 54 55 56 57 59 60 61 63 66 69 68 74 72 67 63 63 65 67 70 72 68 66 65 67 68 68 68 69 70 70 69 66 69
52 52 48 45 48 56 57 57 58 61 62 61 60 55 54 54 53 55 56 58 60 61 61 64 66 68 68 72 74 69 68 63 63 65 67 70 70 73 66 70 70 71 72 72 72 72 67 68 65
49 47 45 45 49 54 55 55 58 62 61 59 57 55 54 53 54 55 56 58 60 61 63 64 66 66 69 71 72 72 63 68 65 67 70 70 70 72 71 70 71 70 70 71 69 71 68 62 66
47 46 45 46 53 54 55 57 60 63 61 57 55 54 53 53 53 56 56 56 60 61 64 65 62 65 68 71 71 74 70 71 72 66 69 71 72 72 75 70 71 67 71 72 72 68 67 67 69
44 41 45 48 53 53 55 57 59 62 61 56 55 54 53 54 55 56 56 56 59 62 66 65 65 65 67 71 70 74 72 74 74 72 72 71 71 71 74 71 70 71 71 69 69 68 69 68 67
36 38 42 46 50 49 52 56 59 61 61 60 55 56 54 54 55 56 55 55 58 63 66 67 65 68 70 69 73 74 69 73 74 73 73 71 71 71 75 74 70 72 70 70 72 73 72 68 68
33 35 38 51 47 47 49 53 60 61 60 59 59 57 57 55 55 55 57 56 57 61 65 67 67 70 69 67 66 73 68 74 75 75 72 72 73 72 74 74 70 73 68 71 69 67 69 63 64
35 33 35 46 45 42 44 50 57 59 57 60 59 58 58 56 53 57 59 56 56 60 64 68 69 71 71 68 70 67 72 73 68 70 71 74 71 72 72 74 69 72 70 71 71 71 70 65 66
36 34 35 36 38 35 37 48 55 59 59 59 60 59 59 56 52 60 60 59 57 60 62 67 70 72 71 72 69 70 72 73 67 70 68 70 71 71 73 72 73 72 74 67 72 70 70 68 61
32 33 32 33 36 34 39 39 50 56 57 59 59 60 59 58 56 59 62 62 58 58 61 67 70 71 71 73 73 75 68 67 70 72 73 70 71 72 71 72 72 74 73 75 71 68 72 71 63
27 35 33 31 31 34 37 45 53 54 56 57 60 61 60 60 56 59 60 62 60 58 61 65 70 72 74 74 76 70 72 70 71 72 74 74 74 72 70 72 73 72 72 72 74 73 73 66 65
33 33 36 33 29 26 27 35 52 48 51 53 57 60 60 61 61 59 61 63 62 58 60 64 70 73 73 73 73 74 72 72 71 70 68 67 68 70 72 72 74 74 73 73 71 73 73 73 72
34 31 30 28 26 22 24 32 48 47 48 50 52 54 57 61 62 61 62 61 63 60 60 63 69 72 72 72 72 73 73 72 72 71 69 70 69 68 74 74 75 72 74 72 73 75 74 72 70
32 29 25 27 22 19 24 35 39 46 51 53 56 56 56 55 59 63 61 62 63 63 61 63 68 72 72 72 74 75 74 70 68 70 72 67 72 66 76 74 73 73 72 72 74 71 69 73 70
31 27 20 18 20 17 28 39 44 48 51 56 58 60 61 56 58 61 63 65 63 63 63 64 68 71 72 71 73 75 75 74 70 74 71 69 71 71 71 71 72 72 72 73 74 71 72 73 72
27 28 22 20 24 21 30 36 37 46 51 55 58 59 62 62 58 61 63 65 68 63 63 64 66 69 71 71 71 71 72 74 73 71 72 71 71 70 72 72 72 72 72 72 74 74 74 73 70
26 26 26 21 20 20 27 33 44 49 53 56 56 57 59 63 65 66 68 68 69 63 64 64 65 67 69 71 71 72 71 72 73 72 72 72 71 72 72 74 72 73 72 73 75 76 72 73 73
23 25 26 23 26 20 26 36 47 48 53 56 55 56 58 60 62 63 65 67 68 68 67 69 65 64 67 69 71 71 71 71 71 72 72 73 74 72 72 72 73 73 72 74 75 72 69 71 71

GFSSGP_sfc_dewp_090.txt.gz
Dewpoint
69 65 65 65 60 59 56 54 56 52 49 46 50 53 55 55 54 56 63 64 65 67 70 71 75 75 74 75 75 75 75 74 74 73 73 73 74 74 75 76 75 75 75 75 75 75 74 75 74
64 61 63 65 59 55 55 56 54 54 49 49 54 54 54 55 58 61 62 63 65 65 66 69 76 75 74 75 75 75 75 75 74 75 74 73 74 73 75 74 75 75 75 75 75 75 75 74 74
69 63 65 62 58 55 55 56 54 50 48 52 57 57 53 55 58 60 62 63 62 64 68 72 76 76 75 75 74 75 75 75 74 74 75 74 75 74 73 74 74 75 75 75 74 74 74 74 73
64 67 67 60 57 55 56 56 53 51 52 55 55 54 54 57 58 60 63 61 63 67 70 75 76 75 74 75 74 74 74 74 74 74 74 74 74 74 74 74 74 74 74 74 74 74 74 72 71
63 65 60 58 57 53 57 55 54 53 56 58 53 52 53 58 59 60 62 63 65 66 69 72 76 75 74 74 75 74 75 74 74 75 74 74 74 74 74 74 74 74 74 73 74 74 74 73 72
64 65 58 56 56 56 60 64 58 56 57 56 51 52 54 58 57 60 60 62 64 65 67 70 75 75 75 75 74 74 74 74 75 75 73 74 75 74 74 74 74 74 74 74 74 74 75 73 72
60 62 58 56 56 57 60 65 64 57 57 56 54 52 55 56 57 60 62 64 61 64 67 70 71 74 75 75 74 74 74 74 74 74 74 74 75 74 73 75 73 73 73 73 74 74 74 73 73
61 63 57 58 57 59 61 64 66 63 60 59 55 53 54 56 56 58 59 61 61 63 65 68 69 70 71 71 75 74 74 74 74 74 73 73 73 73 73 75 74 73 74 74 74 74 73 73 72
62 60 56 54 58 60 62 61 66 66 61 61 59 53 55 55 56 58 57 59 63 65 65 68 68 71 73 73 73 74 74 74 74 74 73 73 71 70 71 75 74 73 73 74 74 71 72 72 72
59 59 53 56 58 60 61 62 64 64 63 57 53 53 55 54 55 59 57 59 60 63 65 67 68 69 70 67 73 72 71 71 71 72 72 75 72 70 69 73 74 73 74 74 72 68 66 71 71
62 56 54 56 58 61 60 61 62 62 60 53 52 53 54 53 54 58 55 58 56 64 67 69 71 71 68 70 72 71 71 71 73 73 75 73 68 69 69 73 72 72 74 72 73 69 69 69 69
56 58 53 55 58 58 58 60 60 61 64 58 54 54 53 53 52 55 56 58 63 66 68 66 68 70 70 69 72 70 71 69 69 72 68 75 73 72 71 73 72 69 72 69 72 72 72 72 68
53 54 54 54 55 58 58 58 58 62 66 62 54 54 53 52 52 54 55 57 61 63 63 64 70 73 74 75 72 69 67 69 68 72 73 71 73 71 70 72 70 73 72 72 73 72 71 71 67
58 58 50 50 55 57 58 57 58 61 62 59 54 53 52 51 51 54 57 57 60 64 63 66 68 72 71 76 75 69 68 69 69 70 72 75 75 76 73 73 70 72 72 73 69 73 69 72 69
58 54 47 45 56 57 58 57 59 61 60 59 55 53 52 51 52 53 57 58 59 61 65 67 67 67 73 76 76 75 70 69 69 70 73 73 74 72 70 73 72 72 73 73 72 72 71 71 69
48 46 43 45 53 56 55 57 60 61 59 57 54 53 51 51 51 54 56 57 60 63 67 67 62 65 71 74 76 74 73 72 73 71 73 75 75 75 76 73 72 75 73 74 71 72 71 67 70
44 44 44 45 53 54 55 56 59 62 57 56 54 52 51 52 53 55 55 58 60 66 67 68 67 67 72 75 76 71 73 71 73 71 73 75 75 75 74 72 73 76 74 69 72 67 72 71 70
38 40 44 47 57 55 55 56 59 61 56 55 54 52 52 52 53 54 54 56 60 65 68 71 67 72 75 73 75 73 74 72 74 74 73 76 75 74 73 74 74 71 73 72 72 74 68 71 67
35 36 42 47 52 52 54 56 57 59 56 54 55 54 53 54 55 55 54 55 59 65 68 70 71 74 73 72 72 73 71 75 76 72 72 76 76 74 73 75 75 73 71 73 75 73 73 71 71
34 32 45 48 47 57 55 55 57 59 59 59 59 55 56 55 55 55 55 54 57 65 68 71 73 74 74 73 75 74 74 76 74 74 75 75 75 75 73 72 73 74 73 75 75 74 71 72 66
28 31 42 44 47 53 55 57 55 58 60 60 58 58 57 57 55 56 57 57 57 64 67 71 73 74 74 76 74 71 72 71 72 74 73 74 75 75 76 75 72 75 76 74 75 74 72 69 72
24 33 40 47 37 39 47 49 55 57 59 59 59 59 59 57 59 57 58 59 57 63 66 71 73 73 73 76 76 74 71 70 73 74 72 74 76 75 75 76 73 75 73 72 75 74 70 71 71
27 35 39 39 33 30 33 45 53 51 54 57 59 59 59 59 57 57 59 61 59 62 63 69 73 75 73 75 77 74 74 72 71 73 73 76 76 76 75 76 75 74 75 73 74 75 76 75 71
30 28 35 35 30 28 37 36 52 53 53 55 57 58 58 59 57 59 61 63 63 59 62 68 73 74 75 75 75 75 74 71 73 75 75 74 74 74 76 75 77 77 73 74 74 76 76 76 76
28 28 30 29 26 24 33 35 52 55 57 57 59 58 59 60 60 58 61 62 63 59 63 68 72 73 74 74 74 75 74 75 71 72 69 72 71 71 75 77 78 76 76 75 76 78 76 76 75
27 30 28 28 24 22 27 40 46 51 59 58 57 58 62 62 62 59 60 62 64 64 63 67 72 73 74 74 75 76 76 76 72 74 74 70 74 73 76 76 77 77 76 76 77 76 75 76 75
27 28 27 24 24 21 35 42 48 53 55 57 58 61 62 63 62 62 61 63 64 63 62 66 72 73 73 73 75 76 76 76 73 75 76 75 75 73 73 74 76 77 76 76 77 75 76 76 76
31 28 26 26 27 24 36 41 44 50 54 56 58 59 62 64 66 66 66 64 65 67 68 67 70 72 74 73 74 74 75 76 76 77 74 77 73 70 72 72 72 75 76 75 76 76 75 75 75
28 28 28 25 23 22 33 38 47 52 55 56 57 58 59 61 64 66 68 68 69 69 67 68 69 71 72 73 74 74 74 75 76 75 76 76 77 73 72 65 66 74 76 76 77 75 73 74 75
25 27 27 25 31 34 44 46 52 53 55 56 56 57 58 59 60 63 64 66 67 66 68 69 70 70 70 72 74 74 74 74 74 75 75 77 77 77 75 73 74 75 76 75 75 75 73 74 74

GFSSGP_sfc_dewp_093.txt.gz
Dewpoint
69 68 66 64 59 58 56 55 57 54 52 53 55 55 55 55 56 56 65 68 70 71 73 74 76 75 74 74 75 74 73 73 73 73 73 75 75 75 76 75 75 75 75 75 75 75 75 73 74
66 64 65 65 58 54 55 57 54 55 55 53 56 57 58 59 61 63 64 67 69 71 71 73 75 75 76 75 76 75 75 74 75 74 74 74 74 75 75 75 75 75 76 75 75 74 74 74 74
69 66 63 62 58 54 54 57 55 55 57 53 54 57 58 59 61 62 65 67 67 67 71 72 75 76 75 75 75 75 75 74 74 74 74 74 74 74 75 75 75 74 75 75 74 73 74 73 73
67 67 66 58 57 59 57 55 53 55 53 54 55 56 59 61 61 62 64 64 66 69 72 75 75 75 75 75 74 75 75 75 74 74 74 74 74 74 75 75 75 74 74 74 74 73 72 73 73
65 65 60 54 55 56 60 60 57 56 53 53 54 56 58 61 62 62 65 68 70 71 73 73 76 76 75 74 75 75 75 74 74 75 74 74 74 74 74 74 74 74 74 74 74 73 72 72 72
63 66 55 54 57 59 62 63 58 54 53 53 55 56 59 61 61 63 65 66 69 70 72 73 75 75 75 75 75 75 75 74 75 74 74 74 74 74 74 74 74 73 73 74 74 74 73 71 71
60 61 58 58 59 58 60 63 64 54 51 53 56 54 57 60 62 64 64 66 68 69 71 72 73 74 75 74 75 75 74 74 74 74 74 75 74 74 74 73 74 73 74 74 74 73 73 72 72
63 62 59 60 58 59 63 64 64 64 58 54 56 54 55 60 61 62 65 67 67 69 71 71 73 73 73 73 75 74 74 74 74 74 73 74 74 74 74 74 75 73 73 73 73 73 73 71 71
62 59 56 57 58 61 64 60 65 66 62 56 54 55 57 60 61 60 63 64 67 67 68 70 70 72 72 73 73 74 74 74 74 74 73 74 70 71 72 74 74 73 73 74 74 73 73 72 71
62 58 57 59 60 61 61 61 62 62 62 63 54 56 55 59 59 60 60 64 66 67 66 68 70 71 71 70 72 73 72 72 73 73 71 71 70 70 71 72 73 73 73 73 69 69 71 71 71
63 59 57 59 60 61 60 61 63 62 60 55 53 54 54 57 57 58 60 62 65 67 69 68 69 69 69 71 72 71 71 71 70 71 71 70 69 70 72 72 72 72 73 71 67 71 69 68 68
56 61 58 60 60 59 59 62 62 62 62 59 54 54 55 57 56 56 59 63 65 66 68 69 68 70 70 71 73 69 71 70 70 71 70 69 69 65 69 70 71 70 68 69 69 71 70 67 66
61 57 57 59 59 59 59 59 61 63 65 65 54 54 53 57 57 56 63 64 64 64 66 67 67 71 69 70 70 70 70 68 69 69 68 70 70 68 70 71 67 70 70 70 70 70 71 71 65
52 53 57 57 58 59 57 58 59 62 63 62 53 53 52 53 57 59 62 64 63 64 66 67 69 70 71 71 67 67 68 68 69 68 70 71 70 68 70 70 70 71 70 66 70 70 70 68 64
52 50 56 56 57 56 57 57 59 62 61 53 53 52 52 52 56 58 61 63 63 63 66 65 67 68 71 71 71 70 68 68 68 70 70 71 69 71 71 70 70 71 71 71 71 70 71 67 66
50 57 53 56 57 57 57 57 60 62 62 54 53 52 52 52 57 58 57 63 62 64 64 63 66 69 70 70 72 68 69 69 68 70 71 71 70 72 72 70 70 71 72 72 68 70 69 65 65
48 47 50 54 57 56 58 57 59 61 60 56 52 52 51 51 55 58 57 59 62 64 65 64 64 68 71 71 71 70 67 69 71 71 71 70 72 72 72 70 70 72 69 69 69 66 67 67 66
36 43 47 50 58 56 57 56 60 61 58 55 53 52 51 51 53 56 58 60 63 64 65 63 65 70 70 71 70 71 70 70 71 71 72 73 72 71 71 71 72 70 68 69 70 67 67 66 64
35 40 46 53 53 55 57 57 59 60 57 54 53 51 51 51 53 54 58 62 64 64 65 66 66 70 68 71 70 69 69 71 71 71 70 72 71 69 68 71 71 72 69 68 68 70 67 68 67
31 34 51 53 55 55 58 57 58 59 56 54 55 53 52 52 53 54 57 61 63 65 65 69 68 70 68 69 71 71 71 72 72 71 71 72 72 72 72 70 71 70 70 70 70 69 69 68 64
26 27 47 48 53 57 54 54 57 59 57 58 58 56 54 54 53 54 53 61 63 65 67 70 70 69 70 70 71 71 70 68 71 70 72 72 72 72 71 72 70 69 70 69 70 67 65 64 68
20 28 39 49 48 46 51 47 51 56 58 58 57 58 57 55 56 54 53 59 62 64 67 71 70 69 69 72 69 69 65 65 69 71 72 71 71 73 73 69 68 72 70 69 71 70 69 67 66
18 42 44 45 43 49 49 49 53 56 56 57 57 58 58 56 57 54 57 57 62 64 66 70 70 70 68 70 71 69 68 70 69 71 71 72 72 72 72 73 72 70 70 69 69 71 70 71 70
21 31 39 43 44 37 45 49 51 54 56 59 59 59 59 58 59 58 58 59 62 63 66 68 71 70 70 71 71 70 69 68 69 69 71 71 72 71 72 73 72 72 69 67 71 70 71 70 70
25 28 28 35 35 33 36 46 50 55 56 58 58 59 60 61 59 58 61 60 60 61 66 68 70 71 72 71 71 70 71 69 69 69 69 70 71 71 70 72 73 73 71 71 72 72 70 71 70
26 27 28 31 28 27 35 46 48 54 55 60 63 63 63 63 62 61 60 60 61 60 64 67 69 71 71 71 71 71 71 71 69 70 70 71 71 70 73 73 73 73 73 72 73 70 71 70 70
30 27 27 28 28 26 42 47 51 52 53 58 61 61 62 65 67 65 63 61 61 60 64 67 69 70 70 72 72 73 72 71 71 71 72 70 71 74 74 73 73 73 73 72 72 71 72 70 70
39 32 26 28 27 29 42 45 48 53 55 59 60 61 62 64 66 67 67 68 68 69 67 68 70 70 71 70 72 73 73 72 72 72 71 71 71 71 71 71 72 72 73 72 72 71 71 71 72
31 31 34 29 29 30 39 44 56 55 56 57 58 59 60 62 64 66 66 67 68 69 69 68 68 69 69 71 71 72 73 73 73 72 73 71 70 71 70 69 68 69 71 73 72 72 71 70 71
29 29 30 29 28 38 43 46 57 56 56 57 57 58 60 61 62 64 65 66 66 67 69 69 69 69 70 70 70 71 73 73 72 73 73 72 71 71 69 65 63 64 71 73 73 72 71 70 70

GFSSGP_sfc_dewp_096.txt.gz
Dewpoint
69 68 67 64 59 59 55 54 57 53 53 53 54 55 56 57 56 53 67 69 71 72 73 74 76 74 74 75 74 73 73 73 73 75 74 75 75 75 75 75 75 75 74 75 74 74 74 73 73
68 66 66 65 57 54 53 57 53 54 56 58 58 58 58 59 62 65 67 70 72 72 73 74 75 75 74 76 74 74 75 75 73 74 74 75 75 75 75 75 75 75 75 75 74 74 74 73 72
66 64 63 61 58 53 53 56 53 55 56 55 57 60 59 61 64 65 69 71 71 71 72 72 76 76 75 75 75 74 74 75 74 74 74 74 74 75 75 75 75 75 75 74 74 74 74 73 72
66 68 65 57 55 57 57 57 53 54 56 57 58 59 61 62 63 67 69 69 69 71 72 74 75 75 75 75 75 75 74 75 74 74 74 74 74 74 74 74 74 74 74 74 73 73 73 72 72
67 66 60 55 55 57 60 55 53 53 57 58 59 58 59 62 66 67 67 67 70 72 73 73 76 75 74 74 74 74 74 74 75 74 74 74 74 74 74 74 74 74 74 74 72 72 73 73 74
63 64 55 53 55 59 60 60 54 54 57 59 59 58 59 63 64 65 66 69 70 72 73 73 75 75 75 75 75 75 74 75 74 74 74 74 74 74 74 74 74 73 74 74 74 73 73 73 73
61 60 56 58 59 58 59 63 56 56 57 57 58 58 60 61 65 67 69 70 71 73 72 72 73 74 75 74 75 75 74 74 74 74 74 74 74 74 74 74 73 73 73 74 73 73 72 72 73
63 63 58 58 58 58 63 63 64 58 56 59 59 57 58 62 66 67 69 70 70 71 72 72 73 73 72 73 74 74 74 74 74 74 74 74 74 74 74 75 74 73 73 73 73 72 72 72 72
63 60 57 58 58 59 63 59 64 65 56 56 57 59 61 64 65 66 67 69 69 71 71 72 72 72 72 72 73 74 74 74 74 73 74 73 71 71 72 74 75 74 73 74 72 72 72 71 71
61 59 57 60 59 60 61 61 62 62 58 58 58 60 61 62 64 65 66 67 68 69 70 71 71 72 72 72 72 72 72 71 72 71 71 71 70 71 72 73 74 73 74 71 70 71 72 71 71
61 59 60 59 60 61 60 61 63 62 59 56 56 59 60 61 63 63 65 65 67 68 69 70 70 71 71 72 72 72 72 71 71 69 70 70 70 71 72 71 71 72 72 68 69 70 69 67 68
55 57 61 61 62 60 58 61 61 61 61 59 58 59 60 59 60 63 63 65 66 67 68 69 69 70 69 71 72 71 71 69 69 70 71 68 68 69 69 69 69 68 67 68 68 69 70 71 69
55 56 62 62 60 60 61 61 60 59 61 59 55 58 58 58 60 61 64 65 66 67 67 68 69 69 70 71 70 69 70 69 69 69 69 69 65 68 69 69 67 70 69 68 68 69 69 69 69
58 60 61 62 59 60 60 60 57 60 63 54 54 56 56 57 58 62 63 65 65 66 67 67 69 69 69 69 69 69 69 68 68 67 68 70 67 68 67 69 66 69 68 65 68 68 67 69 65
56 54 58 59 60 58 59 58 56 59 62 53 53 54 57 57 62 63 63 64 65 65 66 67 68 70 71 69 68 68 68 68 69 70 70 69 69 68 69 69 69 69 70 70 69 69 70 69 65
52 55 53 59 58 57 59 56 58 60 62 54 53 53 53 58 61 62 63 63 64 65 66 67 66 69 70 70 69 68 68 68 69 71 71 69 69 69 70 69 69 69 70 70 69 69 68 66 64
49 49 52 57 59 56 58 57 59 62 61 52 52 52 55 58 60 62 63 63 65 64 64 66 68 69 69 71 69 68 69 69 70 70 71 71 72 72 71 69 69 70 70 70 68 67 67 66 66
29 47 51 54 59 57 57 58 59 60 60 52 52 52 54 56 58 61 63 63 64 64 63 67 67 69 70 70 70 70 69 69 71 71 72 72 72 70 71 70 71 70 68 69 69 67 67 65 63
27 29 51 55 59 56 57 58 59 60 60 57 53 52 52 55 57 59 62 62 63 64 62 64 68 69 70 69 69 69 69 70 70 71 72 72 71 68 70 70 71 70 68 68 68 69 66 67 66
28 35 52 55 57 57 55 57 58 60 60 58 54 52 51 53 55 59 61 62 62 64 63 66 68 68 69 69 70 70 70 70 71 70 70 72 70 69 70 69 69 69 70 70 69 68 67 66 64
22 24 50 52 52 53 53 54 57 59 59 57 56 54 51 52 53 59 61 61 62 64 66 65 68 66 68 70 70 70 68 68 69 70 70 71 71 72 69 70 70 69 69 68 69 66 64 63 66
19 24 46 54 51 49 51 47 52 55 57 56 57 58 54 52 54 59 61 62 61 64 67 67 68 68 70 70 68 67 66 66 68 69 71 71 72 72 71 71 69 71 69 68 70 68 68 67 67
17 23 45 50 48 50 50 46 51 54 55 56 58 58 57 54 54 55 60 62 63 65 68 67 68 68 70 70 68 67 64 66 69 70 70 71 70 72 72 68 69 70 69 68 68 70 69 70 69
19 43 45 49 45 41 47 48 51 53 55 56 57 58 58 57 58 55 58 62 63 64 68 67 67 66 68 70 69 67 67 68 68 68 70 70 71 71 72 72 71 69 69 68 69 68 70 69 70
21 28 32 38 38 35 46 48 48 54 56 57 57 58 62 64 60 59 58 61 63 64 67 69 67 67 68 69 70 69 69 68 69 68 70 69 70 71 70 72 71 70 68 67 70 71 69 70 69
24 27 28 32 31 31 45 44 47 56 59 59 61 62 63 63 64 63 62 61 62 64 66 69 69 67 70 69 70 70 70 70 70 69 69 70 70 71 71 72 72 72 71 71 71 70 71 70 70
22 28 28 30 31 33 46 48 52 56 58 62 61 61 62 63 64 64 64 64 61 63 66 67 69 69 69 71 70 70 71 70 68 69 69 69 70 71 72 72 72 72 72 71 72 71 71 71 69
26 31 26 27 26 33 44 45 47 51 57 60 60 60 63 64 66 66 67 67 68 68 67 68 69 69 69 71 70 71 71 70 70 71 71 71 71 72 72 72 72 72 72 72 72 71 71 70 70
31 30 29 28 29 37 40 46 56 56 58 59 60 61 62 63 65 66 67 68 68 69 68 69 69 69 69 70 69 70 72 71 71 71 71 71 71 71 71 71 71 71 72 72 71 71 71 69 70
31 29 29 27 27 40 42 48 58 58 58 58 59 60 61 62 63 65 66 67 67 68 69 69 69 69 69 69 70 70 71 71 71 72 72 71 70 70 69 69 69 68 69 71 72 71 71 70 69

GFSSGP_sfc_dewp_099.txt.gz
Dewpoint
70 69 67 65 58 58 54 54 57 53 51 54 54 55 56 57 56 50 67 69 71 72 73 73 75 74 74 73 73 73 73 74 74 75 74 75 75 74 75 75 74 74 75 73 74 73 73 74 73
68 67 67 65 56 52 53 56 54 54 54 55 57 58 58 60 64 66 67 70 72 73 73 74 75 74 75 73 73 73 73 72 74 74 74 75 75 75 74 75 75 75 75 74 74 73 73 73 73
67 65 63 61 57 53 53 56 56 56 56 56 58 60 61 62 65 66 69 71 72 72 73 72 74 75 75 75 75 74 74 73 74 74 74 75 75 74 74 75 75 75 74 74 74 73 72 72 72
66 67 64 57 55 56 56 55 55 56 56 58 59 59 62 65 65 68 71 71 71 72 72 75 75 75 75 75 74 74 74 74 74 74 74 74 74 74 75 75 74 74 74 74 73 73 72 71 72
67 66 59 57 56 57 59 56 55 56 58 58 58 58 60 65 69 69 70 70 71 71 72 73 76 75 74 75 74 74 74 74 74 74 74 74 74 74 74 74 74 74 73 73 73 73 72 72 73
64 62 55 53 54 60 57 58 57 58 58 59 59 59 61 67 67 68 69 70 72 72 72 73 75 74 74 74 74 74 74 74 74 74 73 73 74 74 74 74 74 74 73 73 73 73 72 74 74
62 58 55 56 57 57 57 60 58 58 57 58 59 57 63 65 66 66 69 70 72 72 73 73 73 73 74 74 74 74 74 74 74 74 74 74 74 74 74 73 74 74 74 73 72 72 72 72 73
65 62 57 56 56 57 62 62 63 59 57 59 59 58 60 63 66 69 69 70 72 72 72 72 72 73 73 73 74 74 74 73 73 74 74 74 74 74 74 74 75 73 73 73 72 72 72 72 73
64 59 56 57 58 58 62 58 63 64 58 58 60 60 62 66 68 69 69 69 70 71 71 71 72 72 72 72 72 73 74 73 73 73 74 73 71 72 72 73 74 73 74 73 73 72 72 72 72
60 58 58 59 59 59 61 58 62 59 57 58 59 63 65 66 67 67 67 68 69 70 71 71 71 71 72 72 72 71 72 71 72 72 70 71 71 71 72 73 74 74 72 72 71 73 71 70 70
62 59 59 59 60 60 60 60 63 57 57 58 59 63 64 65 66 66 67 67 68 69 71 70 71 71 72 72 72 72 71 70 70 70 70 70 71 71 71 70 72 72 70 67 69 69 70 68 67
56 57 61 61 60 60 59 61 62 61 60 60 62 62 63 64 64 65 65 66 67 69 69 70 71 71 70 72 71 71 70 70 69 69 69 69 69 69 69 69 69 67 66 67 68 69 69 69 70
54 58 61 62 61 60 60 60 61 61 64 61 61 61 62 63 64 65 65 66 67 67 68 69 70 70 69 71 70 70 70 69 69 70 69 68 68 68 68 68 67 69 68 67 67 68 68 68 67
57 60 58 62 61 59 58 59 60 61 63 59 59 60 61 61 63 63 65 65 66 67 68 69 69 69 70 70 69 69 70 69 69 69 69 67 67 68 67 67 63 68 67 64 67 67 67 69 64
59 58 59 61 60 60 59 57 56 61 60 58 58 59 59 60 61 63 64 65 66 67 68 68 69 69 70 69 69 69 69 68 67 68 68 69 67 67 66 68 68 68 69 69 69 69 69 67 64
56 55 54 61 59 59 59 55 57 61 58 55 57 57 58 58 61 63 65 65 66 66 67 68 69 70 69 69 69 68 68 68 69 70 70 69 68 69 68 68 68 69 69 69 69 67 68 66 64
43 48 51 57 60 57 59 56 57 60 60 53 55 56 56 60 61 63 64 64 65 66 67 67 69 69 69 69 69 68 68 69 70 70 70 70 70 71 69 68 68 69 69 69 69 67 67 66 65
29 46 52 54 59 57 58 57 55 60 58 57 53 53 55 60 61 62 63 64 65 65 66 67 68 69 70 70 69 69 68 69 69 70 70 71 71 71 70 69 70 70 69 68 69 66 66 66 63
30 30 52 56 61 57 56 57 56 59 59 54 52 55 56 59 61 62 62 65 63 64 66 67 68 69 69 69 68 68 68 69 70 71 71 71 70 70 69 69 70 69 67 68 68 69 65 66 65
30 42 53 55 57 57 56 56 58 60 58 55 55 53 56 57 60 61 62 63 63 63 65 67 68 69 68 69 69 69 69 70 69 70 70 71 70 67 69 69 69 69 69 69 69 68 66 65 64
24 26 53 52 54 55 55 54 57 59 60 61 56 52 56 56 58 61 62 63 63 62 64 67 68 68 68 69 70 69 68 69 69 69 69 71 70 70 70 69 69 69 69 68 69 66 63 63 66
27 30 42 53 49 46 51 46 52 57 58 60 56 53 54 56 59 60 61 61 63 62 64 67 68 66 69 69 68 67 67 66 68 68 70 70 71 71 69 70 70 69 68 67 69 68 68 67 66
21 30 45 50 50 47 48 45 50 53 53 57 56 57 52 55 59 60 60 61 62 63 64 67 67 67 69 69 68 67 66 66 67 69 69 69 70 71 71 70 67 70 69 67 68 70 69 69 68
29 45 48 49 47 42 45 46 49 52 52 57 57 58 56 53 58 61 61 61 61 65 65 67 67 68 69 68 68 66 65 66 67 67 69 69 70 70 71 69 68 69 68 68 69 68 69 69 69
23 42 40 39 40 37 46 47 46 54 54 56 57 59 58 56 58 58 60 61 61 65 66 66 66 67 69 69 68 67 66 68 67 67 69 69 69 70 70 71 70 69 69 68 68 70 69 69 69
23 33 34 32 33 36 47 43 48 57 56 58 58 60 63 61 63 60 60 62 62 64 67 65 66 65 67 69 69 69 68 68 69 68 69 70 69 70 70 71 71 70 69 69 70 70 70 69 69
24 24 29 32 32 35 44 47 52 58 59 58 61 62 63 63 64 64 64 65 63 63 67 67 66 65 67 68 69 69 69 69 68 69 68 69 70 71 71 71 71 71 71 70 70 70 70 70 69
22 28 25 27 25 31 42 43 46 55 58 59 59 61 63 65 66 65 65 65 65 65 66 68 69 68 68 69 69 69 69 70 69 69 69 69 69 70 71 72 72 72 72 71 70 70 70 69 69
31 29 29 28 33 33 38 43 54 53 58 58 60 61 62 63 65 66 67 68 67 69 69 69 69 69 69 70 69 69 70 70 69 70 70 71 70 70 71 72 72 72 72 72 71 70 70 69 69
31 29 29 26 31 40 42 45 58 58 58 59 58 61 61 63 64 65 67 68 67 68 68 68 68 68 69 69 69 70 70 70 70 70 70 71 70 70 70 70 70 70 71 71 71 70 70 70 69

GFSSGP_sfc_dewp_102.txt.gz
Dewpoint
70 69 68 65 58 57 53 54 56 47 46 50 50 54 55 60 57 49 66 69 70 72 72 73 74 74 73 73 73 73 74 74 74 75 74 74 74 74 74 74 74 75 75 74 73 73 73 74 74
68 67 67 64 55 51 52 57 53 49 51 51 53 58 58 60 64 66 66 70 72 72 73 73 75 74 73 72 72 72 73 74 74 74 74 74 74 74 74 74 75 74 74 74 73 74 73 73 72
67 65 63 61 57 52 53 57 56 55 54 50 59 62 61 62 63 66 69 72 73 73 73 72 73 75 73 73 74 74 72 73 73 73 74 74 74 74 74 74 74 74 74 74 73 73 73 73 73
64 66 63 57 54 56 56 56 55 54 55 60 60 60 63 64 65 68 71 72 72 72 72 73 75 74 74 74 74 74 74 73 74 73 74 74 74 74 74 74 74 74 74 73 73 72 72 72 72
67 65 58 56 56 57 58 57 56 56 57 58 59 58 59 67 69 71 71 71 71 71 73 73 75 74 74 74 74 73 73 73 74 74 74 74 74 74 74 74 73 74 74 73 73 72 72 72 73
64 63 55 53 55 60 57 59 59 58 59 59 58 58 63 68 68 70 70 71 71 71 72 73 74 74 74 74 74 74 74 73 72 73 73 74 74 74 74 74 73 73 73 73 73 72 73 74 73
62 59 55 56 55 58 58 61 59 58 57 58 58 59 64 65 68 69 70 71 72 72 72 73 73 73 74 74 74 74 73 73 73 73 74 74 74 74 74 74 74 73 73 72 72 72 73 73 73
64 61 56 56 57 56 61 61 60 59 58 59 60 58 60 65 67 69 70 71 72 72 72 72 73 73 73 73 74 73 73 73 73 73 73 73 73 73 74 74 74 73 73 72 72 72 72 73 73
65 59 55 53 57 58 62 59 63 62 58 59 60 60 63 66 68 69 69 70 71 71 71 72 72 72 73 72 73 73 73 73 73 73 74 73 72 73 73 74 74 73 73 72 72 72 73 73 72
59 58 55 59 60 59 60 59 60 58 58 59 62 64 66 67 67 66 67 67 69 70 71 71 71 72 72 72 72 72 72 72 72 72 71 72 72 73 74 74 74 73 71 71 72 72 71 70 71
60 58 61 61 61 60 60 60 61 58 57 58 62 64 66 66 66 65 67 68 68 70 71 71 71 72 72 72 72 72 70 71 70 71 71 71 72 72 72 72 72 71 69 70 69 70 71 69 69
58 60 59 63 61 60 59 62 59 61 60 62 64 65 65 65 66 65 66 67 68 69 71 71 71 71 71 72 72 71 70 70 69 70 70 71 70 70 69 70 70 68 68 69 70 69 70 70 71
55 58 62 62 60 61 60 59 60 61 62 63 64 64 64 65 65 65 65 67 67 69 69 70 71 71 70 71 71 71 70 69 69 70 70 70 69 69 68 69 68 70 69 68 69 69 69 70 67
55 58 58 62 62 60 59 59 58 62 63 62 63 63 64 64 64 65 65 66 67 68 68 69 70 70 70 70 70 70 70 70 70 71 70 69 69 68 69 68 65 70 68 67 69 70 70 69 66
60 58 58 61 61 59 60 59 60 63 63 61 61 62 63 63 64 64 65 66 67 67 68 69 69 70 70 70 70 70 70 69 69 70 70 68 69 68 68 69 69 70 71 70 71 70 69 67 66
58 56 53 61 60 60 59 55 61 63 63 59 60 60 62 62 63 64 65 66 67 67 68 68 69 69 69 70 70 69 69 69 69 70 70 70 69 70 68 69 69 70 71 70 71 69 69 68 67
47 49 52 56 61 59 58 56 60 63 61 58 59 59 60 60 63 64 65 66 67 67 68 68 70 70 69 70 69 69 69 70 71 71 71 70 69 71 70 69 70 71 71 70 69 70 69 68 68
35 47 51 52 57 59 57 56 58 60 58 57 58 58 58 59 62 64 65 65 66 67 68 68 69 70 69 70 69 69 69 70 71 71 71 71 72 72 71 71 71 71 69 70 70 70 68 68 66
28 46 53 55 60 56 56 56 56 59 56 58 56 57 58 59 61 63 64 66 66 67 67 68 69 70 69 69 69 69 68 71 71 71 72 71 72 71 71 72 72 71 70 70 71 71 69 68 67
37 50 54 56 58 57 56 56 56 59 57 58 56 56 58 59 61 62 64 65 64 65 67 68 69 69 69 69 69 69 70 71 71 71 72 72 71 70 71 71 71 71 71 71 71 70 68 67 68
29 38 53 53 56 58 56 55 56 59 58 57 58 56 57 59 61 62 63 64 64 64 66 67 68 69 69 70 70 69 69 70 70 71 71 72 71 69 72 71 71 71 71 71 71 69 68 68 68
22 30 52 53 50 48 53 46 55 56 58 59 56 54 57 59 61 62 63 63 63 64 65 67 68 69 69 70 69 69 67 67 69 70 71 72 72 72 71 71 71 71 70 71 72 69 70 70 69
25 29 50 52 50 47 48 45 49 57 56 58 58 58 55 57 61 61 62 63 63 63 64 67 68 67 69 69 69 68 68 68 69 71 71 72 72 72 72 72 71 72 70 71 72 72 71 72 71
33 49 48 48 47 42 44 44 46 52 54 57 57 56 54 56 60 61 62 62 63 64 64 67 67 67 69 69 68 68 68 67 68 69 70 71 72 72 72 71 70 71 70 70 71 72 72 72 71
26 39 40 40 40 39 44 46 44 54 55 57 58 57 54 56 59 60 61 61 62 64 64 67 67 67 68 68 68 68 67 67 68 68 70 70 71 72 72 72 71 71 71 70 71 72 72 72 71
28 32 37 32 35 37 47 43 45 56 59 58 58 58 56 58 60 61 62 61 61 64 65 65 67 67 69 69 68 68 68 69 69 70 70 71 71 71 72 72 72 72 71 70 71 71 72 72 71
24 30 35 33 31 39 44 47 52 58 57 59 61 61 60 58 60 60 63 64 63 63 66 65 66 66 68 69 69 69 69 69 69 70 70 71 71 72 72 72 72 72 72 72 73 72 71 72 71
27 27 26 27 27 31 41 44 44 55 58 59 60 61 62 64 64 64 63 64 65 65 66 68 67 66 68 68 69 69 70 70 70 70 70 70 71 71 71 71 72 72 72 72 72 73 72 72 71
29 29 28 29 31 33 37 41 53 54 58 59 60 61 62 63 65 66 66 66 66 68 68 69 69 69 69 69 69 70 70 70 71 70 70 71 72 72 72 72 72 72 72 73 72 72 72 71 71
31 29 28 27 31 38 38 42 56 58 59 60 60 61 63 64 65 67 67 66 67 68 69 69 69 69 69 70 70 70 71 71 71 71 71 72 72 72 72 72 72 73 72 73 73 72 72 71 71

GFSSGP_sfc_dewp_105.txt.gz
Dewpoint
68 67 67 65 60 59 53 54 53 46 44 48 47 49 51 58 55 47 64 68 67 67 71 71 75 74 73 73 74 74 74 74 75 75 75 75 75 75 74 74 74 74 74 74 74 74 74 74 74
67 66 67 65 57 52 53 56 47 44 46 48 56 56 57 60 62 63 64 68 68 68 71 71 75 74 73 73 73 73 74 73 74 75 74 74 75 75 74 73 74 74 74 73 74 73 73 72 71
66 66 64 62 57 53 53 55 47 47 50 51 59 61 61 60 62 63 66 68 68 70 70 72 74 74 73 73 73 72 73 74 73 74 74 74 74 74 74 74 74 74 74 74 73 73 74 73 73
64 67 65 58 54 56 55 56 49 51 49 59 60 59 62 63 63 66 68 68 68 70 70 72 75 74 74 74 73 73 72 73 73 74 74 74 74 74 74 75 74 74 73 73 73 72 73 73 73
67 65 59 55 55 57 56 55 52 51 52 58 58 58 59 66 68 68 68 68 68 68 66 71 75 75 74 74 74 73 73 73 74 74 74 74 74 74 74 74 74 73 73 73 73 72 73 73 74
64 62 55 53 55 58 56 57 55 56 58 58 57 57 61 67 67 68 68 68 67 67 70 71 74 74 74 74 74 73 73 73 74 73 74 73 75 74 75 73 74 73 73 73 73 73 74 74 73
62 59 55 55 56 58 57 59 58 57 57 57 56 56 64 65 67 68 68 69 66 70 71 72 70 73 74 74 74 73 73 73 74 73 74 74 74 74 74 74 73 73 72 72 73 73 73 73 73
63 61 57 57 56 57 60 59 59 58 57 58 57 57 60 65 68 68 68 66 68 69 71 72 73 72 72 72 73 74 73 74 73 74 74 73 73 74 73 74 74 73 73 72 72 72 73 73 72
63 59 54 55 57 58 61 57 61 59 57 56 59 57 61 66 67 67 66 65 67 70 71 72 71 72 73 73 73 73 73 73 74 74 74 73 73 72 72 73 74 73 73 72 72 73 73 73 72
58 58 56 59 61 59 60 58 57 58 58 59 60 63 64 66 65 63 61 64 66 69 69 72 71 71 72 71 74 74 73 72 73 72 73 72 72 74 72 73 73 72 72 73 73 72 71 69 70
57 57 60 61 62 62 59 58 56 58 57 59 59 61 63 64 64 59 60 61 65 69 70 71 71 73 72 73 72 71 71 71 72 73 72 73 73 73 73 72 68 69 71 67 68 69 70 68 69
57 60 60 62 63 61 59 59 59 60 57 59 60 62 63 62 58 58 59 63 66 68 70 70 71 72 73 74 71 70 69 69 69 71 73 72 70 71 72 69 69 68 68 70 71 69 71 71 71
56 58 61 63 60 59 61 58 60 60 61 62 62 62 60 60 61 62 62 65 66 66 69 70 71 73 73 72 70 70 70 69 69 70 72 70 69 70 69 70 69 69 68 69 71 71 70 70 69
56 57 59 62 61 60 59 59 57 61 62 61 61 60 61 63 64 64 64 64 66 67 68 69 71 72 72 72 73 72 71 70 71 71 71 72 70 70 69 67 68 67 69 69 71 72 70 67 67
57 56 58 59 60 59 60 57 59 62 61 61 61 61 62 62 63 62 63 65 65 67 68 69 70 71 71 72 72 71 70 69 70 71 71 71 71 70 71 70 70 70 73 73 73 72 69 66 66
56 56 53 60 59 60 59 55 61 63 62 60 61 61 62 63 63 63 64 64 66 67 69 70 68 69 70 72 72 71 71 70 69 69 70 70 70 71 70 69 70 71 72 72 71 69 66 67 67
51 48 52 57 61 60 59 58 60 63 62 59 60 61 62 62 64 64 64 65 66 68 70 70 70 70 70 72 71 71 71 71 71 70 70 72 71 73 71 70 71 73 71 71 69 70 70 69 67
46 48 51 52 58 59 57 57 60 61 60 59 59 60 61 61 62 64 65 65 66 68 70 70 70 73 73 72 72 70 70 72 72 71 71 72 71 73 73 71 73 73 70 70 70 71 70 70 68
43 42 51 57 59 57 57 57 60 60 59 59 59 59 60 61 62 64 65 66 66 68 69 70 71 73 72 71 70 69 68 71 71 72 73 73 73 73 73 72 73 72 71 72 73 71 70 67 69
49 51 52 55 57 57 56 56 60 61 60 58 59 59 59 60 61 64 65 65 65 67 69 71 72 73 72 71 71 70 71 72 73 74 74 73 73 73 72 74 73 73 71 74 73 72 68 68 70
33 41 52 51 55 57 55 55 56 59 59 59 58 59 59 59 60 63 64 64 65 66 69 70 72 73 72 72 72 72 72 72 73 73 72 73 73 71 73 73 73 74 73 70 73 72 71 67 69
32 32 52 52 49 45 51 46 54 57 58 59 57 56 57 58 60 62 63 64 65 66 68 70 72 73 72 73 72 73 69 73 76 76 72 72 73 72 72 73 73 74 72 73 73 72 72 72 69
29 33 52 51 50 49 51 47 51 57 56 57 58 57 55 58 59 61 62 64 64 66 67 69 71 73 72 73 73 70 70 71 74 71 74 73 76 74 72 73 73 73 71 74 75 74 74 71 70
47 48 50 51 50 44 46 47 49 55 55 57 58 58 56 57 59 62 62 65 65 66 66 68 71 72 73 73 73 73 72 72 69 70 71 75 72 75 74 73 73 74 73 73 73 75 74 73 72
40 42 39 40 42 34 44 47 44 54 55 57 57 58 58 57 59 61 62 63 65 65 66 67 70 71 72 72 72 72 73 73 72 71 70 71 70 71 74 76 73 71 74 73 73 75 74 74 72
34 35 32 33 34 35 47 44 45 54 55 57 59 58 59 58 58 60 62 63 64 65 66 66 68 70 71 71 72 72 72 70 70 71 70 70 72 74 73 75 75 73 73 73 73 72 72 73 72
25 24 30 33 38 37 45 47 50 56 58 57 57 59 58 58 59 61 63 64 64 65 66 66 68 69 70 69 71 72 72 71 71 73 73 71 73 71 73 74 74 74 74 73 73 71 73 74 74
25 25 23 31 33 32 43 45 45 55 55 56 58 59 58 58 61 62 64 64 64 65 66 67 68 68 69 70 71 71 72 72 72 72 73 73 73 74 73 74 74 74 74 74 74 75 75 74 72
25 25 28 29 32 30 35 42 52 55 57 59 60 60 60 60 62 64 65 66 68 68 69 68 69 70 69 69 71 72 72 72 73 73 73 73 73 73 73 73 73 74 74 75 75 75 74 74 74
30 25 28 23 33 38 40 42 57 56 59 59 60 62 63 62 62 64 66 67 68 68 69 70 70 70 70 71 71 70 71 72 72 72 73 73 73 74 74 74 74 74 74 74 75 73 73 73 73

GFSSGP_sfc_dewp_108.txt.gz
Dewpoint
67 64 66 65 61 58 50 51 48 45 44 45 45 44 51 56 52 50 58 62 63 65 68 71 75 74 74 75 75 74 74 75 75 75 75 75 75 75 75 74 74 74 74 74 74 74 74 74 73
61 65 67 64 58 52 51 51 46 44 46 46 50 52 54 58 57 57 60 61 63 64 66 68 75 73 73 73 74 74 73 74 75 74 74 74 74 74 74 74 74 74 74 74 73 72 72 72 72
64 65 65 61 58 53 51 48 45 45 45 55 57 57 58 58 57 57 60 63 64 65 67 71 74 73 72 72 72 73 74 74 74 75 75 73 74 74 74 74 74 74 74 74 74 73 74 73 73
63 66 64 58 54 56 52 47 47 47 54 58 58 58 60 58 59 60 63 63 65 66 67 73 74 74 74 73 73 73 73 73 74 74 74 74 74 74 75 74 74 74 74 73 73 74 73 74 73
66 65 61 56 56 55 54 48 49 47 55 57 57 57 57 61 62 63 64 63 64 62 63 70 75 74 74 74 74 73 72 73 74 74 74 74 74 74 74 74 74 74 74 73 73 74 74 74 73
66 61 57 53 55 57 55 51 50 48 55 57 57 55 58 63 62 64 64 64 59 58 63 68 73 74 74 74 74 74 74 74 74 74 74 75 75 74 74 74 74 73 73 73 74 74 74 74 73
62 61 56 55 56 57 57 55 52 55 57 56 55 52 61 61 64 64 64 61 61 63 66 67 68 73 74 74 73 73 74 74 74 74 74 74 74 74 74 74 73 73 73 73 73 73 73 73 72
63 60 56 56 56 56 59 58 58 57 56 56 54 54 59 62 64 63 62 60 63 63 66 68 70 70 72 70 74 74 74 74 73 74 74 73 73 74 74 75 75 73 73 72 73 72 73 73 72
63 60 56 56 56 58 58 58 60 59 57 55 56 54 60 63 63 61 59 61 62 65 65 65 66 70 72 72 72 73 74 74 74 73 74 73 72 70 71 75 74 73 72 72 73 73 73 73 73
57 59 54 58 59 59 58 57 57 57 56 56 54 58 61 62 61 58 57 59 61 64 64 68 67 70 68 66 72 72 69 68 68 69 71 68 70 74 70 73 72 72 72 73 73 72 70 71 63
56 57 59 60 61 60 57 56 56 57 56 56 57 59 60 60 59 55 56 58 61 64 65 66 68 69 66 69 66 66 66 68 70 71 70 69 67 67 66 66 65 68 71 66 68 68 66 67 64
56 58 57 60 62 60 57 57 59 55 56 57 58 58 59 58 56 54 56 57 62 64 65 65 67 69 69 67 64 65 65 66 66 69 71 70 67 68 67 65 66 67 67 69 70 66 70 70 68
54 58 61 62 62 61 62 58 59 58 58 57 57 57 57 56 55 56 56 60 62 63 64 65 68 70 71 70 66 65 66 65 66 67 69 67 67 68 66 68 66 67 68 68 69 68 68 68 66
54 57 61 62 61 62 58 58 56 59 57 57 57 56 55 54 56 58 59 61 61 63 65 66 68 71 70 70 70 68 66 67 66 66 69 70 67 68 66 66 65 66 68 68 69 70 65 64 64
56 56 60 62 60 59 60 55 56 58 57 56 55 56 56 58 60 60 61 61 62 63 65 66 68 69 70 71 70 67 66 66 66 66 71 71 69 72 70 67 66 67 71 72 71 68 67 63 62
54 56 55 60 60 59 57 53 59 61 57 55 55 55 58 59 59 59 60 60 63 65 65 67 65 67 69 70 72 69 67 66 66 66 68 70 71 71 71 66 67 69 70 69 67 65 63 63 63
48 47 53 58 61 61 59 56 60 62 57 55 55 55 58 59 60 61 60 62 64 66 67 67 67 67 69 72 70 69 71 67 67 67 68 72 72 72 69 67 69 72 69 68 65 65 66 64 64
45 48 51 55 59 60 58 58 59 61 58 56 56 55 58 58 59 62 60 62 65 66 68 69 68 70 71 71 71 68 68 68 69 67 68 72 71 73 71 69 71 70 68 66 66 70 67 66 65
44 45 51 55 58 58 58 58 59 59 59 56 56 56 56 57 59 62 62 62 64 67 68 70 70 72 70 69 66 66 65 67 68 68 72 72 73 73 74 69 72 70 68 71 72 68 69 63 66
41 43 52 56 57 56 55 57 57 59 58 56 55 54 55 56 58 61 63 63 62 65 68 70 71 73 74 69 69 67 68 67 67 69 71 72 73 74 73 73 71 72 68 70 72 72 64 65 68
43 44 48 51 55 56 53 52 58 59 59 57 56 56 55 57 57 60 62 63 63 65 68 70 71 72 73 71 70 71 75 75 74 73 68 70 72 72 74 72 73 72 71 66 71 70 71 63 68
34 40 48 50 49 47 52 48 54 57 57 59 57 56 55 56 58 59 61 62 63 64 67 70 71 72 71 74 71 72 70 72 66 68 68 70 73 71 71 73 73 74 71 72 71 70 71 72 65
33 34 44 46 44 45 46 46 49 57 56 58 58 56 55 56 57 58 60 62 62 64 66 69 72 73 72 74 74 73 69 66 67 67 72 73 73 72 71 73 73 74 69 73 74 74 74 69 67
37 38 42 46 43 36 43 46 49 51 54 52 58 56 55 55 56 58 59 62 62 63 65 67 72 73 73 74 72 73 71 70 72 70 74 68 68 69 72 72 74 74 73 73 71 75 73 73 72
39 41 38 38 37 36 41 43 42 50 54 55 53 56 56 55 56 57 59 62 64 64 65 67 70 73 73 72 72 72 72 72 71 71 68 70 68 69 71 73 74 71 74 73 73 75 74 72 71
34 39 35 35 34 34 44 40 43 50 54 56 56 56 58 56 55 56 59 61 65 64 65 66 69 71 72 72 72 73 74 68 74 71 68 67 74 68 72 72 71 72 74 73 74 70 69 71 70
31 32 34 32 34 35 41 43 49 53 54 55 56 57 57 58 57 57 59 61 63 64 66 67 68 71 71 70 72 73 72 71 75 71 75 69 72 69 72 72 72 72 72 73 74 69 71 73 72
24 30 30 31 30 31 38 39 37 52 54 55 55 56 57 59 59 58 59 62 63 64 65 67 68 70 70 69 70 69 70 72 72 72 71 73 73 74 73 72 72 73 74 74 74 71 72 72 69
23 23 23 23 27 27 30 36 47 52 54 54 55 56 58 59 60 61 63 64 65 65 67 68 68 69 69 69 70 70 69 69 72 73 70 72 73 75 72 72 73 72 72 74 75 73 71 72 72
21 22 22 20 28 30 30 41 55 54 55 57 58 58 59 59 59 63 66 66 68 68 69 69 68 69 70 70 70 70 70 69 68 70 70 72 71 74 73 73 74 72 72 73 73 72 70 71 71

GFSSGP_sfc_dewp_111.txt.gz
Dewpoint
67 63 63 63 61 59 48 46 44 43 42 44 42 46 52 55 52 51 56 60 62 63 68 71 75 75 75 75 74 75 75 75 75 75 75 75 75 75 74 74 74 74 74 74 74 74 74 74 74
62 61 64 62 59 50 46 46 44 44 43 45 48 50 53 53 53 55 57 61 61 62 64 69 75 73 74 74 74 74 74 75 74 75 75 74 75 75 74 74 74 74 74 74 73 72 72 73 73
64 62 65 64 58 53 46 46 45 43 46 49 51 57 55 52 53 54 58 60 62 67 68 71 73 72 72 73 74 74 74 74 74 74 73 74 75 74 74 74 74 74 74 74 73 73 73 72 73
62 66 63 60 53 54 46 45 45 46 52 54 56 56 53 56 55 56 58 62 64 66 67 72 73 74 74 73 73 73 73 74 74 74 74 74 74 74 73 73 73 73 73 74 73 74 74 73 73
64 66 61 57 53 51 46 46 47 52 53 54 54 51 53 56 56 58 62 63 65 64 65 69 74 74 74 74 73 73 73 74 74 74 74 74 75 74 74 73 74 74 74 74 74 74 74 73 73
65 62 57 54 56 52 46 47 47 52 55 56 55 53 56 57 58 59 62 62 55 58 64 68 74 74 74 74 74 74 74 74 74 74 75 74 74 75 74 74 74 74 74 74 74 73 73 72 72
61 61 55 55 57 56 48 49 47 53 54 53 52 54 55 56 59 60 62 54 56 63 64 66 69 73 74 74 74 74 74 74 74 74 74 76 75 74 74 74 74 73 73 73 73 73 73 72 72
64 60 56 55 56 57 55 51 54 54 54 54 52 53 54 58 59 59 55 58 64 65 67 71 68 69 70 70 74 74 73 74 73 73 74 74 74 74 74 75 75 73 73 73 73 73 73 72 73
61 61 56 55 57 58 57 56 58 58 55 54 54 54 57 58 58 56 56 57 62 63 67 64 69 68 72 70 72 73 73 74 74 73 74 74 68 69 72 74 74 73 73 73 73 73 73 73 74
58 59 55 57 58 59 57 57 58 57 55 54 53 56 57 58 57 55 56 56 60 63 64 66 64 66 69 65 71 70 68 69 66 67 72 73 69 75 68 73 73 73 73 73 73 72 73 74 68
55 57 58 59 60 59 57 57 56 55 54 53 55 56 57 56 56 54 55 56 57 64 64 66 67 71 66 67 66 67 68 66 67 72 72 70 69 67 63 66 68 69 73 69 70 69 67 63 59
55 56 58 60 61 59 55 56 56 56 55 55 56 57 56 55 52 52 54 56 57 60 64 63 64 71 70 62 62 67 68 67 68 73 72 69 70 64 64 63 67 68 71 67 72 63 66 64 64
54 56 59 60 60 60 58 57 56 55 55 56 56 55 55 53 52 53 55 57 58 59 61 62 65 73 68 65 64 68 66 69 67 66 67 72 69 66 66 67 65 70 69 65 68 65 65 65 63
55 58 59 59 60 59 57 56 55 55 55 55 55 53 53 52 51 54 56 58 59 60 62 63 69 72 68 67 69 69 69 66 69 65 66 71 65 70 66 66 64 65 70 69 70 69 63 62 60
56 57 59 60 60 59 57 53 54 55 54 54 53 53 51 51 54 55 57 58 59 61 62 65 68 65 67 68 68 70 63 67 68 67 70 70 69 70 69 65 65 65 68 70 67 66 64 59 59
54 57 55 60 60 62 58 52 58 56 54 52 51 50 51 53 55 56 57 56 61 63 64 65 61 64 65 68 69 70 70 72 69 66 68 70 71 71 72 66 65 67 69 67 62 64 59 60 59
51 48 55 58 62 60 58 55 57 59 52 51 51 51 53 56 57 58 56 58 62 64 65 65 65 66 67 70 72 72 70 69 71 70 68 71 71 71 69 64 69 72 67 64 65 62 72 60 59
44 49 51 55 59 60 58 56 58 60 54 50 50 51 54 56 56 57 57 59 62 64 66 66 65 69 71 69 70 70 71 71 66 72 72 71 70 71 71 68 69 73 67 64 69 74 65 64 61
46 47 52 53 60 57 57 57 55 58 59 54 52 52 55 55 56 57 57 58 61 64 66 70 71 71 69 68 69 70 72 70 71 71 71 71 71 72 73 72 70 72 71 71 69 69 68 63 63
38 53 53 55 59 56 56 57 58 59 58 56 55 53 54 55 55 57 57 58 59 63 67 71 71 71 72 68 73 70 70 71 71 71 71 71 72 72 71 74 71 73 67 70 71 72 63 61 64
35 48 52 53 56 57 55 55 56 57 59 59 54 54 54 55 55 56 60 58 60 62 65 68 72 72 72 74 70 71 72 73 69 71 68 70 71 71 73 71 75 72 73 67 71 69 71 66 64
35 48 52 53 51 48 51 47 53 57 57 58 58 53 53 55 57 56 60 62 59 62 64 69 70 73 71 74 74 73 68 70 68 67 68 72 71 70 71 71 72 74 73 75 70 67 73 74 65
37 37 57 49 46 47 48 47 52 56 54 55 57 56 54 54 56 56 58 61 61 62 63 66 70 73 73 73 73 70 72 68 66 70 74 73 73 71 70 72 72 73 72 73 74 72 75 69 72
36 37 43 46 43 40 45 44 50 54 54 55 56 57 55 58 54 61 60 62 62 60 61 65 69 72 73 72 72 73 73 73 72 69 69 68 70 69 72 71 73 74 73 72 71 73 73 75 74
35 37 45 45 40 40 44 42 44 52 52 53 55 57 56 57 56 56 60 59 61 62 60 63 69 71 71 71 71 71 72 70 70 71 68 71 68 70 72 73 73 71 74 73 73 74 74 72 72
35 35 43 38 38 40 40 39 48 48 51 54 54 57 58 55 56 56 58 63 60 60 62 62 68 71 71 70 71 72 72 68 68 70 72 66 69 67 75 72 72 72 72 72 73 70 70 72 69
30 34 38 41 35 37 42 42 51 50 51 53 53 56 56 56 54 54 58 60 60 62 63 64 69 70 70 69 71 72 72 71 70 73 72 73 72 70 71 70 71 71 72 73 74 70 71 73 72
23 30 30 33 33 34 42 44 38 50 51 53 53 55 55 57 58 58 54 56 63 61 62 64 67 69 69 68 69 69 70 71 71 71 71 74 72 73 73 71 70 71 72 73 74 73 72 72 70
20 21 28 27 29 30 34 42 48 52 52 53 53 55 57 56 58 58 57 60 62 63 65 64 66 69 69 68 69 69 68 68 70 70 71 71 72 73 73 73 72 72 72 72 73 75 74 71 72
19 20 21 21 29 26 25 41 47 51 53 53 53 55 56 58 58 58 58 62 65 66 68 69 67 68 69 71 72 69 69 68 67 69 70 71 72 72 73 73 73 72 72 75 73 72 71 72 71

GFSSGP_sfc_dewp_114.txt.gz
Dewpoint
68 64 64 65 61 61 48 43 42 41 41 43 48 52 55 55 51 52 58 61 63 64 70 73 75 75 75 74 75 75 75 75 75 75 75 75 75 75 75 75 75 75 75 75 74 74 74 74 73
61 61 64 67 59 50 44 43 41 42 42 49 54 51 50 51 53 57 58 61 63 64 68 70 75 75 75 74 75 75 75 75 75 75 75 76 75 76 75 75 74 75 75 73 72 73 73 74 73
62 62 65 62 58 53 44 44 42 43 44 53 53 52 51 52 54 56 62 64 61 66 68 70 73 73 74 74 74 74 74 75 75 75 75 76 75 75 74 75 75 74 74 74 73 73 73 74 73
61 66 64 59 55 53 43 44 42 49 50 53 50 50 51 53 55 59 65 70 66 67 66 72 74 74 73 74 74 74 75 75 75 76 75 75 76 75 74 73 73 74 74 74 74 73 72 73 71
64 65 61 58 54 52 44 44 48 49 53 55 50 51 52 54 57 61 62 64 65 65 65 72 74 74 74 73 73 73 75 75 75 75 75 75 75 73 73 74 74 74 74 74 74 73 72 72 71
64 65 58 54 55 57 44 47 52 54 55 55 51 52 53 55 60 60 60 64 63 63 67 70 74 75 74 74 74 74 75 75 75 75 75 75 76 74 74 75 75 74 74 73 73 72 72 72 71
60 62 55 55 56 58 45 47 54 51 50 50 52 52 53 56 59 57 62 62 62 64 66 68 70 73 74 75 75 74 75 75 75 75 75 75 75 74 76 76 75 74 73 73 73 72 72 72 70
60 62 55 55 55 57 54 54 56 53 51 52 52 51 52 58 56 59 61 63 63 66 71 70 69 69 71 71 74 74 74 74 74 75 75 76 76 74 74 76 75 73 73 73 73 73 73 72 71
61 60 56 55 56 58 61 56 60 57 54 52 53 52 54 56 56 59 64 62 64 67 70 68 67 69 73 72 72 73 73 74 74 73 75 76 71 71 72 74 75 73 73 73 73 73 73 73 73
59 59 56 57 58 59 59 59 58 55 52 52 53 54 53 54 53 54 59 60 63 64 66 67 67 68 69 66 73 73 71 70 71 69 68 73 72 75 70 73 73 73 73 73 73 74 74 73 70
57 58 58 58 60 62 60 55 54 53 53 53 55 53 54 53 53 53 54 57 62 66 69 67 68 70 68 69 71 72 71 72 70 67 68 71 69 69 69 72 71 72 73 71 70 72 72 73 72
55 56 59 59 60 62 59 57 55 53 55 53 55 54 53 52 52 52 53 60 62 63 65 64 68 70 71 68 71 70 70 68 68 69 67 71 71 71 68 69 71 74 69 65 69 68 71 67 67
55 57 59 59 59 61 61 56 57 57 57 55 55 54 52 51 51 52 54 59 62 62 64 67 69 73 73 69 70 69 69 68 70 71 69 72 70 73 71 73 71 71 72 70 71 70 68 70 67
57 58 58 60 59 60 56 55 55 57 52 54 54 53 51 50 51 54 54 57 61 63 64 68 70 71 72 73 73 71 72 70 70 70 71 70 71 75 72 72 72 69 70 71 70 73 68 71 66
57 57 57 58 60 58 55 52 53 52 52 53 52 52 50 50 52 53 56 57 60 62 68 68 70 69 71 73 71 71 70 69 70 71 75 73 74 76 73 72 73 71 74 74 73 73 69 67 66
54 57 55 58 60 61 58 52 55 52 52 51 51 50 50 51 52 54 56 56 61 63 69 69 64 65 68 69 74 73 70 69 72 71 73 74 74 75 76 73 71 71 72 75 74 71 69 68 68
52 51 55 57 61 61 58 54 54 56 50 50 50 48 48 53 54 56 54 58 62 65 68 68 68 68 70 73 69 71 73 72 73 72 71 75 74 75 76 73 74 75 72 73 72 68 71 65 66
46 48 53 55 60 60 58 57 52 58 57 49 49 48 51 53 53 55 55 61 63 65 68 68 68 71 73 74 75 74 70 74 70 73 73 75 75 75 75 75 73 74 73 68 72 68 71 73 68
44 48 53 55 59 57 55 56 57 59 59 54 50 49 55 54 55 55 59 62 61 64 68 70 70 75 72 72 69 71 72 72 70 74 75 75 75 75 77 75 72 67 70 75 73 73 73 72 67
43 46 53 57 58 56 55 55 58 59 59 57 53 53 54 55 59 55 58 60 61 66 70 72 73 74 74 74 72 71 74 71 73 75 75 72 75 76 74 74 73 72 72 75 75 73 73 73 71
44 43 52 53 57 56 54 53 54 56 59 60 59 54 55 58 60 56 58 59 64 68 69 71 73 74 75 74 74 71 72 74 72 73 73 73 75 75 77 75 75 73 73 73 76 75 74 73 71
39 53 53 56 53 49 53 47 53 55 57 60 61 55 57 60 56 57 56 58 60 68 69 72 73 74 73 75 75 72 70 72 73 73 74 73 75 74 74 76 73 67 68 73 76 74 74 75 73
41 46 54 53 53 50 51 48 53 54 53 57 59 56 56 58 55 60 55 60 60 62 67 70 74 75 76 76 73 75 75 73 74 74 74 78 77 74 73 76 76 72 72 74 76 76 76 75 71
40 48 48 52 53 48 47 46 48 53 52 53 56 57 57 55 56 60 62 59 63 62 66 68 73 74 75 75 74 75 73 71 74 73 74 72 73 74 75 75 77 77 74 75 76 77 76 75 72
37 38 45 45 46 44 47 45 47 53 53 51 53 56 56 57 57 57 61 65 64 65 66 69 72 73 74 74 73 74 73 72 74 74 74 72 73 73 75 76 77 75 76 76 77 77 77 76 76
32 32 38 37 41 43 47 43 49 51 52 53 53 55 57 57 59 60 58 63 65 64 66 67 72 73 73 73 74 75 75 74 72 75 73 72 72 74 76 75 76 75 76 75 77 76 75 76 75
28 30 33 41 47 43 47 51 48 51 51 52 54 56 57 60 61 59 63 62 65 65 65 70 72 72 72 72 74 75 75 75 76 76 70 73 76 73 75 75 75 75 75 76 77 75 76 74 76
26 27 28 40 40 36 45 47 51 50 50 52 53 54 56 57 62 61 61 62 62 63 63 69 71 72 71 71 72 72 73 75 76 77 75 75 74 71 70 74 75 74 75 77 77 75 74 75 75
19 21 24 25 35 38 37 42 54 54 55 54 55 55 55 53 56 61 63 63 63 63 66 68 69 71 70 70 71 72 71 72 74 74 75 76 72 69 74 75 75 75 75 76 76 76 75 73 75
20 20 17 19 29 29 31 33 50 55 57 54 56 56 58 57 58 61 62 63 65 68 68 68 69 68 70 71 71 72 72 72 71 73 74 75 75 74 75 76 77 76 76 75 76 75 73 73 73

GFSSGP_sfc_dewp_117.txt.gz
Dewpoint
68 68 66 68 60 57 50 42 42 48 50 51 53 52 51 55 53 53 64 67 68 71 73 74 76 75 75 75 75 75 75 75 75 76 76 75 75 75 74 75 75 75 75 75 74 74 73 73 73
62 61 67 67 57 51 45 44 45 53 52 51 52 52 53 54 57 61 62 66 68 71 73 74 76 76 75 75 76 76 75 75 75 75 76 75 75 75 75 74 74 74 74 73 73 74 73 73 73
63 61 64 61 57 51 44 43 51 54 52 51 52 53 54 56 59 61 63 65 68 69 71 72 75 76 75 75 75 75 76 75 75 75 75 75 75 75 75 75 74 75 74 74 73 74 73 73 74
61 67 64 59 54 56 43 43 45 51 50 51 52 52 55 60 61 65 65 68 68 68 70 73 73 74 75 75 75 75 75 74 75 76 75 75 75 75 74 74 74 74 74 74 73 73 72 73 73
61 67 58 56 55 55 44 53 55 53 51 51 52 52 58 62 64 64 66 66 66 69 72 73 76 74 74 74 74 75 75 74 76 76 75 75 75 73 74 74 74 74 74 74 73 72 72 72 72
63 64 56 53 53 55 54 59 56 54 52 52 52 53 58 62 62 63 65 65 65 69 71 72 75 75 75 74 75 75 75 75 75 75 75 73 74 75 76 74 74 74 73 72 72 72 71 71 70
61 61 56 54 56 56 55 59 55 52 51 52 53 54 58 59 62 64 64 65 66 69 70 71 72 73 74 75 75 75 75 74 75 75 75 74 74 75 75 76 74 73 73 73 72 71 71 70 69
63 61 56 56 55 54 59 56 59 53 52 53 53 52 56 56 61 62 62 64 67 67 70 71 71 72 72 72 75 74 74 75 75 75 75 75 75 74 74 76 75 73 73 73 73 72 71 70 70
62 58 56 55 55 57 61 57 58 57 52 52 52 56 58 58 61 63 65 66 67 68 70 70 69 71 71 71 72 74 74 74 74 73 74 74 72 72 73 74 74 73 73 73 73 72 71 71 72
60 56 57 61 56 59 62 59 57 57 55 52 52 57 55 61 61 61 64 65 66 66 68 70 69 70 70 69 72 72 73 71 68 70 69 70 71 72 72 73 73 73 73 72 72 72 72 73 71
58 57 59 61 58 60 61 59 54 57 55 51 52 53 55 58 60 60 62 63 67 67 69 69 68 69 68 69 70 69 71 70 69 68 69 70 70 71 72 72 71 71 73 71 71 72 74 72 71
57 58 58 61 61 61 61 63 59 57 55 55 53 53 52 52 59 59 62 63 64 65 66 66 68 67 68 72 72 71 68 64 67 68 68 69 70 68 68 70 71 72 69 66 66 69 70 69 70
56 59 60 60 61 61 63 62 59 58 57 55 53 52 52 52 53 59 61 63 65 64 65 65 67 68 66 69 70 70 67 68 68 68 69 70 71 71 69 70 70 69 70 70 67 69 68 68 63
59 62 59 61 61 61 59 62 58 58 57 54 53 51 51 51 55 60 61 61 62 65 67 67 67 68 69 69 68 70 69 70 69 69 68 68 70 68 69 69 70 70 70 69 69 67 67 65 62
59 58 59 59 61 60 59 58 55 57 55 54 53 51 51 50 55 59 60 61 63 66 67 67 66 68 69 69 67 68 71 71 70 69 69 70 70 69 67 70 70 69 69 69 69 68 68 65 64
58 58 55 59 60 60 60 52 57 56 54 53 52 51 50 52 55 56 57 61 66 66 66 64 65 65 66 68 69 68 68 68 69 70 71 69 68 69 72 70 68 68 71 71 71 70 66 64 64
55 52 54 55 61 59 58 54 56 58 53 51 51 50 50 52 55 56 57 64 65 66 66 66 64 64 70 69 68 69 67 68 70 70 70 69 69 70 72 71 70 70 70 70 69 68 65 67 64
50 52 53 55 58 59 57 56 56 58 58 51 50 48 51 52 55 55 61 62 63 67 67 67 66 69 68 70 71 70 69 70 70 72 71 71 70 71 72 70 63 67 69 68 71 68 70 68 64
48 52 53 57 59 57 57 55 55 57 59 59 53 48 52 52 55 55 62 62 63 64 66 66 67 70 68 70 67 67 66 69 71 71 71 70 70 71 72 68 66 66 68 68 71 67 70 69 69
48 52 53 56 58 56 55 54 56 58 58 60 60 52 53 54 54 60 61 61 62 66 68 68 70 69 69 71 70 70 68 69 71 73 71 71 71 70 73 68 66 64 69 70 70 70 71 69 67
50 49 52 53 56 56 54 52 55 58 58 59 60 59 54 56 56 59 59 60 64 67 68 69 70 70 71 70 70 69 71 71 70 71 71 71 70 72 72 69 68 68 69 68 71 72 69 70 69
48 55 54 55 52 49 54 46 53 55 56 57 59 61 54 57 56 58 59 61 64 66 68 69 70 70 70 71 69 66 68 67 69 69 71 70 72 71 71 72 71 68 63 68 70 73 72 71 69
51 55 53 52 51 52 50 49 51 55 54 55 57 59 59 57 53 57 59 62 64 66 68 68 70 71 70 70 70 69 69 69 71 71 71 71 72 70 70 72 70 65 65 70 71 73 71 67 66
54 54 53 53 52 46 48 49 50 52 52 54 56 58 59 60 58 57 61 62 65 66 67 69 70 71 71 71 70 70 68 68 70 71 71 70 70 71 71 72 72 71 71 70 72 72 72 66 64
48 46 44 43 45 45 50 49 50 53 53 52 53 57 60 62 57 59 61 61 63 66 67 69 69 70 70 71 70 70 68 68 68 69 70 69 70 71 71 73 72 72 72 72 72 71 71 72 70
47 45 43 37 41 45 50 48 49 51 53 52 54 54 58 60 57 58 57 63 63 66 68 68 69 70 69 71 71 71 70 69 71 71 70 70 70 71 71 72 72 72 72 71 72 71 71 70 71
34 32 31 45 47 44 48 49 53 51 54 51 53 55 57 57 57 59 63 61 66 63 66 69 70 70 69 70 71 71 72 71 70 71 69 70 72 73 71 71 72 71 72 71 72 71 71 70 71
33 28 33 42 40 39 46 46 47 51 50 52 50 53 56 59 61 60 63 62 64 64 64 69 71 70 70 71 71 70 71 71 72 72 68 71 71 68 65 63 69 71 72 73 72 71 69 71 70
21 22 27 34 39 39 38 45 53 52 54 56 55 52 54 58 59 60 64 63 63 64 63 69 70 70 70 70 70 70 71 71 71 72 71 72 70 66 64 65 70 71 71 71 71 71 70 70 70
22 21 20 20 20 35 40 39 51 53 56 55 57 57 54 58 58 57 61 63 62 63 65 70 70 70 69 70 70 70 70 70 71 70 71 72 67 68 71 72 72 71 72 73 72 71 71 70 70

GFSSGP_sfc_dewp_120.txt.gz
Dewpoint
70 69 67 68 58 57 49 47 50 49 49 51 50 52 52 55 51 52 65 68 70 71 72 74 76 75 75 75 75 75 75 75 75 75 75 75 75 75 75 75 75 75 74 74 73 73 73 73 74
64 62 66 65 54 48 50 51 49 50 52 53 54 55 56 57 62 65 66 69 71 72 72 73 76 76 75 75 75 75 75 75 75 75 74 75 75 74 74 74 74 74 74 74 73 73 73 73 74
61 63 64 59 56 52 50 51 50 51 53 53 54 57 57 60 63 64 67 70 72 72 73 74 76 75 75 75 75 75 75 75 75 74 75 75 75 74 74 73 73 73 73 74 72 73 74 73 73
65 66 62 58 55 55 50 53 50 51 53 54 55 56 59 62 62 65 67 71 71 72 72 75 75 74 75 75 75 75 75 75 75 75 75 75 75 74 74 74 74 74 73 73 73 73 73 73 73
68 65 56 55 55 55 54 51 50 51 52 55 56 56 60 63 64 66 68 69 69 70 71 72 75 75 74 75 75 75 74 75 75 75 75 74 74 74 74 74 74 74 73 72 72 72 72 73 73
64 63 54 52 54 56 57 57 52 51 54 57 57 58 61 66 66 66 67 68 70 72 73 72 74 74 74 75 75 75 74 75 75 75 74 74 74 75 74 74 74 73 72 72 71 71 71 71 72
61 60 54 54 54 57 55 58 57 52 54 55 58 57 61 63 66 66 67 70 71 72 72 72 71 72 74 75 75 75 74 75 75 75 73 75 75 74 74 73 73 72 71 70 70 69 69 70 71
63 62 55 55 55 56 57 58 57 53 53 57 59 57 59 61 64 66 67 69 70 71 72 72 72 72 72 73 75 74 75 74 75 75 74 75 74 74 74 75 75 73 72 71 70 70 70 70 70
64 57 55 55 55 57 60 55 57 55 54 56 56 59 60 63 64 65 65 66 68 70 71 72 71 72 72 72 72 74 74 74 75 74 75 73 72 72 72 74 73 73 72 72 72 72 72 72 72
59 55 55 57 57 59 61 59 54 53 52 54 56 58 61 62 63 64 64 65 67 68 69 71 71 71 71 71 72 72 71 69 70 69 68 69 71 71 72 73 73 73 72 72 73 73 73 72 71
59 57 60 58 58 61 59 59 56 55 55 56 57 58 61 62 63 64 64 64 65 67 69 69 70 70 69 71 70 71 69 68 68 66 67 68 70 70 72 72 72 71 72 71 71 72 73 72 71
58 58 60 62 60 60 60 61 59 59 56 57 58 60 60 60 62 64 64 65 64 66 68 68 68 68 70 70 70 70 66 66 67 66 67 68 69 69 69 70 71 70 70 65 65 69 71 68 68
58 59 61 62 62 61 60 61 61 61 60 57 57 59 59 59 60 63 64 65 65 66 66 67 67 69 70 70 70 68 66 67 68 67 68 69 68 69 70 70 69 67 69 69 67 67 67 68 68
60 60 61 61 59 59 58 60 62 60 57 53 54 52 56 59 60 62 64 64 64 64 65 66 66 69 70 70 69 67 67 66 68 67 67 67 68 69 70 68 68 68 69 67 68 68 68 65 63
60 58 59 60 60 56 58 57 58 59 54 53 51 51 52 56 61 62 63 64 64 65 66 66 67 68 68 69 70 67 69 69 68 68 67 67 69 69 68 69 69 69 68 68 70 69 67 67 64
56 57 54 59 60 60 59 53 59 59 56 54 50 50 53 59 60 61 63 63 65 66 66 66 66 67 67 67 68 70 70 70 68 68 69 70 70 70 70 68 68 69 70 70 69 69 68 65 66
53 49 54 56 61 59 58 54 59 60 56 51 50 50 55 58 60 60 62 65 65 65 65 65 64 66 68 69 68 68 70 70 69 69 70 68 69 70 71 71 70 69 69 69 69 67 66 65 65
48 51 53 53 58 59 57 56 57 58 58 55 51 51 53 55 56 61 64 64 65 65 65 65 66 68 67 70 70 68 69 69 71 69 69 69 70 71 70 64 63 66 68 67 70 66 69 64 63
52 53 52 55 59 56 56 57 57 57 58 59 59 50 52 54 59 63 64 64 65 65 66 65 68 68 67 69 68 67 67 67 70 70 70 71 70 72 70 66 62 67 67 69 70 66 69 65 67
51 50 52 55 57 56 56 55 58 58 57 60 60 58 52 54 60 60 61 63 65 65 66 66 68 67 68 68 69 68 68 68 71 72 71 72 70 72 70 67 61 68 69 67 70 71 68 68 67
49 48 52 53 56 56 55 52 55 57 59 59 60 60 54 56 59 60 60 61 64 64 66 67 68 68 70 70 69 70 69 70 70 70 70 69 71 72 70 68 66 69 67 65 70 71 70 69 68
47 52 53 54 52 49 54 46 52 55 56 57 59 60 60 57 60 60 59 62 65 65 66 67 69 70 69 70 67 68 66 66 68 69 70 70 70 72 71 69 69 68 62 67 70 73 70 68 66
52 53 53 53 51 51 50 48 49 55 54 55 58 59 60 60 59 59 59 62 65 66 66 67 70 69 70 70 68 66 67 67 69 69 70 70 71 70 71 71 70 63 65 69 71 71 65 67 65
54 52 53 53 51 45 48 49 48 51 52 54 57 58 59 60 59 59 60 62 64 66 66 68 69 68 69 69 70 68 68 67 69 70 70 70 69 70 71 71 70 69 70 70 71 72 68 63 64
52 48 45 43 44 43 51 49 48 52 52 53 54 57 59 60 59 59 61 62 64 66 67 68 69 69 68 69 70 69 68 68 69 70 70 69 69 70 70 71 71 71 71 70 71 71 71 69 67
47 42 40 36 40 44 50 46 47 52 51 53 53 57 59 61 59 60 61 63 64 65 68 68 68 69 70 70 69 70 68 67 69 69 69 70 69 69 70 72 71 71 71 70 71 70 71 70 71
42 42 43 43 45 43 47 50 53 53 54 53 53 57 59 61 60 60 61 63 65 65 67 68 68 69 68 70 70 70 69 67 70 71 70 69 70 72 71 71 71 71 72 70 71 70 70 69 70
35 36 37 43 37 37 45 45 46 47 51 51 52 53 54 59 61 61 60 62 63 66 67 68 69 69 68 69 70 70 70 70 70 70 68 69 70 70 70 68 69 71 71 71 71 71 69 70 70
20 21 21 35 39 38 41 44 51 49 53 53 52 53 53 55 59 59 62 63 64 66 67 69 69 69 68 69 70 69 69 70 71 70 68 70 69 66 66 64 66 71 70 71 71 70 69 69 69
22 20 19 18 16 38 37 38 48 51 55 55 54 52 52 54 60 61 62 63 64 64 65 69 69 70 68 69 70 69 69 71 70 70 71 72 69 68 66 65 70 70 71 71 71 70 71 69 69

GFSSGP_sfc_dewp_123.txt.gz
Dewpoint
70 69 67 68 56 55 49 49 50 49 50 51 53 54 55 58 51 48 65 68 71 71 73 73 75 75 75 75 75 75 74 75 74 74 74 74 73 74 74 74 75 74 74 74 74 74 74 74 73
65 65 66 64 52 49 50 51 49 51 52 53 55 56 57 58 64 64 66 69 71 72 73 74 75 75 75 75 74 75 74 74 74 74 74 74 74 74 74 74 74 74 73 74 74 74 74 73 73
63 66 62 58 56 49 50 51 51 52 53 54 56 58 59 61 64 64 67 70 72 72 73 74 75 75 75 75 74 74 74 74 74 74 74 74 74 74 73 72 72 73 74 73 74 73 73 73 73
67 64 62 55 53 54 52 51 52 52 54 56 58 58 61 65 64 67 69 72 72 73 73 74 75 74 74 75 74 74 75 74 74 74 74 74 74 74 74 73 74 72 73 73 74 73 73 73 73
68 63 55 54 54 56 52 53 53 52 55 56 57 58 61 63 66 67 70 71 72 71 73 73 75 74 74 74 74 74 74 74 74 74 74 74 74 73 74 74 73 73 72 73 73 73 73 73 74
63 62 53 52 53 57 54 54 53 55 57 59 59 60 63 65 65 69 70 70 71 71 71 72 74 74 74 75 74 74 74 74 74 74 74 74 74 74 74 73 73 73 71 71 72 72 72 72 74
61 58 54 54 54 56 55 55 56 55 55 56 59 60 64 65 67 68 68 69 71 72 72 71 72 72 74 74 75 74 75 74 74 74 74 74 74 74 74 73 72 71 71 70 71 71 71 71 73
63 60 55 56 54 55 57 58 57 55 56 58 60 59 61 65 67 67 70 71 71 72 72 71 71 72 72 72 74 74 75 75 74 74 74 74 74 74 73 75 74 72 72 71 70 71 72 72 72
65 58 55 55 56 57 60 56 57 57 57 57 59 60 63 65 66 67 68 69 70 71 71 71 72 72 72 72 73 74 74 74 75 74 74 73 72 72 72 73 73 72 72 72 72 72 72 72 72
60 55 56 58 58 60 61 58 55 56 55 57 59 61 63 64 65 66 67 67 68 69 70 71 71 71 71 72 72 71 72 72 72 71 69 70 71 72 72 72 73 72 73 73 73 73 73 73 70
60 56 58 57 58 61 61 56 54 55 54 57 59 60 63 64 65 65 65 67 68 69 70 70 70 70 70 71 71 70 68 70 68 66 68 70 70 70 71 71 72 71 72 70 70 68 72 71 71
58 60 59 59 58 60 59 59 59 58 57 58 61 61 62 63 63 64 64 65 66 68 69 70 70 68 70 70 70 69 66 66 66 65 67 68 69 68 69 70 70 70 70 66 66 66 67 68 68
57 59 62 62 59 61 61 61 61 59 61 59 61 61 61 62 63 63 63 65 65 66 68 68 68 69 70 69 69 67 65 66 66 66 67 68 68 68 68 69 68 66 68 68 68 67 67 67 67
60 61 60 60 61 60 58 59 61 60 62 59 60 60 61 62 63 63 63 64 65 66 67 67 67 70 69 68 67 65 65 66 67 67 67 67 68 68 69 68 67 68 68 67 66 68 66 67 63
60 58 59 60 59 59 58 55 58 62 60 58 58 59 59 60 63 63 63 64 65 65 66 66 67 69 69 68 67 65 66 66 67 67 67 66 67 69 67 67 68 68 68 68 70 69 68 66 64
56 56 53 59 60 59 60 52 59 62 58 55 57 58 58 60 62 63 64 64 64 65 65 66 67 68 68 68 68 67 68 67 67 67 67 68 69 69 68 68 67 69 70 69 68 67 66 66 66
52 48 53 56 59 57 58 56 59 60 55 54 53 52 56 60 61 63 64 64 65 65 66 65 67 67 67 68 68 68 69 68 67 67 69 70 70 71 71 69 70 68 68 69 70 68 66 65 64
45 51 53 53 56 56 55 56 58 59 60 53 51 54 56 59 60 62 63 64 65 65 65 64 66 67 67 68 68 68 68 69 69 68 69 68 70 71 68 65 64 67 67 68 68 66 68 64 64
51 52 53 55 56 54 54 56 57 59 60 59 59 54 58 59 60 61 63 65 65 65 65 63 67 67 68 68 67 67 67 68 69 70 69 69 70 71 68 65 61 66 68 69 70 68 67 65 66
51 53 53 55 57 56 55 54 58 59 58 59 60 57 56 58 59 62 63 64 63 64 65 65 67 66 68 67 68 67 67 67 70 71 70 70 70 71 69 67 62 68 67 68 70 70 68 67 66
49 50 52 52 56 56 55 52 55 58 58 60 59 60 55 58 59 62 62 63 63 64 65 65 67 66 69 68 69 69 68 69 69 69 69 70 70 71 69 66 65 67 65 68 69 70 68 67 67
43 52 52 52 52 49 54 45 52 55 56 58 58 59 55 59 61 61 61 63 63 64 65 67 67 68 69 69 68 67 66 66 67 68 69 69 71 71 70 68 67 67 62 68 70 70 68 67 66
49 53 53 53 51 51 50 48 49 55 53 56 58 59 59 59 60 60 60 63 64 64 65 67 67 68 68 68 68 67 66 66 68 68 68 69 70 70 71 70 69 61 67 69 70 68 63 66 66
53 51 52 52 49 42 49 48 48 52 52 54 56 58 60 59 59 59 60 63 64 64 65 67 68 68 69 68 67 67 67 67 67 68 68 69 69 70 70 70 69 66 69 69 71 70 63 63 66
50 45 41 40 42 40 50 49 48 51 54 54 56 56 60 59 59 59 60 63 64 64 66 68 68 67 68 68 68 68 67 68 68 68 68 68 69 69 70 71 70 69 70 70 71 70 69 65 67
48 42 39 34 38 42 50 46 45 49 52 53 55 56 60 60 59 59 60 63 65 65 66 67 68 67 67 68 68 68 68 68 68 69 69 69 69 69 70 71 70 70 70 70 70 70 70 70 70
46 41 41 43 43 41 46 49 49 51 51 52 52 55 59 60 59 60 60 62 64 65 67 67 68 67 68 68 68 69 68 66 68 69 69 69 69 70 70 71 71 70 71 70 70 70 69 68 70
42 43 37 42 37 35 43 45 44 48 50 53 52 56 58 60 62 61 61 62 63 65 66 67 68 68 68 69 68 68 68 67 68 70 69 69 69 70 71 71 70 70 70 71 70 70 69 69 70
23 25 29 36 40 36 38 41 49 48 52 53 54 56 57 59 61 60 62 63 64 64 66 67 68 68 68 68 69 69 69 69 70 70 69 68 70 69 69 69 68 69 70 70 71 70 69 68 68
25 25 20 18 16 36 38 34 51 50 54 53 53 55 57 59 59 61 61 64 64 65 67 67 68 68 68 68 70 69 69 69 70 70 69 68 70 68 67 66 66 70 70 70 70 70 70 68 68